Wetterdaten: Samstag, 09.04.2016
Datum Zeit Temp. A. Feuchte A. Luftdruck Regen Wind Richtung Richtung Sonnenschein ET UV Solar Taupunkt Windchill Windben Empfang
09.04.2016 00:00 4,8 C 96 % 1008,9 hPa 0,0 l/m 7,4 km/h (2 Bft) SW 224 0 min 0,000 mm 0,0 UV-I 0 W/m 4,2 C 3,9 C 9,7 km/h (2 Bft) 97,44 %
09.04.2016 00:02 4,8 C 96 % 1008,9 hPa 0,0 l/m 7,1 km/h (2 Bft) S 169 0 min 0,000 mm 0,0 UV-I 0 W/m 4,2 C 4,2 C 11,3 km/h (2 Bft) 97,87 %
09.04.2016 00:03 4,8 C 96 % 1008,8 hPa 0,0 l/m 8,5 km/h (2 Bft) W-SW 249 0 min 0,000 mm 0,0 UV-I 0 W/m 4,2 C 3,0 C 12,9 km/h (3 Bft) 95,65 %
09.04.2016 00:04 4,8 C 96 % 1008,8 hPa 0,0 l/m 8,2 km/h (2 Bft) W-SW 248 0 min 0,000 mm 0,0 UV-I 0 W/m 4,2 C 3,2 C 12,9 km/h (3 Bft) 91,67 %
09.04.2016 00:05 4,8 C 96 % 1008,9 hPa 0,0 l/m 7,8 km/h (2 Bft) W-SW 246 0 min 0,000 mm 0,0 UV-I 0 W/m 4,2 C 3,6 C 11,3 km/h (2 Bft) 94,29 %
09.04.2016 00:06 4,8 C 96 % 1008,9 hPa 0,0 l/m 6,6 km/h (2 Bft) SW 224 0 min 0,000 mm 0,0 UV-I 0 W/m 4,2 C 4,6 C 9,7 km/h (2 Bft) 100,00 %
09.04.2016 00:07 4,8 C 96 % 1008,9 hPa 0,0 l/m 6,3 km/h (2 Bft) W-SW 240 0 min 0,000 mm 0,0 UV-I 0 W/m 4,2 C 4,8 C 8,0 km/h (2 Bft) 100,00 %
09.04.2016 00:08 4,8 C 96 % 1008,8 hPa 0,0 l/m 5,6 km/h (1 Bft) SW 234 0 min 0,000 mm 0,0 UV-I 0 W/m 4,2 C 4,8 C 6,4 km/h (2 Bft) 95,65 %
09.04.2016 00:09 4,8 C 96 % 1008,8 hPa 0,0 l/m 5,4 km/h (1 Bft) SW 236 0 min 0,000 mm 0,0 UV-I 0 W/m 4,2 C 4,8 C 9,7 km/h (2 Bft) 92,31 %
09.04.2016 00:10 4,8 C 96 % 1008,8 hPa 0,0 l/m 7,0 km/h (2 Bft) S-SW 211 0 min 0,000 mm 0,0 UV-I 0 W/m 4,2 C 4,3 C 8,0 km/h (2 Bft) 100,00 %
09.04.2016 00:11 4,8 C 96 % 1008,8 hPa 0,0 l/m 7,6 km/h (2 Bft) W-SW 254 0 min 0,000 mm 0,0 UV-I 0 W/m 4,2 C 3,7 C 12,9 km/h (3 Bft) 96,15 %
09.04.2016 00:12 4,8 C 96 % 1008,8 hPa 0,0 l/m 8,1 km/h (2 Bft) W-SW 240 0 min 0,000 mm 0,0 UV-I 0 W/m 4,2 C 3,3 C 11,3 km/h (2 Bft) 96,47 %
09.04.2016 00:13 4,8 C 96 % 1008,8 hPa 0,0 l/m 8,9 km/h (2 Bft) W-SW 240 0 min 0,000 mm 0,0 UV-I 0 W/m 4,2 C 2,7 C 12,9 km/h (3 Bft) 97,62 %
09.04.2016 00:14 4,8 C 96 % 1008,8 hPa 0,0 l/m 9,0 km/h (2 Bft) S-SW 213 0 min 0,000 mm 0,0 UV-I 0 W/m 4,2 C 2,6 C 11,3 km/h (2 Bft) 100,00 %
09.04.2016 00:15 4,8 C 96 % 1008,8 hPa 0,0 l/m 7,3 km/h (2 Bft) SW 221 0 min 0,000 mm 0,0 UV-I 0 W/m 4,2 C 4,0 C 9,7 km/h (2 Bft) 95,83 %
09.04.2016 00:16 4,8 C 96 % 1008,8 hPa 0,0 l/m 9,7 km/h (2 Bft) S-SW 202 0 min 0,000 mm 0,0 UV-I 0 W/m 4,2 C 2,1 C 12,9 km/h (3 Bft) 96,15 %
09.04.2016 00:17 4,8 C 96 % 1008,8 hPa 0,0 l/m 11,0 km/h (2 Bft) SW 236 0 min 0,000 mm 0,0 UV-I 0 W/m 4,2 C 1,2 C 14,5 km/h (3 Bft) 100,00 %
09.04.2016 00:18 4,8 C 96 % 1008,8 hPa 0,0 l/m 8,3 km/h (2 Bft) W-SW 237 0 min 0,000 mm 0,0 UV-I 0 W/m 4,2 C 3,1 C 11,3 km/h (2 Bft) 95,65 %
09.04.2016 00:19 4,8 C 96 % 1008,7 hPa 0,0 l/m 9,0 km/h (2 Bft) SW 225 0 min 0,000 mm 0,0 UV-I 0 W/m 4,2 C 2,6 C 16,1 km/h (3 Bft) 100,00 %
09.04.2016 00:20 4,8 C 96 % 1008,8 hPa 0,0 l/m 9,2 km/h (2 Bft) SW 229 0 min 0,000 mm 0,0 UV-I 0 W/m 4,2 C 2,4 C 16,1 km/h (3 Bft) 91,30 %
09.04.2016 00:21 4,8 C 96 % 1008,7 hPa 0,0 l/m 10,9 km/h (2 Bft) W-SW 246 0 min 0,000 mm 0,0 UV-I 0 W/m 4,2 C 1,2 C 14,5 km/h (3 Bft) 100,00 %
09.04.2016 00:22 4,8 C 96 % 1008,7 hPa 0,0 l/m 11,0 km/h (2 Bft) W-SW 247 0 min 0,000 mm 0,0 UV-I 0 W/m 4,2 C 1,2 C 14,5 km/h (3 Bft) 95,00 %
09.04.2016 00:23 4,8 C 96 % 1008,8 hPa 0,0 l/m 7,8 km/h (2 Bft) W-SW 241 0 min 0,000 mm 0,0 UV-I 0 W/m 4,2 C 3,6 C 12,9 km/h (3 Bft) 100,00 %
09.04.2016 00:24 4,8 C 96 % 1008,8 hPa 0,0 l/m 7,4 km/h (2 Bft) W-SW 242 0 min 0,000 mm 0,0 UV-I 0 W/m 4,2 C 3,9 C 9,7 km/h (2 Bft) 100,00 %
09.04.2016 00:25 4,8 C 96 % 1008,7 hPa 0,0 l/m 7,4 km/h (2 Bft) SW 219 0 min 0,000 mm 0,0 UV-I 0 W/m 4,2 C 3,9 C 9,7 km/h (2 Bft) 96,30 %
09.04.2016 00:26 4,8 C 96 % 1008,7 hPa 0,0 l/m 9,1 km/h (2 Bft) W-SW 238 0 min 0,000 mm 0,0 UV-I 0 W/m 4,2 C 2,5 C 14,5 km/h (3 Bft) 100,00 %
09.04.2016 00:27 4,8 C 96 % 1008,7 hPa 0,0 l/m 14,5 km/h (3 Bft) W-SW 237 0 min 0,000 mm 0,0 UV-I 0 W/m 4,2 C -0,9 C 19,3 km/h (3 Bft) 100,00 %
09.04.2016 00:28 4,8 C 96 % 1008,7 hPa 0,0 l/m 7,4 km/h (2 Bft) W-SW 248 0 min 0,000 mm 0,0 UV-I 0 W/m 4,2 C 3,9 C 11,3 km/h (2 Bft) 100,00 %
09.04.2016 00:29 4,8 C 96 % 1008,7 hPa 0,0 l/m 5,6 km/h (1 Bft) W-SW 251 0 min 0,000 mm 0,0 UV-I 0 W/m 4,2 C 4,8 C 8,0 km/h (2 Bft) 96,15 %
09.04.2016 00:30 4,8 C 96 % 1008,7 hPa 0,0 l/m 7,2 km/h (2 Bft) SW 225 0 min 0,000 mm 0,0 UV-I 0 W/m 4,2 C 4,1 C 11,3 km/h (2 Bft) 100,00 %
09.04.2016 00:31 4,8 C 96 % 1008,7 hPa 0,0 l/m 12,1 km/h (2 Bft) S-SW 213 0 min 0,000 mm 0,0 UV-I 0 W/m 4,2 C 0,5 C 17,7 km/h (3 Bft) 96,15 %
09.04.2016 00:32 4,8 C 96 % 1008,7 hPa 0,0 l/m 7,6 km/h (2 Bft) SW 221 0 min 0,000 mm 0,0 UV-I 0 W/m 4,2 C 3,7 C 9,7 km/h (2 Bft) 100,00 %
09.04.2016 00:33 4,8 C 96 % 1008,7 hPa 0,0 l/m 7,2 km/h (2 Bft) SW 226 0 min 0,000 mm 0,0 UV-I 0 W/m 4,2 C 4,1 C 14,5 km/h (3 Bft) 100,00 %
09.04.2016 00:34 4,8 C 96 % 1008,7 hPa 0,0 l/m 11,4 km/h (2 Bft) S-SW 206 0 min 0,000 mm 0,0 UV-I 0 W/m 4,2 C 0,9 C 17,7 km/h (3 Bft) 100,00 %
09.04.2016 00:35 4,8 C 96 % 1008,7 hPa 0,0 l/m 7,3 km/h (2 Bft) W-SW 245 0 min 0,000 mm 0,0 UV-I 0 W/m 4,2 C 4,0 C 11,3 km/h (2 Bft) 100,00 %
09.04.2016 00:36 4,8 C 96 % 1008,7 hPa 0,0 l/m 5,6 km/h (1 Bft) SW 216 0 min 0,000 mm 0,0 UV-I 0 W/m 4,2 C 4,8 C 9,7 km/h (2 Bft) 96,30 %
09.04.2016 00:37 4,8 C 96 % 1008,7 hPa 0,0 l/m 9,9 km/h (2 Bft) S-SW 193 0 min 0,000 mm 0,0 UV-I 0 W/m 4,2 C 1,9 C 11,3 km/h (2 Bft) 100,00 %
09.04.2016 00:38 4,8 C 96 % 1008,6 hPa 0,0 l/m 7,6 km/h (2 Bft) SW 219 0 min 0,000 mm 0,0 UV-I 0 W/m 4,2 C 3,7 C 11,3 km/h (2 Bft) 96,30 %
09.04.2016 00:39 4,8 C 96 % 1008,6 hPa 0,0 l/m 6,6 km/h (2 Bft) SW 221 0 min 0,000 mm 0,0 UV-I 0 W/m 4,2 C 4,6 C 11,3 km/h (2 Bft) 95,65 %
09.04.2016 00:40 4,8 C 96 % 1008,6 hPa 0,0 l/m 6,7 km/h (2 Bft) SW 222 0 min 0,000 mm 0,0 UV-I 0 W/m 4,2 C 4,6 C 11,3 km/h (2 Bft) 100,00 %
09.04.2016 00:41 4,8 C 96 % 1008,6 hPa 0,0 l/m 8,9 km/h (2 Bft) SW 234 0 min 0,000 mm 0,0 UV-I 0 W/m 4,2 C 2,7 C 14,5 km/h (3 Bft) 100,00 %
09.04.2016 00:42 4,7 C 96 % 1008,6 hPa 0,0 l/m 8,2 km/h (2 Bft) SW 229 0 min 0,000 mm 0,0 UV-I 0 W/m 4,1 C 3,1 C 11,3 km/h (2 Bft) 100,00 %
09.04.2016 00:43 4,8 C 96 % 1008,6 hPa 0,0 l/m 7,2 km/h (2 Bft) S-SW 195 0 min 0,000 mm 0,0 UV-I 0 W/m 4,2 C 4,1 C 9,7 km/h (2 Bft) 100,00 %
09.04.2016 00:44 4,7 C 96 % 1008,6 hPa 0,0 l/m 6,9 km/h (2 Bft) S-SW 194 0 min 0,000 mm 0,0 UV-I 0 W/m 4,1 C 4,3 C 9,7 km/h (2 Bft) 100,00 %
09.04.2016 00:45 4,7 C 95 % 1008,6 hPa 0,0 l/m 7,6 km/h (2 Bft) SW 236 0 min 0,000 mm 0,0 UV-I 0 W/m 4,0 C 3,6 C 14,5 km/h (3 Bft) 100,00 %
09.04.2016 00:46 4,7 C 96 % 1008,6 hPa 0,0 l/m 7,6 km/h (2 Bft) W-SW 244 0 min 0,000 mm 0,0 UV-I 0 W/m 4,1 C 3,6 C 12,9 km/h (3 Bft) 95,83 %
09.04.2016 00:47 4,7 C 96 % 1008,6 hPa 0,0 l/m 6,0 km/h (2 Bft) W-SW 237 0 min 0,000 mm 0,0 UV-I 0 W/m 4,1 C 4,7 C 8,0 km/h (2 Bft) 100,00 %
09.04.2016 00:48 4,8 C 96 % 1008,6 hPa 0,0 l/m 4,0 km/h (1 Bft) S-SW 213 0 min 0,000 mm 0,0 UV-I 0 W/m 4,2 C 4,8 C 6,4 km/h (2 Bft) 96,30 %
09.04.2016 00:49 4,7 C 96 % 1008,6 hPa 0,0 l/m 6,8 km/h (2 Bft) S-SW 209 0 min 0,000 mm 0,0 UV-I 0 W/m 4,1 C 4,4 C 11,3 km/h (2 Bft) 97,86 %
09.04.2016 00:50 4,8 C 96 % 1008,6 hPa 0,0 l/m 5,4 km/h (1 Bft) S 191 0 min 0,000 mm 0,0 UV-I 0 W/m 4,2 C 4,8 C 11,3 km/h (2 Bft) 100,00 %
09.04.2016 00:51 4,8 C 96 % 1008,6 hPa 0,0 l/m 6,5 km/h (2 Bft) S 187 0 min 0,000 mm 0,0 UV-I 0 W/m 4,2 C 4,7 C 11,3 km/h (2 Bft) 100,00 %
09.04.2016 00:52 4,7 C 95 % 1008,6 hPa 0,0 l/m 6,0 km/h (2 Bft) W-SW 245 0 min 0,000 mm 0,0 UV-I 0 W/m 4,0 C 4,7 C 8,0 km/h (2 Bft) 100,00 %
09.04.2016 00:53 4,8 C 95 % 1008,6 hPa 0,0 l/m 5,6 km/h (1 Bft) W-SW 252 0 min 0,000 mm 0,0 UV-I 0 W/m 4,1 C 4,8 C 8,0 km/h (2 Bft) 100,00 %
09.04.2016 00:54 4,7 C 95 % 1008,6 hPa 0,0 l/m 5,3 km/h (1 Bft) SW 234 0 min 0,000 mm 0,0 UV-I 0 W/m 4,0 C 4,7 C 8,0 km/h (2 Bft) 100,00 %
09.04.2016 00:55 4,8 C 95 % 1008,6 hPa 0,0 l/m 6,1 km/h (2 Bft) SW 218 0 min 0,000 mm 0,0 UV-I 0 W/m 4,1 C 4,8 C 8,0 km/h (2 Bft) 100,00 %
09.04.2016 00:56 4,8 C 96 % 1008,6 hPa 0,0 l/m 5,4 km/h (1 Bft) SW 232 0 min 0,000 mm 0,0 UV-I 0 W/m 4,2 C 4,8 C 8,0 km/h (2 Bft) 100,00 %
09.04.2016 00:57 4,8 C 96 % 1008,6 hPa 0,0 l/m 5,7 km/h (1 Bft) W-SW 256 0 min 0,000 mm 0,0 UV-I 0 W/m 4,2 C 4,8 C 6,4 km/h (2 Bft) 100,00 %
09.04.2016 00:58 4,8 C 96 % 1008,5 hPa 0,0 l/m 9,7 km/h (2 Bft) SW 223 0 min 0,000 mm 0,0 UV-I 0 W/m 4,2 C 2,1 C 14,5 km/h (3 Bft) 100,00 %
09.04.2016 00:59 4,8 C 96 % 1008,5 hPa 0,0 l/m 8,1 km/h (2 Bft) SW 234 0 min 0,000 mm 0,0 UV-I 0 W/m 4,2 C 3,3 C 11,3 km/h (2 Bft) 100,00 %
09.04.2016 01:00 4,8 C 96 % 1008,5 hPa 0,0 l/m 8,3 km/h (2 Bft) S-SW 211 0 min 0,000 mm 0,0 UV-I 0 W/m 4,2 C 3,1 C 9,7 km/h (2 Bft) 100,00 %
09.04.2016 01:01 4,7 C 96 % 1008,6 hPa 0,0 l/m 8,1 km/h (2 Bft) SW 223 0 min 0,000 mm 0,0 UV-I 0 W/m 4,1 C 3,2 C 11,3 km/h (2 Bft) 96,30 %
09.04.2016 01:02 4,7 C 96 % 1008,5 hPa 0,0 l/m 8,0 km/h (2 Bft) SW 234 0 min 0,000 mm 0,0 UV-I 0 W/m 4,1 C 3,3 C 12,9 km/h (3 Bft) 95,65 %
09.04.2016 01:03 4,8 C 96 % 1008,5 hPa 0,0 l/m 7,4 km/h (2 Bft) W-SW 237 0 min 0,000 mm 0,0 UV-I 0 W/m 4,2 C 3,9 C 12,9 km/h (3 Bft) 95,83 %
09.04.2016 01:04 4,8 C 96 % 1008,5 hPa 0,0 l/m 8,9 km/h (2 Bft) W-SW 252 0 min 0,000 mm 0,0 UV-I 0 W/m 4,2 C 2,7 C 12,9 km/h (3 Bft) 98,16 %
09.04.2016 01:05 4,7 C 96 % 1008,5 hPa 0,0 l/m 9,3 km/h (2 Bft) W-SW 241 0 min 0,000 mm 0,0 UV-I 0 W/m 4,1 C 2,3 C 11,3 km/h (2 Bft) 97,56 %
09.04.2016 01:06 4,7 C 96 % 1008,5 hPa 0,0 l/m 6,1 km/h (2 Bft) W-SW 250 0 min 0,000 mm 0,0 UV-I 0 W/m 4,1 C 4,7 C 8,0 km/h (2 Bft) 100,00 %
09.04.2016 01:07 4,7 C 96 % 1008,5 hPa 0,0 l/m 7,6 km/h (2 Bft) SW 226 0 min 0,000 mm 0,0 UV-I 0 W/m 4,1 C 3,6 C 12,9 km/h (3 Bft) 97,56 %
09.04.2016 01:08 4,7 C 95 % 1008,5 hPa 0,0 l/m 7,1 km/h (2 Bft) W-SW 242 0 min 0,000 mm 0,0 UV-I 0 W/m 4,0 C 4,1 C 9,7 km/h (2 Bft) 95,65 %
09.04.2016 01:09 4,7 C 95 % 1008,5 hPa 0,0 l/m 6,3 km/h (2 Bft) SW 234 0 min 0,000 mm 0,0 UV-I 0 W/m 4,0 C 4,7 C 11,3 km/h (2 Bft) 100,00 %
09.04.2016 01:10 4,7 C 95 % 1008,5 hPa 0,0 l/m 8,7 km/h (2 Bft) SW 233 0 min 0,000 mm 0,0 UV-I 0 W/m 4,0 C 2,7 C 11,3 km/h (2 Bft) 97,06 %
09.04.2016 01:11 4,7 C 95 % 1008,5 hPa 0,0 l/m 9,0 km/h (2 Bft) SW 219 0 min 0,000 mm 0,0 UV-I 0 W/m 4,0 C 2,5 C 12,9 km/h (3 Bft) 100,00 %
09.04.2016 01:12 4,7 C 95 % 1008,4 hPa 0,0 l/m 7,6 km/h (2 Bft) SW 227 0 min 0,000 mm 0,0 UV-I 0 W/m 4,0 C 3,6 C 11,3 km/h (2 Bft) 100,00 %
09.04.2016 01:13 4,7 C 95 % 1008,4 hPa 0,0 l/m 3,8 km/h (1 Bft) SW 229 0 min 0,000 mm 0,0 UV-I 0 W/m 4,0 C 4,7 C 4,8 km/h (1 Bft) 95,65 %
09.04.2016 01:14 4,7 C 95 % 1008,5 hPa 0,0 l/m 5,3 km/h (1 Bft) S-SW 204 0 min 0,000 mm 0,0 UV-I 0 W/m 4,0 C 4,7 C 8,0 km/h (2 Bft) 100,00 %
09.04.2016 01:15 4,7 C 95 % 1008,4 hPa 0,0 l/m 8,4 km/h (2 Bft) W 267 0 min 0,000 mm 0,0 UV-I 0 W/m 4,0 C 3,0 C 12,9 km/h (3 Bft) 100,00 %
09.04.2016 01:16 4,7 C 95 % 1008,4 hPa 0,0 l/m 7,3 km/h (2 Bft) W-SW 242 0 min 0,000 mm 0,0 UV-I 0 W/m 4,0 C 3,9 C 12,9 km/h (3 Bft) 100,00 %
09.04.2016 01:17 4,7 C 95 % 1008,4 hPa 0,0 l/m 8,2 km/h (2 Bft) SW 217 0 min 0,000 mm 0,0 UV-I 0 W/m 4,0 C 3,1 C 14,5 km/h (3 Bft) 100,00 %
09.04.2016 01:18 4,7 C 95 % 1008,4 hPa 0,0 l/m 6,3 km/h (2 Bft) SW 220 0 min 0,000 mm 0,0 UV-I 0 W/m 4,0 C 4,7 C 11,3 km/h (2 Bft) 100,00 %
09.04.2016 01:19 4,7 C 95 % 1008,4 hPa 0,0 l/m 8,9 km/h (2 Bft) S-SW 195 0 min 0,000 mm 0,0 UV-I 0 W/m 4,0 C 2,6 C 14,5 km/h (3 Bft) 100,00 %
09.04.2016 01:20 4,7 C 95 % 1008,4 hPa 0,0 l/m 9,3 km/h (2 Bft) SW 229 0 min 0,000 mm 0,0 UV-I 0 W/m 4,0 C 2,3 C 12,9 km/h (3 Bft) 100,00 %
09.04.2016 01:21 4,7 C 95 % 1008,4 hPa 0,0 l/m 10,9 km/h (2 Bft) W-SW 239 0 min 0,000 mm 0,0 UV-I 0 W/m 4,0 C 1,1 C 14,5 km/h (3 Bft) 91,30 %
09.04.2016 01:22 4,7 C 95 % 1008,4 hPa 0,0 l/m 8,9 km/h (2 Bft) SW 218 0 min 0,000 mm 0,0 UV-I 0 W/m 4,0 C 2,6 C 11,3 km/h (2 Bft) 100,00 %
09.04.2016 01:23 4,7 C 95 % 1008,4 hPa 0,0 l/m 10,4 km/h (2 Bft) SW 232 0 min 0,000 mm 0,0 UV-I 0 W/m 4,0 C 1,5 C 14,5 km/h (3 Bft) 100,00 %
09.04.2016 01:24 4,7 C 95 % 1008,4 hPa 0,0 l/m 6,4 km/h (2 Bft) SW 229 0 min 0,000 mm 0,0 UV-I 0 W/m 4,0 C 4,7 C 8,0 km/h (2 Bft) 96,30 %
09.04.2016 01:25 4,7 C 95 % 1008,4 hPa 0,0 l/m 8,4 km/h (2 Bft) SW 228 0 min 0,000 mm 0,0 UV-I 0 W/m 4,0 C 3,0 C 12,9 km/h (3 Bft) 100,00 %
09.04.2016 01:26 4,7 C 95 % 1008,4 hPa 0,0 l/m 7,7 km/h (2 Bft) SW 232 0 min 0,000 mm 0,0 UV-I 0 W/m 4,0 C 3,5 C 11,3 km/h (2 Bft) 93,33 %
09.04.2016 01:27 4,7 C 95 % 1008,4 hPa 0,0 l/m 8,4 km/h (2 Bft) W 263 0 min 0,000 mm 0,0 UV-I 0 W/m 4,0 C 3,0 C 11,3 km/h (2 Bft) 96,15 %
09.04.2016 01:28 4,7 C 95 % 1008,4 hPa 0,0 l/m 8,3 km/h (2 Bft) S-SW 212 0 min 0,000 mm 0,0 UV-I 0 W/m 4,0 C 3,0 C 11,3 km/h (2 Bft) 100,00 %
09.04.2016 01:29 4,7 C 95 % 1008,4 hPa 0,0 l/m 7,5 km/h (2 Bft) W-SW 248 0 min 0,000 mm 0,0 UV-I 0 W/m 4,0 C 3,7 C 12,9 km/h (3 Bft) 100,00 %
09.04.2016 01:30 4,7 C 95 % 1008,4 hPa 0,0 l/m 10,6 km/h (2 Bft) W-SW 241 0 min 0,000 mm 0,0 UV-I 0 W/m 4,0 C 1,3 C 16,1 km/h (3 Bft) 100,00 %
09.04.2016 01:31 4,7 C 95 % 1008,4 hPa 0,0 l/m 9,3 km/h (2 Bft) SW 226 0 min 0,000 mm 0,0 UV-I 0 W/m 4,0 C 2,3 C 14,5 km/h (3 Bft) 100,00 %
09.04.2016 01:32 4,7 C 95 % 1008,3 hPa 0,0 l/m 11,9 km/h (2 Bft) W-SW 252 0 min 0,000 mm 0,0 UV-I 0 W/m 4,0 C 0,5 C 16,1 km/h (3 Bft) 100,00 %
09.04.2016 01:33 4,7 C 95 % 1008,3 hPa 0,0 l/m 7,6 km/h (2 Bft) S-SW 200 0 min 0,000 mm 0,0 UV-I 0 W/m 4,0 C 3,6 C 11,3 km/h (2 Bft) 100,00 %
09.04.2016 01:34 4,7 C 95 % 1008,3 hPa 0,0 l/m 10,1 km/h (2 Bft) S-SW 213 0 min 0,000 mm 0,0 UV-I 0 W/m 4,0 C 1,7 C 16,1 km/h (3 Bft) 100,00 %
09.04.2016 01:35 4,7 C 95 % 1008,3 hPa 0,0 l/m 8,8 km/h (2 Bft) S-SW 196 0 min 0,000 mm 0,0 UV-I 0 W/m 4,0 C 2,6 C 12,9 km/h (3 Bft) 100,00 %
09.04.2016 01:36 4,6 C 95 % 1008,3 hPa 0,0 l/m 9,8 km/h (2 Bft) SW 233 0 min 0,000 mm 0,0 UV-I 0 W/m 3,9 C 1,8 C 12,9 km/h (3 Bft) 100,00 %
09.04.2016 01:37 4,6 C 95 % 1008,3 hPa 0,0 l/m 9,9 km/h (2 Bft) SW 228 0 min 0,000 mm 0,0 UV-I 0 W/m 3,9 C 1,7 C 12,9 km/h (3 Bft) 100,00 %
09.04.2016 01:38 4,6 C 95 % 1008,3 hPa 0,0 l/m 6,6 km/h (2 Bft) S 181 0 min 0,000 mm 0,0 UV-I 0 W/m 3,9 C 4,4 C 11,3 km/h (2 Bft) 100,00 %
09.04.2016 01:39 4,6 C 95 % 1008,3 hPa 0,0 l/m 7,9 km/h (2 Bft) S 186 0 min 0,000 mm 0,0 UV-I 0 W/m 3,9 C 3,3 C 12,9 km/h (3 Bft) 100,00 %
09.04.2016 01:40 4,6 C 95 % 1008,3 hPa 0,0 l/m 5,7 km/h (1 Bft) W-SW 242 0 min 0,000 mm 0,0 UV-I 0 W/m 3,9 C 4,6 C 8,0 km/h (2 Bft) 100,00 %
09.04.2016 01:41 4,6 C 95 % 1008,3 hPa 0,0 l/m 8,9 km/h (2 Bft) SW 233 0 min 0,000 mm 0,0 UV-I 0 W/m 3,9 C 2,5 C 12,9 km/h (3 Bft) 100,00 %
09.04.2016 01:42 4,6 C 95 % 1008,3 hPa 0,0 l/m 7,5 km/h (2 Bft) SW 230 0 min 0,000 mm 0,0 UV-I 0 W/m 3,9 C 3,6 C 12,9 km/h (3 Bft) 98,43 %
09.04.2016 01:43 4,6 C 95 % 1008,3 hPa 0,0 l/m 7,8 km/h (2 Bft) W-SW 240 0 min 0,000 mm 0,0 UV-I 0 W/m 3,9 C 3,4 C 12,9 km/h (3 Bft) 100,00 %
09.04.2016 01:44 4,6 C 95 % 1008,3 hPa 0,0 l/m 7,1 km/h (2 Bft) SW 234 0 min 0,000 mm 0,0 UV-I 0 W/m 3,9 C 4,0 C 9,7 km/h (2 Bft) 100,00 %
09.04.2016 01:45 4,6 C 95 % 1008,3 hPa 0,0 l/m 8,1 km/h (2 Bft) SW 224 0 min 0,000 mm 0,0 UV-I 0 W/m 3,9 C 3,1 C 12,9 km/h (3 Bft) 100,00 %
09.04.2016 01:46 4,6 C 95 % 1008,2 hPa 0,0 l/m 8,9 km/h (2 Bft) SW 234 0 min 0,000 mm 0,0 UV-I 0 W/m 3,9 C 2,5 C 14,5 km/h (3 Bft) 100,00 %
09.04.2016 01:47 4,6 C 95 % 1008,2 hPa 0,0 l/m 7,6 km/h (2 Bft) S 183 0 min 0,000 mm 0,0 UV-I 0 W/m 3,9 C 3,5 C 9,7 km/h (2 Bft) 100,00 %
09.04.2016 01:48 4,6 C 95 % 1008,2 hPa 0,0 l/m 8,6 km/h (2 Bft) SW 227 0 min 0,000 mm 0,0 UV-I 0 W/m 3,9 C 2,7 C 14,5 km/h (3 Bft) 100,00 %
09.04.2016 01:49 4,6 C 95 % 1008,2 hPa 0,0 l/m 8,6 km/h (2 Bft) SW 216 0 min 0,000 mm 0,0 UV-I 0 W/m 3,9 C 2,7 C 14,5 km/h (3 Bft) 100,00 %
09.04.2016 01:50 4,6 C 95 % 1008,2 hPa 0,0 l/m 7,7 km/h (2 Bft) W-SW 253 0 min 0,000 mm 0,0 UV-I 0 W/m 3,9 C 3,4 C 11,3 km/h (2 Bft) 100,00 %
09.04.2016 01:51 4,6 C 95 % 1008,2 hPa 0,0 l/m 9,9 km/h (2 Bft) SW 232 0 min 0,000 mm 0,0 UV-I 0 W/m 3,9 C 1,7 C 16,1 km/h (3 Bft) 96,55 %
09.04.2016 01:52 4,6 C 95 % 1008,2 hPa 0,0 l/m 11,3 km/h (2 Bft) S-SW 200 0 min 0,000 mm 0,0 UV-I 0 W/m 3,9 C 0,7 C 16,1 km/h (3 Bft) 100,00 %
09.04.2016 01:53 4,6 C 95 % 1008,2 hPa 0,0 l/m 9,9 km/h (2 Bft) SW 227 0 min 0,000 mm 0,0 UV-I 0 W/m 3,9 C 1,7 C 16,1 km/h (3 Bft) 93,33 %
09.04.2016 01:54 4,6 C 95 % 1008,2 hPa 0,0 l/m 10,8 km/h (2 Bft) SW 218 0 min 0,000 mm 0,0 UV-I 0 W/m 3,9 C 1,1 C 16,1 km/h (3 Bft) 100,00 %
09.04.2016 01:55 4,6 C 95 % 1008,2 hPa 0,0 l/m 9,3 km/h (2 Bft) W-SW 250 0 min 0,000 mm 0,0 UV-I 0 W/m 3,9 C 2,1 C 12,9 km/h (3 Bft) 92,31 %
09.04.2016 01:56 4,6 C 95 % 1008,2 hPa 0,0 l/m 8,7 km/h (2 Bft) SW 230 0 min 0,000 mm 0,0 UV-I 0 W/m 3,9 C 2,6 C 12,9 km/h (3 Bft) 100,00 %
09.04.2016 01:57 4,6 C 95 % 1008,2 hPa 0,0 l/m 7,6 km/h (2 Bft) W-SW 239 0 min 0,000 mm 0,0 UV-I 0 W/m 3,9 C 3,5 C 11,3 km/h (2 Bft) 96,15 %
09.04.2016 01:58 4,6 C 95 % 1008,1 hPa 0,0 l/m 9,7 km/h (2 Bft) W-SW 242 0 min 0,000 mm 0,0 UV-I 0 W/m 3,9 C 1,8 C 14,5 km/h (3 Bft) 95,83 %
09.04.2016 01:59 4,6 C 95 % 1008,2 hPa 0,0 l/m 9,4 km/h (2 Bft) W-SW 250 0 min 0,000 mm 0,0 UV-I 0 W/m 3,9 C 2,1 C 16,1 km/h (3 Bft) 90,91 %
09.04.2016 02:00 4,6 C 96 % 1008,1 hPa 0,0 l/m 10,4 km/h (2 Bft) SW 225 0 min 0,000 mm 0,0 UV-I 0 W/m 4,0 C 1,3 C 14,5 km/h (3 Bft) 100,00 %
09.04.2016 02:01 4,6 C 95 % 1008,1 hPa 0,0 l/m 8,5 km/h (2 Bft) S-SW 208 0 min 0,000 mm 0,0 UV-I 0 W/m 3,9 C 2,8 C 12,9 km/h (3 Bft) 96,15 %
09.04.2016 02:02 4,6 C 96 % 1008,2 hPa 0,0 l/m 5,7 km/h (1 Bft) S-SW 195 0 min 0,000 mm 0,0 UV-I 0 W/m 4,0 C 4,6 C 8,0 km/h (2 Bft) 95,83 %
09.04.2016 02:03 4,6 C 96 % 1008,2 hPa 0,0 l/m 8,5 km/h (2 Bft) SW 219 0 min 0,000 mm 0,0 UV-I 0 W/m 4,0 C 2,8 C 12,9 km/h (3 Bft) 100,00 %
09.04.2016 02:04 4,6 C 96 % 1008,2 hPa 0,0 l/m 8,5 km/h (2 Bft) SW 220 0 min 0,000 mm 0,0 UV-I 0 W/m 4,0 C 2,8 C 11,3 km/h (2 Bft) 91,67 %
09.04.2016 02:05 4,6 C 96 % 1008,2 hPa 0,0 l/m 5,6 km/h (1 Bft) SW 230 0 min 0,000 mm 0,0 UV-I 0 W/m 4,0 C 4,6 C 8,0 km/h (2 Bft) 100,00 %
09.04.2016 02:06 4,6 C 96 % 1008,1 hPa 0,0 l/m 8,0 km/h (2 Bft) S 191 0 min 0,000 mm 0,0 UV-I 0 W/m 4,0 C 3,2 C 9,7 km/h (2 Bft) 96,67 %
09.04.2016 02:07 4,6 C 96 % 1008,1 hPa 0,0 l/m 6,8 km/h (2 Bft) S-SW 200 0 min 0,000 mm 0,0 UV-I 0 W/m 4,0 C 4,3 C 9,7 km/h (2 Bft) 91,67 %
09.04.2016 02:08 4,5 C 96 % 1008,2 hPa 0,0 l/m 7,0 km/h (2 Bft) S 181 0 min 0,000 mm 0,0 UV-I 0 W/m 3,9 C 4,0 C 12,9 km/h (3 Bft) 96,15 %
09.04.2016 02:09 4,6 C 96 % 1008,2 hPa 0,0 l/m 7,6 km/h (2 Bft) S-SW 209 0 min 0,000 mm 0,0 UV-I 0 W/m 4,0 C 3,5 C 11,3 km/h (2 Bft) 96,30 %
09.04.2016 02:10 4,5 C 96 % 1008,2 hPa 0,0 l/m 7,2 km/h (2 Bft) S-SW 204 0 min 0,000 mm 0,0 UV-I 0 W/m 3,9 C 3,8 C 9,7 km/h (2 Bft) 100,00 %
09.04.2016 02:11 4,5 C 96 % 1008,1 hPa 0,0 l/m 6,4 km/h (2 Bft) SW 223 0 min 0,000 mm 0,0 UV-I 0 W/m 3,9 C 4,5 C 9,7 km/h (2 Bft) 96,15 %
09.04.2016 02:12 4,5 C 96 % 1008,1 hPa 0,0 l/m 6,8 km/h (2 Bft) S-SW 194 0 min 0,000 mm 0,0 UV-I 0 W/m 3,9 C 4,2 C 9,7 km/h (2 Bft) 100,00 %
09.04.2016 02:13 4,5 C 96 % 1008,1 hPa 0,0 l/m 5,4 km/h (1 Bft) W-SW 241 0 min 0,000 mm 0,0 UV-I 0 W/m 3,9 C 4,5 C 12,9 km/h (3 Bft) 75,00 %
09.04.2016 02:14 4,5 C 96 % 1008,1 hPa 0,0 l/m 8,6 km/h (2 Bft) SW 223 0 min 0,000 mm 0,0 UV-I 0 W/m 3,9 C 2,6 C 12,9 km/h (3 Bft) 100,00 %
09.04.2016 02:15 4,5 C 96 % 1008,1 hPa 0,0 l/m 7,3 km/h (2 Bft) W-SW 243 0 min 0,000 mm 0,0 UV-I 0 W/m 3,9 C 3,7 C 9,7 km/h (2 Bft) 95,83 %
09.04.2016 02:16 4,5 C 96 % 1008,1 hPa 0,0 l/m 7,8 km/h (2 Bft) W-SW 246 0 min 0,000 mm 0,0 UV-I 0 W/m 3,9 C 3,2 C 9,7 km/h (2 Bft) 100,00 %
09.04.2016 02:17 4,5 C 96 % 1008,1 hPa 0,0 l/m 8,3 km/h (2 Bft) S-SW 213 0 min 0,000 mm 0,0 UV-I 0 W/m 3,9 C 2,8 C 12,9 km/h (3 Bft) 95,83 %
09.04.2016 02:18 4,5 C 96 % 1008,1 hPa 0,0 l/m 8,9 km/h (2 Bft) S 190 0 min 0,000 mm 0,0 UV-I 0 W/m 3,9 C 2,3 C 12,9 km/h (3 Bft) 95,65 %
09.04.2016 02:19 4,5 C 96 % 1008,1 hPa 0,0 l/m 6,7 km/h (2 Bft) W-SW 246 0 min 0,000 mm 0,0 UV-I 0 W/m 3,9 C 4,2 C 11,3 km/h (2 Bft) 96,30 %
09.04.2016 02:20 4,5 C 96 % 1008,1 hPa 0,0 l/m 8,2 km/h (2 Bft) W-SW 239 0 min 0,000 mm 0,0 UV-I 0 W/m 3,9 C 2,9 C 11,3 km/h (2 Bft) 91,30 %
09.04.2016 02:21 4,5 C 96 % 1008,1 hPa 0,0 l/m 7,1 km/h (2 Bft) SW 221 0 min 0,000 mm 0,0 UV-I 0 W/m 3,9 C 3,9 C 9,7 km/h (2 Bft) 100,00 %
09.04.2016 02:22 4,5 C 96 % 1008,1 hPa 0,0 l/m 8,4 km/h (2 Bft) W-SW 246 0 min 0,000 mm 0,0 UV-I 0 W/m 3,9 C 2,7 C 11,3 km/h (2 Bft) 96,15 %
09.04.2016 02:23 4,5 C 96 % 1008,1 hPa 0,0 l/m 9,2 km/h (2 Bft) S 180 0 min 0,000 mm 0,0 UV-I 0 W/m 3,9 C 2,1 C 14,5 km/h (3 Bft) 100,00 %
09.04.2016 02:24 4,4 C 96 % 1008,1 hPa 0,0 l/m 9,2 km/h (2 Bft) S 181 0 min 0,000 mm 0,0 UV-I 0 W/m 3,8 C 2,0 C 12,9 km/h (3 Bft) 96,15 %
09.04.2016 02:25 4,4 C 96 % 1008,1 hPa 0,0 l/m 7,8 km/h (2 Bft) SW 227 0 min 0,000 mm 0,0 UV-I 0 W/m 3,8 C 3,1 C 11,3 km/h (2 Bft) 92,59 %
09.04.2016 02:26 4,4 C 96 % 1008,0 hPa 0,0 l/m 8,2 km/h (2 Bft) W-SW 248 0 min 0,000 mm 0,0 UV-I 0 W/m 3,8 C 2,8 C 11,3 km/h (2 Bft) 100,00 %
09.04.2016 02:27 4,4 C 96 % 1008,0 hPa 0,0 l/m 6,0 km/h (2 Bft) SW 235 0 min 0,000 mm 0,0 UV-I 0 W/m 3,8 C 4,4 C 9,7 km/h (2 Bft) 100,00 %
09.04.2016 02:28 4,4 C 96 % 1008,0 hPa 0,0 l/m 7,0 km/h (2 Bft) S 191 0 min 0,000 mm 0,0 UV-I 0 W/m 3,8 C 3,9 C 9,7 km/h (2 Bft) 96,88 %
09.04.2016 02:29 4,4 C 96 % 1008,0 hPa 0,0 l/m 9,5 km/h (2 Bft) S-SW 211 0 min 0,000 mm 0,0 UV-I 0 W/m 3,8 C 1,8 C 14,5 km/h (3 Bft) 100,00 %
09.04.2016 02:30 4,4 C 96 % 1008,0 hPa 0,0 l/m 8,6 km/h (2 Bft) W-SW 242 0 min 0,000 mm 0,0 UV-I 0 W/m 3,8 C 2,5 C 11,3 km/h (2 Bft) 100,00 %
09.04.2016 02:31 4,4 C 96 % 1008,0 hPa 0,0 l/m 7,3 km/h (2 Bft) S-SW 200 0 min 0,000 mm 0,0 UV-I 0 W/m 3,8 C 3,6 C 11,3 km/h (2 Bft) 100,00 %
09.04.2016 02:32 4,4 C 96 % 1008,0 hPa 0,0 l/m 5,5 km/h (1 Bft) W-SW 239 0 min 0,000 mm 0,0 UV-I 0 W/m 3,8 C 4,4 C 8,0 km/h (2 Bft) 100,00 %
09.04.2016 02:33 4,4 C 96 % 1008,0 hPa 0,0 l/m 8,7 km/h (2 Bft) W-SW 247 0 min 0,000 mm 0,0 UV-I 0 W/m 3,8 C 2,4 C 12,9 km/h (3 Bft) 100,00 %
09.04.2016 02:34 4,4 C 96 % 1008,0 hPa 0,0 l/m 5,9 km/h (2 Bft) W-SW 238 0 min 0,000 mm 0,0 UV-I 0 W/m 3,8 C 4,4 C 8,0 km/h (2 Bft) 100,00 %
09.04.2016 02:35 4,4 C 96 % 1008,0 hPa 0,0 l/m 6,4 km/h (2 Bft) S-SW 193 0 min 0,000 mm 0,0 UV-I 0 W/m 3,8 C 4,4 C 8,0 km/h (2 Bft) 100,00 %
09.04.2016 02:36 4,4 C 96 % 1008,0 hPa 0,0 l/m 9,8 km/h (2 Bft) SW 225 0 min 0,000 mm 0,0 UV-I 0 W/m 3,8 C 1,6 C 16,1 km/h (3 Bft) 93,33 %
09.04.2016 02:37 4,4 C 96 % 1007,9 hPa 0,0 l/m 8,0 km/h (2 Bft) S 190 0 min 0,000 mm 0,0 UV-I 0 W/m 3,8 C 3,0 C 11,3 km/h (2 Bft) 100,00 %
09.04.2016 02:38 4,4 C 96 % 1008,0 hPa 0,0 l/m 10,9 km/h (2 Bft) SW 229 0 min 0,000 mm 0,0 UV-I 0 W/m 3,8 C 0,8 C 16,1 km/h (3 Bft) 100,00 %
09.04.2016 02:39 4,4 C 96 % 1008,0 hPa 0,0 l/m 12,9 km/h (3 Bft) SW 225 0 min 0,000 mm 0,0 UV-I 0 W/m 3,8 C -0,5 C 19,3 km/h (3 Bft) 100,00 %
09.04.2016 02:40 4,4 C 96 % 1007,9 hPa 0,0 l/m 8,8 km/h (2 Bft) SW 221 0 min 0,000 mm 0,0 UV-I 0 W/m 3,8 C 2,3 C 17,7 km/h (3 Bft) 100,00 %
09.04.2016 02:41 4,4 C 96 % 1007,9 hPa 0,0 l/m 12,8 km/h (3 Bft) S 187 0 min 0,000 mm 0,0 UV-I 0 W/m 3,8 C -0,4 C 20,9 km/h (4 Bft) 100,00 %
09.04.2016 02:42 4,4 C 96 % 1007,9 hPa 0,0 l/m 9,5 km/h (2 Bft) W-SW 240 0 min 0,000 mm 0,0 UV-I 0 W/m 3,8 C 1,8 C 14,5 km/h (3 Bft) 100,00 %
09.04.2016 02:43 4,4 C 96 % 1007,9 hPa 0,0 l/m 9,7 km/h (2 Bft) W-SW 237 0 min 0,000 mm 0,0 UV-I 0 W/m 3,8 C 1,6 C 14,5 km/h (3 Bft) 100,00 %
09.04.2016 02:44 4,4 C 96 % 1008,0 hPa 0,0 l/m 7,1 km/h (2 Bft) SW 215 0 min 0,000 mm 0,0 UV-I 0 W/m 3,8 C 3,8 C 11,3 km/h (2 Bft) 100,00 %
09.04.2016 02:45 4,4 C 96 % 1008,0 hPa 0,0 l/m 5,5 km/h (1 Bft) S-SW 203 0 min 0,000 mm 0,0 UV-I 0 W/m 3,8 C 4,4 C 9,7 km/h (2 Bft) 100,00 %
09.04.2016 02:46 4,4 C 96 % 1008,0 hPa 0,0 l/m 9,9 km/h (2 Bft) S-SW 205 0 min 0,000 mm 0,0 UV-I 0 W/m 3,8 C 1,5 C 14,5 km/h (3 Bft) 100,00 %
09.04.2016 02:47 4,4 C 96 % 1007,9 hPa 0,0 l/m 8,1 km/h (2 Bft) SW 234 0 min 0,000 mm 0,0 UV-I 0 W/m 3,8 C 2,9 C 11,3 km/h (2 Bft) 92,31 %
09.04.2016 02:48 4,4 C 96 % 1007,9 hPa 0,0 l/m 10,7 km/h (2 Bft) SW 223 0 min 0,000 mm 0,0 UV-I 0 W/m 3,8 C 0,9 C 16,1 km/h (3 Bft) 96,30 %
09.04.2016 02:49 4,4 C 96 % 1008,0 hPa 0,0 l/m 11,1 km/h (2 Bft) W-SW 247 0 min 0,000 mm 0,0 UV-I 0 W/m 3,8 C 0,6 C 14,5 km/h (3 Bft) 100,00 %
09.04.2016 02:50 4,4 C 96 % 1007,9 hPa 0,0 l/m 7,7 km/h (2 Bft) W 259 0 min 0,000 mm 0,0 UV-I 0 W/m 3,8 C 3,2 C 9,7 km/h (2 Bft) 100,00 %
09.04.2016 02:51 4,4 C 96 % 1007,9 hPa 0,0 l/m 9,3 km/h (2 Bft) S-SO 168 0 min 0,000 mm 0,0 UV-I 0 W/m 3,8 C 1,9 C 12,9 km/h (3 Bft) 100,00 %
09.04.2016 02:52 4,4 C 96 % 1007,9 hPa 0,0 l/m 6,7 km/h (2 Bft) SW 228 0 min 0,000 mm 0,0 UV-I 0 W/m 3,8 C 4,1 C 9,7 km/h (2 Bft) 100,00 %
09.04.2016 02:53 4,4 C 96 % 1007,9 hPa 0,0 l/m 9,7 km/h (2 Bft) SW 222 0 min 0,000 mm 0,0 UV-I 0 W/m 3,8 C 1,6 C 12,9 km/h (3 Bft) 100,00 %
09.04.2016 02:54 4,4 C 96 % 1007,9 hPa 0,0 l/m 9,5 km/h (2 Bft) SW 225 0 min 0,000 mm 0,0 UV-I 0 W/m 3,8 C 1,8 C 12,9 km/h (3 Bft) 100,00 %
09.04.2016 02:55 4,4 C 96 % 1007,9 hPa 0,0 l/m 8,3 km/h (2 Bft) SW 221 0 min 0,000 mm 0,0 UV-I 0 W/m 3,8 C 2,7 C 12,9 km/h (3 Bft) 100,00 %
09.04.2016 02:56 4,4 C 96 % 1007,8 hPa 0,0 l/m 8,4 km/h (2 Bft) S-SO 159 0 min 0,000 mm 0,0 UV-I 0 W/m 3,8 C 2,6 C 12,9 km/h (3 Bft) 100,00 %
09.04.2016 02:57 4,4 C 96 % 1007,8 hPa 0,0 l/m 8,6 km/h (2 Bft) SW 228 0 min 0,000 mm 0,0 UV-I 0 W/m 3,8 C 2,5 C 14,5 km/h (3 Bft) 100,00 %
09.04.2016 02:58 4,4 C 96 % 1007,8 hPa 0,0 l/m 8,8 km/h (2 Bft) W-SW 242 0 min 0,000 mm 0,0 UV-I 0 W/m 3,8 C 2,3 C 14,5 km/h (3 Bft) 100,00 %
09.04.2016 02:59 4,4 C 96 % 1007,8 hPa 0,0 l/m 7,8 km/h (2 Bft) SW 223 0 min 0,000 mm 0,0 UV-I 0 W/m 3,8 C 3,1 C 14,5 km/h (3 Bft) 100,00 %
09.04.2016 03:00 4,4 C 96 % 1007,8 hPa 0,0 l/m 8,9 km/h (2 Bft) SW 232 0 min 0,000 mm 0,0 UV-I 0 W/m 3,8 C 2,2 C 12,9 km/h (3 Bft) 96,55 %
09.04.2016 03:01 4,4 C 96 % 1007,8 hPa 0,0 l/m 7,7 km/h (2 Bft) W-SW 254 0 min 0,000 mm 0,0 UV-I 0 W/m 3,8 C 3,2 C 11,3 km/h (2 Bft) 100,00 %
09.04.2016 03:02 4,4 C 96 % 1007,8 hPa 0,0 l/m 11,6 km/h (2 Bft) W-SW 242 0 min 0,000 mm 0,0 UV-I 0 W/m 3,8 C 0,3 C 16,1 km/h (3 Bft) 100,00 %
09.04.2016 03:03 4,4 C 96 % 1007,7 hPa 0,0 l/m 5,4 km/h (1 Bft) SW 234 0 min 0,000 mm 0,0 UV-I 0 W/m 3,8 C 4,4 C 8,0 km/h (2 Bft) 100,00 %
09.04.2016 03:04 4,4 C 96 % 1007,7 hPa 0,0 l/m 4,7 km/h (1 Bft) S-SW 206 0 min 0,000 mm 0,0 UV-I 0 W/m 3,8 C 4,4 C 6,4 km/h (2 Bft) 100,00 %
09.04.2016 03:05 4,4 C 96 % 1007,7 hPa 0,0 l/m 8,0 km/h (2 Bft) S-SW 209 0 min 0,000 mm 0,0 UV-I 0 W/m 3,8 C 3,0 C 11,3 km/h (2 Bft) 100,00 %
09.04.2016 03:06 4,4 C 96 % 1007,7 hPa 0,0 l/m 10,3 km/h (2 Bft) SW 224 0 min 0,000 mm 0,0 UV-I 0 W/m 3,8 C 1,2 C 14,5 km/h (3 Bft) 100,00 %
09.04.2016 03:07 4,4 C 96 % 1007,7 hPa 0,0 l/m 6,9 km/h (2 Bft) W-SW 242 0 min 0,000 mm 0,0 UV-I 0 W/m 3,8 C 4,0 C 11,3 km/h (2 Bft) 96,15 %
09.04.2016 03:08 4,4 C 96 % 1007,7 hPa 0,0 l/m 11,4 km/h (2 Bft) S 180 0 min 0,000 mm 0,0 UV-I 0 W/m 3,8 C 0,4 C 16,1 km/h (3 Bft) 100,00 %
09.04.2016 03:09 4,4 C 96 % 1007,7 hPa 0,0 l/m 7,6 km/h (2 Bft) SW 216 0 min 0,000 mm 0,0 UV-I 0 W/m 3,8 C 3,3 C 11,3 km/h (2 Bft) 100,00 %
09.04.2016 03:10 4,4 C 96 % 1007,7 hPa 0,0 l/m 9,8 km/h (2 Bft) W-SW 244 0 min 0,000 mm 0,0 UV-I 0 W/m 3,8 C 1,6 C 14,5 km/h (3 Bft) 100,00 %
09.04.2016 03:11 4,4 C 96 % 1007,8 hPa 0,0 l/m 7,8 km/h (2 Bft) S-SW 202 0 min 0,000 mm 0,0 UV-I 0 W/m 3,8 C 3,1 C 9,7 km/h (2 Bft) 100,00 %
09.04.2016 03:12 4,4 C 96 % 1007,7 hPa 0,0 l/m 6,4 km/h (2 Bft) SW 236 0 min 0,000 mm 0,0 UV-I 0 W/m 3,8 C 4,4 C 9,7 km/h (2 Bft) 95,83 %
09.04.2016 03:13 4,4 C 96 % 1007,7 hPa 0,0 l/m 7,8 km/h (2 Bft) SW 229 0 min 0,000 mm 0,0 UV-I 0 W/m 3,8 C 3,1 C 11,3 km/h (2 Bft) 95,65 %
09.04.2016 03:14 4,4 C 96 % 1007,7 hPa 0,0 l/m 6,2 km/h (2 Bft) SW 226 0 min 0,000 mm 0,0 UV-I 0 W/m 3,8 C 4,4 C 8,0 km/h (2 Bft) 100,00 %
09.04.2016 03:15 4,4 C 96 % 1007,7 hPa 0,0 l/m 6,9 km/h (2 Bft) SW 231 0 min 0,000 mm 0,0 UV-I 0 W/m 3,8 C 4,0 C 9,7 km/h (2 Bft) 93,10 %
09.04.2016 03:16 4,4 C 96 % 1007,7 hPa 0,0 l/m 6,5 km/h (2 Bft) W-SW 244 0 min 0,000 mm 0,0 UV-I 0 W/m 3,8 C 4,3 C 14,5 km/h (3 Bft) 98,31 %
09.04.2016 03:17 4,4 C 96 % 1007,7 hPa 0,0 l/m 5,7 km/h (1 Bft) SW 220 0 min 0,000 mm 0,0 UV-I 0 W/m 3,8 C 4,4 C 8,0 km/h (2 Bft) 100,00 %
09.04.2016 03:18 4,4 C 96 % 1007,7 hPa 0,0 l/m 11,2 km/h (2 Bft) SW 231 0 min 0,000 mm 0,0 UV-I 0 W/m 3,8 C 0,6 C 16,1 km/h (3 Bft) 100,00 %
09.04.2016 03:19 4,4 C 96 % 1007,7 hPa 0,0 l/m 7,2 km/h (2 Bft) SW 226 0 min 0,000 mm 0,0 UV-I 0 W/m 3,8 C 3,7 C 11,3 km/h (2 Bft) 100,00 %
09.04.2016 03:20 4,4 C 96 % 1007,6 hPa 0,0 l/m 8,6 km/h (2 Bft) SW 215 0 min 0,000 mm 0,0 UV-I 0 W/m 3,8 C 2,5 C 14,5 km/h (3 Bft) 100,00 %
09.04.2016 03:21 4,4 C 96 % 1007,6 hPa 0,0 l/m 9,0 km/h (2 Bft) W-SW 248 0 min 0,000 mm 0,0 UV-I 0 W/m 3,8 C 2,2 C 12,9 km/h (3 Bft) 95,65 %
09.04.2016 03:22 4,4 C 96 % 1007,6 hPa 0,0 l/m 10,5 km/h (2 Bft) W-SW 244 0 min 0,000 mm 0,0 UV-I 0 W/m 3,8 C 1,1 C 14,5 km/h (3 Bft) 100,00 %
09.04.2016 03:23 4,4 C 96 % 1007,6 hPa 0,0 l/m 11,3 km/h (2 Bft) W-SW 243 0 min 0,000 mm 0,0 UV-I 0 W/m 3,8 C 0,5 C 16,1 km/h (3 Bft) 100,00 %
09.04.2016 03:24 4,4 C 96 % 1007,6 hPa 0,0 l/m 9,1 km/h (2 Bft) S-SW 198 0 min 0,000 mm 0,0 UV-I 0 W/m 3,8 C 2,1 C 14,5 km/h (3 Bft) 100,00 %
09.04.2016 03:25 4,4 C 96 % 1007,6 hPa 0,0 l/m 6,8 km/h (2 Bft) SW 233 0 min 0,000 mm 0,0 UV-I 0 W/m 3,8 C 4,1 C 11,3 km/h (2 Bft) 100,00 %
09.04.2016 03:26 4,4 C 96 % 1007,6 hPa 0,0 l/m 8,6 km/h (2 Bft) SW 218 0 min 0,000 mm 0,0 UV-I 0 W/m 3,8 C 2,5 C 12,9 km/h (3 Bft) 100,00 %
09.04.2016 03:27 4,4 C 96 % 1007,6 hPa 0,0 l/m 7,3 km/h (2 Bft) W-SW 238 0 min 0,000 mm 0,0 UV-I 0 W/m 3,8 C 3,6 C 12,9 km/h (3 Bft) 100,00 %
09.04.2016 03:28 4,4 C 96 % 1007,6 hPa 0,0 l/m 7,1 km/h (2 Bft) S-SW 198 0 min 0,000 mm 0,0 UV-I 0 W/m 3,8 C 3,8 C 11,3 km/h (2 Bft) 100,00 %
09.04.2016 03:29 4,4 C 96 % 1007,6 hPa 0,0 l/m 6,5 km/h (2 Bft) SW 232 0 min 0,000 mm 0,0 UV-I 0 W/m 3,8 C 4,3 C 9,7 km/h (2 Bft) 100,00 %
09.04.2016 03:30 4,4 C 96 % 1007,6 hPa 0,0 l/m 8,3 km/h (2 Bft) W-SW 238 0 min 0,000 mm 0,0 UV-I 0 W/m 3,8 C 2,7 C 12,9 km/h (3 Bft) 100,00 %
09.04.2016 03:31 4,4 C 96 % 1007,6 hPa 0,0 l/m 8,0 km/h (2 Bft) SW 221 0 min 0,000 mm 0,0 UV-I 0 W/m 3,8 C 3,0 C 11,3 km/h (2 Bft) 95,65 %
09.04.2016 03:32 4,4 C 96 % 1007,6 hPa 0,0 l/m 9,0 km/h (2 Bft) SW 219 0 min 0,000 mm 0,0 UV-I 0 W/m 3,8 C 2,2 C 11,3 km/h (2 Bft) 100,00 %
09.04.2016 03:33 4,4 C 96 % 1007,6 hPa 0,0 l/m 7,9 km/h (2 Bft) W-SW 240 0 min 0,000 mm 0,0 UV-I 0 W/m 3,8 C 3,1 C 12,9 km/h (3 Bft) 100,00 %
09.04.2016 03:34 4,4 C 96 % 1007,6 hPa 0,0 l/m 6,8 km/h (2 Bft) W-SW 244 0 min 0,000 mm 0,0 UV-I 0 W/m 3,8 C 4,1 C 11,3 km/h (2 Bft) 100,00 %
09.04.2016 03:35 4,4 C 96 % 1007,5 hPa 0,0 l/m 9,3 km/h (2 Bft) SW 236 0 min 0,000 mm 0,0 UV-I 0 W/m 3,8 C 1,9 C 12,9 km/h (3 Bft) 100,00 %
09.04.2016 03:36 4,4 C 96 % 1007,5 hPa 0,0 l/m 12,1 km/h (2 Bft) W-SW 238 0 min 0,000 mm 0,0 UV-I 0 W/m 3,8 C 0,0 C 16,1 km/h (3 Bft) 100,00 %
09.04.2016 03:37 4,4 C 96 % 1007,5 hPa 0,0 l/m 8,6 km/h (2 Bft) W-SW 247 0 min 0,000 mm 0,0 UV-I 0 W/m 3,8 C 2,5 C 11,3 km/h (2 Bft) 100,00 %
09.04.2016 03:38 4,4 C 96 % 1007,5 hPa 0,0 l/m 7,4 km/h (2 Bft) S-SW 213 0 min 0,000 mm 0,0 UV-I 0 W/m 3,8 C 3,5 C 11,3 km/h (2 Bft) 96,55 %
09.04.2016 03:39 4,4 C 96 % 1007,5 hPa 0,0 l/m 5,6 km/h (1 Bft) SW 227 0 min 0,000 mm 0,0 UV-I 0 W/m 3,8 C 4,4 C 8,0 km/h (2 Bft) 100,00 %
09.04.2016 03:40 4,4 C 96 % 1007,5 hPa 0,0 l/m 7,3 km/h (2 Bft) W-SW 245 0 min 0,000 mm 0,0 UV-I 0 W/m 3,8 C 3,6 C 12,9 km/h (3 Bft) 96,15 %
09.04.2016 03:41 4,4 C 96 % 1007,5 hPa 0,0 l/m 8,7 km/h (2 Bft) W-SW 254 0 min 0,000 mm 0,0 UV-I 0 W/m 3,8 C 2,4 C 11,3 km/h (2 Bft) 100,00 %
09.04.2016 03:42 4,4 C 96 % 1007,5 hPa 0,0 l/m 8,0 km/h (2 Bft) SW 236 0 min 0,000 mm 0,0 UV-I 0 W/m 3,8 C 3,0 C 11,3 km/h (2 Bft) 100,00 %
09.04.2016 03:43 4,4 C 96 % 1007,4 hPa 0,0 l/m 10,1 km/h (2 Bft) W 269 0 min 0,000 mm 0,0 UV-I 0 W/m 3,8 C 1,3 C 14,5 km/h (3 Bft) 100,00 %
09.04.2016 03:44 4,4 C 96 % 1007,5 hPa 0,0 l/m 8,6 km/h (2 Bft) W-SW 255 0 min 0,000 mm 0,0 UV-I 0 W/m 3,8 C 2,5 C 14,5 km/h (3 Bft) 100,00 %
09.04.2016 03:45 4,4 C 96 % 1007,5 hPa 0,0 l/m 6,5 km/h (2 Bft) SW 225 0 min 0,000 mm 0,0 UV-I 0 W/m 3,8 C 4,3 C 12,9 km/h (3 Bft) 100,00 %
09.04.2016 03:46 4,4 C 96 % 1007,5 hPa 0,0 l/m 7,9 km/h (2 Bft) W-SW 249 0 min 0,000 mm 0,0 UV-I 0 W/m 3,8 C 3,1 C 12,9 km/h (3 Bft) 100,00 %
09.04.2016 03:47 4,4 C 96 % 1007,5 hPa 0,0 l/m 5,6 km/h (1 Bft) SW 222 0 min 0,000 mm 0,0 UV-I 0 W/m 3,8 C 4,4 C 8,0 km/h (2 Bft) 96,30 %
09.04.2016 03:48 4,4 C 96 % 1007,4 hPa 0,0 l/m 7,9 km/h (2 Bft) S-SW 205 0 min 0,000 mm 0,0 UV-I 0 W/m 3,8 C 3,1 C 12,9 km/h (3 Bft) 100,00 %
09.04.2016 03:49 4,4 C 96 % 1007,5 hPa 0,0 l/m 7,6 km/h (2 Bft) W-SW 238 0 min 0,000 mm 0,0 UV-I 0 W/m 3,8 C 3,3 C 11,3 km/h (2 Bft) 100,00 %
09.04.2016 03:50 4,3 C 96 % 1007,4 hPa 0,0 l/m 7,3 km/h (2 Bft) SW 225 0 min 0,000 mm 0,0 UV-I 0 W/m 3,7 C 3,5 C 11,3 km/h (2 Bft) 100,00 %
09.04.2016 03:51 4,4 C 96 % 1007,5 hPa 0,0 l/m 7,6 km/h (2 Bft) SW 223 0 min 0,000 mm 0,0 UV-I 0 W/m 3,8 C 3,3 C 11,3 km/h (2 Bft) 100,00 %
09.04.2016 03:52 4,3 C 96 % 1007,5 hPa 0,0 l/m 9,3 km/h (2 Bft) SW 218 0 min 0,000 mm 0,0 UV-I 0 W/m 3,7 C 1,8 C 11,3 km/h (2 Bft) 100,00 %
09.04.2016 03:53 4,4 C 96 % 1007,5 hPa 0,0 l/m 5,6 km/h (1 Bft) SW 224 0 min 0,000 mm 0,0 UV-I 0 W/m 3,8 C 4,4 C 8,0 km/h (2 Bft) 96,15 %
09.04.2016 03:54 4,3 C 96 % 1007,5 hPa 0,0 l/m 6,3 km/h (2 Bft) W-SW 251 0 min 0,000 mm 0,0 UV-I 0 W/m 3,7 C 4,3 C 9,7 km/h (2 Bft) 100,00 %
09.04.2016 03:55 4,3 C 96 % 1007,5 hPa 0,0 l/m 8,5 km/h (2 Bft) SW 227 0 min 0,000 mm 0,0 UV-I 0 W/m 3,7 C 2,5 C 11,3 km/h (2 Bft) 96,55 %
09.04.2016 03:56 4,3 C 96 % 1007,5 hPa 0,0 l/m 7,2 km/h (2 Bft) W-SW 242 0 min 0,000 mm 0,0 UV-I 0 W/m 3,7 C 3,6 C 11,3 km/h (2 Bft) 100,00 %
09.04.2016 03:57 4,3 C 96 % 1007,5 hPa 0,0 l/m 8,0 km/h (2 Bft) W-SW 238 0 min 0,000 mm 0,0 UV-I 0 W/m 3,7 C 2,9 C 11,3 km/h (2 Bft) 95,65 %
09.04.2016 03:58 4,3 C 96 % 1007,5 hPa 0,0 l/m 7,2 km/h (2 Bft) W-SW 246 0 min 0,000 mm 0,0 UV-I 0 W/m 3,7 C 3,6 C 11,3 km/h (2 Bft) 100,00 %
09.04.2016 03:59 4,3 C 96 % 1007,5 hPa 0,0 l/m 7,7 km/h (2 Bft) W 259 0 min 0,000 mm 0,0 UV-I 0 W/m 3,7 C 3,1 C 12,9 km/h (3 Bft) 96,15 %
09.04.2016 04:00 4,3 C 96 % 1007,5 hPa 0,0 l/m 7,7 km/h (2 Bft) W-SW 244 0 min 0,000 mm 0,0 UV-I 0 W/m 3,7 C 3,1 C 12,9 km/h (3 Bft) 93,33 %
09.04.2016 04:01 4,3 C 96 % 1007,5 hPa 0,0 l/m 10,1 km/h (2 Bft) W 271 0 min 0,000 mm 0,0 UV-I 0 W/m 3,7 C 1,2 C 14,5 km/h (3 Bft) 100,00 %
09.04.2016 04:02 4,3 C 96 % 1007,5 hPa 0,0 l/m 7,3 km/h (2 Bft) W-SW 239 0 min 0,000 mm 0,0 UV-I 0 W/m 3,7 C 3,5 C 12,9 km/h (3 Bft) 95,83 %
09.04.2016 04:03 4,3 C 96 % 1007,4 hPa 0,0 l/m 9,7 km/h (2 Bft) W-SW 246 0 min 0,000 mm 0,0 UV-I 0 W/m 3,7 C 1,5 C 14,5 km/h (3 Bft) 100,00 %
09.04.2016 04:04 4,3 C 96 % 1007,5 hPa 0,0 l/m 5,7 km/h (1 Bft) W-SW 249 0 min 0,000 mm 0,0 UV-I 0 W/m 3,7 C 4,3 C 8,0 km/h (2 Bft) 96,55 %
09.04.2016 04:05 4,3 C 96 % 1007,4 hPa 0,0 l/m 7,9 km/h (2 Bft) SW 227 0 min 0,000 mm 0,0 UV-I 0 W/m 3,7 C 3,0 C 11,3 km/h (2 Bft) 100,00 %
09.04.2016 04:06 4,4 C 96 % 1007,5 hPa 0,0 l/m 6,8 km/h (2 Bft) W-SW 237 0 min 0,000 mm 0,0 UV-I 0 W/m 3,8 C 4,1 C 8,0 km/h (2 Bft) 96,55 %
09.04.2016 04:07 4,4 C 96 % 1007,4 hPa 0,0 l/m 7,5 km/h (2 Bft) W-SW 243 0 min 0,000 mm 0,0 UV-I 0 W/m 3,8 C 3,4 C 11,3 km/h (2 Bft) 100,00 %
09.04.2016 04:08 4,3 C 96 % 1007,4 hPa 0,0 l/m 7,0 km/h (2 Bft) W-SW 243 0 min 0,000 mm 0,0 UV-I 0 W/m 3,7 C 3,8 C 9,7 km/h (2 Bft) 93,10 %
09.04.2016 04:09 4,3 C 96 % 1007,4 hPa 0,0 l/m 8,6 km/h (2 Bft) W-SW 241 0 min 0,000 mm 0,0 UV-I 0 W/m 3,7 C 2,4 C 11,3 km/h (2 Bft) 100,00 %
09.04.2016 04:10 4,3 C 96 % 1007,4 hPa 0,0 l/m 8,2 km/h (2 Bft) SW 228 0 min 0,000 mm 0,0 UV-I 0 W/m 3,7 C 2,7 C 11,3 km/h (2 Bft) 96,55 %
09.04.2016 04:11 4,3 C 96 % 1007,4 hPa 0,0 l/m 10,1 km/h (2 Bft) SW 221 0 min 0,000 mm 0,0 UV-I 0 W/m 3,7 C 1,2 C 12,9 km/h (3 Bft) 100,00 %
09.04.2016 04:12 4,3 C 96 % 1007,4 hPa 0,0 l/m 7,6 km/h (2 Bft) SW 218 0 min 0,000 mm 0,0 UV-I 0 W/m 3,7 C 3,2 C 12,9 km/h (3 Bft) 92,31 %
09.04.2016 04:13 4,3 C 96 % 1007,4 hPa 0,0 l/m 7,5 km/h (2 Bft) SW 228 0 min 0,000 mm 0,0 UV-I 0 W/m 3,7 C 3,3 C 12,9 km/h (3 Bft) 95,83 %
09.04.2016 04:14 4,3 C 96 % 1007,4 hPa 0,0 l/m 5,3 km/h (1 Bft) W 263 0 min 0,000 mm 0,0 UV-I 0 W/m 3,7 C 4,3 C 8,0 km/h (2 Bft) 100,00 %
09.04.2016 04:15 4,3 C 96 % 1007,3 hPa 0,0 l/m 5,4 km/h (1 Bft) W-SW 258 0 min 0,000 mm 0,0 UV-I 0 W/m 3,7 C 4,3 C 11,3 km/h (2 Bft) 95,83 %
09.04.2016 04:16 4,3 C 96 % 1007,3 hPa 0,0 l/m 9,3 km/h (2 Bft) SW 227 0 min 0,000 mm 0,0 UV-I 0 W/m 3,7 C 1,8 C 12,9 km/h (3 Bft) 100,00 %
09.04.2016 04:17 4,3 C 96 % 1007,4 hPa 0,0 l/m 7,3 km/h (2 Bft) SW 219 0 min 0,000 mm 0,0 UV-I 0 W/m 3,7 C 3,5 C 9,7 km/h (2 Bft) 96,67 %
09.04.2016 04:18 4,3 C 96 % 1007,4 hPa 0,0 l/m 7,3 km/h (2 Bft) SW 224 0 min 0,000 mm 0,0 UV-I 0 W/m 3,7 C 3,5 C 11,3 km/h (2 Bft) 96,15 %
09.04.2016 04:19 4,3 C 96 % 1007,4 hPa 0,0 l/m 8,1 km/h (2 Bft) SW 223 0 min 0,000 mm 0,0 UV-I 0 W/m 3,7 C 2,8 C 11,3 km/h (2 Bft) 100,00 %
09.04.2016 04:20 4,3 C 96 % 1007,4 hPa 0,0 l/m 10,4 km/h (2 Bft) SW 229 0 min 0,000 mm 0,0 UV-I 0 W/m 3,7 C 1,0 C 12,9 km/h (3 Bft) 92,86 %
09.04.2016 04:21 4,3 C 96 % 1007,3 hPa 0,0 l/m 7,4 km/h (2 Bft) W-SW 241 0 min 0,000 mm 0,0 UV-I 0 W/m 3,7 C 3,4 C 11,3 km/h (2 Bft) 100,00 %
09.04.2016 04:22 4,3 C 96 % 1007,4 hPa 0,0 l/m 5,6 km/h (1 Bft) W-SW 240 0 min 0,000 mm 0,0 UV-I 0 W/m 3,7 C 4,3 C 8,0 km/h (2 Bft) 95,65 %
09.04.2016 04:23 4,3 C 96 % 1007,4 hPa 0,0 l/m 6,5 km/h (2 Bft) S-SW 197 0 min 0,000 mm 0,0 UV-I 0 W/m 3,7 C 4,2 C 8,0 km/h (2 Bft) 100,00 %
09.04.2016 04:24 4,3 C 96 % 1007,4 hPa 0,0 l/m 7,5 km/h (2 Bft) W 263 0 min 0,000 mm 0,0 UV-I 0 W/m 3,7 C 3,3 C 11,3 km/h (2 Bft) 96,15 %
09.04.2016 04:25 4,3 C 96 % 1007,4 hPa 0,0 l/m 6,2 km/h (2 Bft) SW 232 0 min 0,000 mm 0,0 UV-I 0 W/m 3,7 C 4,3 C 11,3 km/h (2 Bft) 100,00 %
09.04.2016 04:26 4,3 C 96 % 1007,4 hPa 0,0 l/m 5,8 km/h (2 Bft) SW 224 0 min 0,000 mm 0,0 UV-I 0 W/m 3,7 C 4,3 C 8,0 km/h (2 Bft) 91,67 %
09.04.2016 04:27 4,3 C 96 % 1007,4 hPa 0,0 l/m 6,0 km/h (2 Bft) W-SW 238 0 min 0,000 mm 0,0 UV-I 0 W/m 3,7 C 4,3 C 8,0 km/h (2 Bft) 100,00 %
09.04.2016 04:28 4,3 C 96 % 1007,4 hPa 0,0 l/m 6,6 km/h (2 Bft) W 261 0 min 0,000 mm 0,0 UV-I 0 W/m 3,7 C 4,1 C 9,7 km/h (2 Bft) 100,00 %
09.04.2016 04:29 4,3 C 96 % 1007,4 hPa 0,0 l/m 6,9 km/h (2 Bft) SW 227 0 min 0,000 mm 0,0 UV-I 0 W/m 3,7 C 3,9 C 11,3 km/h (2 Bft) 100,00 %
09.04.2016 04:30 4,3 C 96 % 1007,4 hPa 0,0 l/m 10,7 km/h (2 Bft) W-SW 252 0 min 0,000 mm 0,0 UV-I 0 W/m 3,7 C 0,8 C 14,5 km/h (3 Bft) 100,00 %
09.04.2016 04:31 4,4 C 96 % 1007,3 hPa 0,0 l/m 6,3 km/h (2 Bft) W-SW 242 0 min 0,000 mm 0,0 UV-I 0 W/m 3,8 C 4,4 C 11,3 km/h (2 Bft) 100,00 %
09.04.2016 04:32 4,3 C 96 % 1007,3 hPa 0,0 l/m 6,5 km/h (2 Bft) SW 217 0 min 0,000 mm 0,0 UV-I 0 W/m 3,7 C 4,2 C 8,0 km/h (2 Bft) 100,00 %
09.04.2016 04:33 4,3 C 96 % 1007,3 hPa 0,0 l/m 6,7 km/h (2 Bft) W-SW 243 0 min 0,000 mm 0,0 UV-I 0 W/m 3,7 C 4,0 C 9,7 km/h (2 Bft) 95,65 %
09.04.2016 04:34 4,3 C 96 % 1007,3 hPa 0,0 l/m 7,2 km/h (2 Bft) SW 227 0 min 0,000 mm 0,0 UV-I 0 W/m 3,7 C 3,6 C 9,7 km/h (2 Bft) 100,00 %
09.04.2016 04:35 4,3 C 96 % 1007,3 hPa 0,0 l/m 6,8 km/h (2 Bft) S-SW 201 0 min 0,000 mm 0,0 UV-I 0 W/m 3,7 C 3,9 C 9,7 km/h (2 Bft) 100,00 %
09.04.2016 04:36 4,3 C 96 % 1007,3 hPa 0,0 l/m 7,5 km/h (2 Bft) SW 215 0 min 0,000 mm 0,0 UV-I 0 W/m 3,7 C 3,3 C 9,7 km/h (2 Bft) 100,00 %
09.04.2016 04:37 4,3 C 96 % 1007,3 hPa 0,0 l/m 6,6 km/h (2 Bft) W-SW 239 0 min 0,000 mm 0,0 UV-I 0 W/m 3,7 C 4,1 C 9,7 km/h (2 Bft) 100,00 %
09.04.2016 04:38 4,3 C 96 % 1007,3 hPa 0,0 l/m 10,3 km/h (2 Bft) SW 219 0 min 0,000 mm 0,0 UV-I 0 W/m 3,7 C 1,1 C 14,5 km/h (3 Bft) 100,00 %
09.04.2016 04:39 4,3 C 96 % 1007,3 hPa 0,0 l/m 9,3 km/h (2 Bft) W-SW 247 0 min 0,000 mm 0,0 UV-I 0 W/m 3,7 C 1,8 C 14,5 km/h (3 Bft) 88,46 %
09.04.2016 04:40 4,3 C 96 % 1007,3 hPa 0,0 l/m 7,2 km/h (2 Bft) W-SW 249 0 min 0,000 mm 0,0 UV-I 0 W/m 3,7 C 3,6 C 9,7 km/h (2 Bft) 100,00 %
09.04.2016 04:41 4,4 C 96 % 1007,3 hPa 0,0 l/m 7,2 km/h (2 Bft) SW 220 0 min 0,000 mm 0,0 UV-I 0 W/m 3,8 C 3,7 C 14,5 km/h (3 Bft) 100,00 %
09.04.2016 04:42 4,3 C 96 % 1007,3 hPa 0,0 l/m 6,2 km/h (2 Bft) W-SW 257 0 min 0,000 mm 0,0 UV-I 0 W/m 3,7 C 4,3 C 8,0 km/h (2 Bft) 95,83 %
09.04.2016 04:43 4,3 C 96 % 1007,3 hPa 0,0 l/m 7,0 km/h (2 Bft) SW 215 0 min 0,000 mm 0,0 UV-I 0 W/m 3,7 C 3,8 C 12,9 km/h (3 Bft) 100,00 %
09.04.2016 04:44 4,3 C 96 % 1007,3 hPa 0,0 l/m 8,6 km/h (2 Bft) SW 215 0 min 0,000 mm 0,0 UV-I 0 W/m 3,7 C 2,4 C 12,9 km/h (3 Bft) 95,83 %
09.04.2016 04:45 4,3 C 96 % 1007,3 hPa 0,0 l/m 6,9 km/h (2 Bft) S-SW 209 0 min 0,000 mm 0,0 UV-I 0 W/m 3,7 C 3,9 C 9,7 km/h (2 Bft) 100,00 %
09.04.2016 04:46 4,3 C 96 % 1007,2 hPa 0,0 l/m 8,9 km/h (2 Bft) SW 225 0 min 0,000 mm 0,0 UV-I 0 W/m 3,7 C 2,1 C 12,9 km/h (3 Bft) 100,00 %
09.04.2016 04:47 4,3 C 96 % 1007,2 hPa 0,0 l/m 7,3 km/h (2 Bft) S-SW 207 0 min 0,000 mm 0,0 UV-I 0 W/m 3,7 C 3,5 C 11,3 km/h (2 Bft) 100,00 %
09.04.2016 04:48 4,3 C 96 % 1007,2 hPa 0,0 l/m 7,9 km/h (2 Bft) SW 223 0 min 0,000 mm 0,0 UV-I 0 W/m 3,7 C 3,0 C 12,9 km/h (3 Bft) 100,00 %
09.04.2016 04:49 4,3 C 96 % 1007,2 hPa 0,0 l/m 10,3 km/h (2 Bft) W-SW 244 0 min 0,000 mm 0,0 UV-I 0 W/m 3,7 C 1,1 C 14,5 km/h (3 Bft) 100,00 %
09.04.2016 04:50 4,3 C 96 % 1007,3 hPa 0,0 l/m 7,5 km/h (2 Bft) S 181 0 min 0,000 mm 0,0 UV-I 0 W/m 3,7 C 3,3 C 9,7 km/h (2 Bft) 100,00 %
09.04.2016 04:51 4,3 C 96 % 1007,3 hPa 0,0 l/m 6,9 km/h (2 Bft) SW 231 0 min 0,000 mm 0,0 UV-I 0 W/m 3,7 C 3,9 C 11,3 km/h (2 Bft) 100,00 %
09.04.2016 04:52 4,3 C 96 % 1007,3 hPa 0,0 l/m 7,8 km/h (2 Bft) S-SW 211 0 min 0,000 mm 0,0 UV-I 0 W/m 3,7 C 3,0 C 11,3 km/h (2 Bft) 100,00 %
09.04.2016 04:53 4,3 C 96 % 1007,3 hPa 0,0 l/m 5,9 km/h (2 Bft) S 172 0 min 0,000 mm 0,0 UV-I 0 W/m 3,7 C 4,3 C 8,0 km/h (2 Bft) 100,00 %
09.04.2016 04:54 4,3 C 96 % 1007,3 hPa 0,0 l/m 7,1 km/h (2 Bft) S-SW 203 0 min 0,000 mm 0,0 UV-I 0 W/m 3,7 C 3,7 C 11,3 km/h (2 Bft) 100,00 %
09.04.2016 04:55 4,3 C 96 % 1007,3 hPa 0,0 l/m 8,8 km/h (2 Bft) SW 215 0 min 0,000 mm 0,0 UV-I 0 W/m 3,7 C 2,2 C 19,3 km/h (3 Bft) 100,00 %
09.04.2016 04:56 4,3 C 96 % 1007,3 hPa 0,0 l/m 6,8 km/h (2 Bft) SW 232 0 min 0,000 mm 0,0 UV-I 0 W/m 3,7 C 3,9 C 9,7 km/h (2 Bft) 100,00 %
09.04.2016 04:57 4,3 C 96 % 1007,3 hPa 0,0 l/m 7,1 km/h (2 Bft) S-SW 204 0 min 0,000 mm 0,0 UV-I 0 W/m 3,7 C 3,7 C 9,7 km/h (2 Bft) 100,00 %
09.04.2016 04:58 4,3 C 96 % 1007,3 hPa 0,0 l/m 5,9 km/h (2 Bft) SW 216 0 min 0,000 mm 0,0 UV-I 0 W/m 3,7 C 4,3 C 8,0 km/h (2 Bft) 100,00 %
09.04.2016 04:59 4,3 C 96 % 1007,3 hPa 0,0 l/m 7,2 km/h (2 Bft) SW 215 0 min 0,000 mm 0,0 UV-I 0 W/m 3,7 C 3,6 C 9,7 km/h (2 Bft) 100,00 %
09.04.2016 05:00 4,3 C 96 % 1007,3 hPa 0,0 l/m 7,2 km/h (2 Bft) S 175 0 min 0,000 mm 0,0 UV-I 0 W/m 3,7 C 3,6 C 11,3 km/h (2 Bft) 100,00 %
09.04.2016 05:01 4,4 C 96 % 1007,3 hPa 0,0 l/m 8,6 km/h (2 Bft) S-SW 192 0 min 0,000 mm 0,0 UV-I 0 W/m 3,8 C 2,5 C 11,3 km/h (2 Bft) 96,30 %
09.04.2016 05:02 4,3 C 96 % 1007,3 hPa 0,0 l/m 7,1 km/h (2 Bft) W-SW 238 0 min 0,000 mm 0,0 UV-I 0 W/m 3,7 C 3,7 C 11,3 km/h (2 Bft) 100,00 %
09.04.2016 05:03 4,3 C 96 % 1007,3 hPa 0,0 l/m 7,3 km/h (2 Bft) S-SW 212 0 min 0,000 mm 0,0 UV-I 0 W/m 3,7 C 3,5 C 9,7 km/h (2 Bft) 100,00 %
09.04.2016 05:04 4,4 C 96 % 1007,3 hPa 0,0 l/m 8,6 km/h (2 Bft) S-SW 195 0 min 0,000 mm 0,0 UV-I 0 W/m 3,8 C 2,5 C 12,9 km/h (3 Bft) 95,65 %
09.04.2016 05:05 4,4 C 96 % 1007,3 hPa 0,0 l/m 10,0 km/h (2 Bft) W-SW 239 0 min 0,000 mm 0,0 UV-I 0 W/m 3,8 C 1,4 C 14,5 km/h (3 Bft) 100,00 %
09.04.2016 05:06 4,4 C 96 % 1007,3 hPa 0,0 l/m 7,5 km/h (2 Bft) S-SW 195 0 min 0,000 mm 0,0 UV-I 0 W/m 3,8 C 3,4 C 9,7 km/h (2 Bft) 93,33 %
09.04.2016 05:07 4,4 C 96 % 1007,2 hPa 0,0 l/m 9,9 km/h (2 Bft) SW 236 0 min 0,000 mm 0,0 UV-I 0 W/m 3,8 C 1,5 C 16,1 km/h (3 Bft) 100,00 %
09.04.2016 05:08 4,4 C 96 % 1007,3 hPa 0,0 l/m 8,9 km/h (2 Bft) W-SW 242 0 min 0,000 mm 0,0 UV-I 0 W/m 3,8 C 2,2 C 12,9 km/h (3 Bft) 100,00 %
09.04.2016 05:09 4,4 C 96 % 1007,3 hPa 0,0 l/m 6,2 km/h (2 Bft) SW 230 0 min 0,000 mm 0,0 UV-I 0 W/m 3,8 C 4,4 C 8,0 km/h (2 Bft) 100,00 %
09.04.2016 05:10 4,4 C 96 % 1007,3 hPa 0,0 l/m 8,9 km/h (2 Bft) SW 234 0 min 0,000 mm 0,0 UV-I 0 W/m 3,8 C 2,2 C 14,5 km/h (3 Bft) 91,30 %
09.04.2016 05:11 4,4 C 96 % 1007,3 hPa 0,0 l/m 6,4 km/h (2 Bft) W-SW 239 0 min 0,000 mm 0,0 UV-I 0 W/m 3,8 C 4,4 C 9,7 km/h (2 Bft) 100,00 %
09.04.2016 05:12 4,4 C 96 % 1007,3 hPa 0,0 l/m 7,9 km/h (2 Bft) SW 221 0 min 0,000 mm 0,0 UV-I 0 W/m 3,8 C 3,1 C 12,9 km/h (3 Bft) 100,00 %
09.04.2016 05:13 4,4 C 96 % 1007,2 hPa 0,0 l/m 6,9 km/h (2 Bft) S-SW 204 0 min 0,000 mm 0,0 UV-I 0 W/m 3,8 C 4,0 C 9,7 km/h (2 Bft) 100,00 %
09.04.2016 05:14 4,4 C 96 % 1007,2 hPa 0,0 l/m 7,4 km/h (2 Bft) S-SW 193 0 min 0,000 mm 0,0 UV-I 0 W/m 3,8 C 3,5 C 9,7 km/h (2 Bft) 100,00 %
09.04.2016 05:15 4,4 C 96 % 1007,2 hPa 0,0 l/m 6,4 km/h (2 Bft) S 191 0 min 0,000 mm 0,0 UV-I 0 W/m 3,8 C 4,4 C 9,7 km/h (2 Bft) 100,00 %
09.04.2016 05:16 4,4 C 96 % 1007,2 hPa 0,0 l/m 7,6 km/h (2 Bft) SW 234 0 min 0,000 mm 0,0 UV-I 0 W/m 3,8 C 3,3 C 11,3 km/h (2 Bft) 100,00 %
09.04.2016 05:17 4,4 C 96 % 1007,3 hPa 0,0 l/m 7,0 km/h (2 Bft) S-SW 211 0 min 0,000 mm 0,0 UV-I 0 W/m 3,8 C 3,9 C 11,3 km/h (2 Bft) 96,15 %
09.04.2016 05:18 4,4 C 96 % 1007,2 hPa 0,0 l/m 6,1 km/h (2 Bft) SW 232 0 min 0,000 mm 0,0 UV-I 0 W/m 3,8 C 4,4 C 9,7 km/h (2 Bft) 100,00 %
09.04.2016 05:19 4,4 C 95 % 1007,2 hPa 0,0 l/m 6,1 km/h (2 Bft) S-SW 195 0 min 0,000 mm 0,0 UV-I 0 W/m 3,7 C 4,4 C 9,7 km/h (2 Bft) 100,00 %
09.04.2016 05:20 4,4 C 95 % 1007,2 hPa 0,0 l/m 7,1 km/h (2 Bft) SW 233 0 min 0,000 mm 0,0 UV-I 0 W/m 3,7 C 3,8 C 11,3 km/h (2 Bft) 100,00 %
09.04.2016 05:21 4,4 C 95 % 1007,2 hPa 0,0 l/m 7,8 km/h (2 Bft) S-SW 198 0 min 0,000 mm 0,0 UV-I 0 W/m 3,7 C 3,1 C 11,3 km/h (2 Bft) 100,00 %
09.04.2016 05:22 4,4 C 95 % 1007,2 hPa 0,0 l/m 7,5 km/h (2 Bft) W-SW 249 0 min 0,000 mm 0,0 UV-I 0 W/m 3,7 C 3,4 C 11,3 km/h (2 Bft) 100,00 %
09.04.2016 05:23 4,4 C 95 % 1007,2 hPa 0,0 l/m 6,8 km/h (2 Bft) SW 232 0 min 0,000 mm 0,0 UV-I 0 W/m 3,7 C 4,1 C 14,5 km/h (3 Bft) 100,00 %
09.04.2016 05:24 4,4 C 95 % 1007,2 hPa 0,0 l/m 8,4 km/h (2 Bft) SW 232 0 min 0,000 mm 0,0 UV-I 0 W/m 3,7 C 2,6 C 14,5 km/h (3 Bft) 100,00 %
09.04.2016 05:25 4,4 C 95 % 1007,2 hPa 0,0 l/m 9,1 km/h (2 Bft) SW 223 0 min 0,000 mm 0,0 UV-I 0 W/m 3,7 C 2,1 C 14,5 km/h (3 Bft) 100,00 %
09.04.2016 05:26 4,4 C 95 % 1007,2 hPa 0,0 l/m 8,6 km/h (2 Bft) SW 221 0 min 0,000 mm 0,0 UV-I 0 W/m 3,7 C 2,5 C 12,9 km/h (3 Bft) 100,00 %
09.04.2016 05:27 4,4 C 95 % 1007,2 hPa 0,0 l/m 9,1 km/h (2 Bft) SW 217 0 min 0,000 mm 0,0 UV-I 0 W/m 3,7 C 2,1 C 14,5 km/h (3 Bft) 96,15 %
09.04.2016 05:28 4,4 C 95 % 1007,2 hPa 0,0 l/m 8,5 km/h (2 Bft) SW 236 0 min 0,000 mm 0,0 UV-I 0 W/m 3,7 C 2,6 C 14,5 km/h (3 Bft) 100,00 %
09.04.2016 05:29 4,4 C 95 % 1007,2 hPa 0,0 l/m 11,4 km/h (2 Bft) W-SW 237 0 min 0,000 mm 0,0 UV-I 0 W/m 3,7 C 0,4 C 14,5 km/h (3 Bft) 100,00 %
09.04.2016 05:30 4,4 C 95 % 1007,2 hPa 0,0 l/m 9,5 km/h (2 Bft) SW 216 0 min 0,000 mm 0,0 UV-I 0 W/m 3,7 C 1,8 C 14,5 km/h (3 Bft) 100,00 %
09.04.2016 05:31 4,4 C 95 % 1007,2 hPa 0,0 l/m 7,6 km/h (2 Bft) W-SW 246 0 min 0,000 mm 0,0 UV-I 0 W/m 3,7 C 3,3 C 11,3 km/h (2 Bft) 100,00 %
09.04.2016 05:32 4,4 C 95 % 1007,2 hPa 0,0 l/m 6,2 km/h (2 Bft) SW 222 0 min 0,000 mm 0,0 UV-I 0 W/m 3,7 C 4,4 C 8,0 km/h (2 Bft) 95,65 %
09.04.2016 05:33 4,4 C 96 % 1007,2 hPa 0,0 l/m 5,6 km/h (1 Bft) SW 231 0 min 0,000 mm 0,0 UV-I 0 W/m 3,8 C 4,4 C 8,0 km/h (2 Bft) 95,83 %
09.04.2016 05:34 4,4 C 96 % 1007,3 hPa 0,0 l/m 7,5 km/h (2 Bft) SW 216 0 min 0,000 mm 0,0 UV-I 0 W/m 3,8 C 3,4 C 12,9 km/h (3 Bft) 100,00 %
09.04.2016 05:35 4,4 C 96 % 1007,2 hPa 0,0 l/m 8,6 km/h (2 Bft) W-SW 256 0 min 0,000 mm 0,0 UV-I 0 W/m 3,8 C 2,5 C 12,9 km/h (3 Bft) 100,00 %
09.04.2016 05:36 4,4 C 96 % 1007,2 hPa 0,0 l/m 7,9 km/h (2 Bft) W-SW 240 0 min 0,000 mm 0,0 UV-I 0 W/m 3,8 C 3,1 C 12,9 km/h (3 Bft) 100,00 %
09.04.2016 05:37 4,4 C 96 % 1007,2 hPa 0,0 l/m 6,2 km/h (2 Bft) W-SW 249 0 min 0,000 mm 0,0 UV-I 0 W/m 3,8 C 4,4 C 9,7 km/h (2 Bft) 100,00 %
09.04.2016 05:38 4,4 C 96 % 1007,2 hPa 0,0 l/m 8,2 km/h (2 Bft) SW 231 0 min 0,000 mm 0,0 UV-I 0 W/m 3,8 C 2,8 C 12,9 km/h (3 Bft) 96,15 %
09.04.2016 05:39 4,4 C 96 % 1007,2 hPa 0,0 l/m 7,0 km/h (2 Bft) SW 231 0 min 0,000 mm 0,0 UV-I 0 W/m 3,8 C 3,9 C 12,9 km/h (3 Bft) 100,00 %
09.04.2016 05:40 4,4 C 96 % 1007,2 hPa 0,0 l/m 9,1 km/h (2 Bft) W-SW 242 0 min 0,000 mm 0,0 UV-I 0 W/m 3,8 C 2,1 C 12,9 km/h (3 Bft) 100,00 %
09.04.2016 05:41 4,4 C 96 % 1007,2 hPa 0,0 l/m 6,2 km/h (2 Bft) W-SW 240 0 min 0,000 mm 0,0 UV-I 0 W/m 3,8 C 4,4 C 8,0 km/h (2 Bft) 100,00 %
09.04.2016 05:42 4,4 C 96 % 1007,2 hPa 0,0 l/m 6,4 km/h (2 Bft) S-SW 200 0 min 0,000 mm 0,0 UV-I 0 W/m 3,8 C 4,4 C 11,3 km/h (2 Bft) 100,00 %
09.04.2016 05:43 4,4 C 96 % 1007,2 hPa 0,0 l/m 9,1 km/h (2 Bft) SW 225 0 min 0,000 mm 0,0 UV-I 0 W/m 3,8 C 2,1 C 12,9 km/h (3 Bft) 100,00 %
09.04.2016 05:44 4,4 C 96 % 1007,3 hPa 0,0 l/m 7,9 km/h (2 Bft) W 266 0 min 0,000 mm 0,0 UV-I 0 W/m 3,8 C 3,1 C 9,7 km/h (2 Bft) 100,00 %
09.04.2016 05:45 4,4 C 96 % 1007,2 hPa 0,0 l/m 5,3 km/h (1 Bft) W-SW 238 0 min 0,000 mm 0,0 UV-I 0 W/m 3,8 C 4,4 C 8,0 km/h (2 Bft) 100,00 %
09.04.2016 05:46 4,4 C 96 % 1007,3 hPa 0,0 l/m 9,1 km/h (2 Bft) SW 221 0 min 0,000 mm 0,0 UV-I 0 W/m 3,8 C 2,1 C 12,9 km/h (3 Bft) 100,00 %
09.04.2016 05:47 4,4 C 96 % 1007,3 hPa 0,0 l/m 7,0 km/h (2 Bft) SW 229 0 min 0,000 mm 0,0 UV-I 0 W/m 3,8 C 3,9 C 11,3 km/h (2 Bft) 100,00 %
09.04.2016 05:48 4,4 C 96 % 1007,3 hPa 0,0 l/m 7,2 km/h (2 Bft) S-SW 212 0 min 0,000 mm 0,0 UV-I 0 W/m 3,8 C 3,7 C 9,7 km/h (2 Bft) 97,56 %
09.04.2016 05:49 4,4 C 96 % 1007,3 hPa 0,0 l/m 6,9 km/h (2 Bft) SW 228 0 min 0,000 mm 0,0 UV-I 0 W/m 3,8 C 4,0 C 8,0 km/h (2 Bft) 96,30 %
09.04.2016 05:50 4,4 C 96 % 1007,3 hPa 0,0 l/m 7,6 km/h (2 Bft) S-SW 208 0 min 0,000 mm 0,0 UV-I 0 W/m 3,8 C 3,3 C 9,7 km/h (2 Bft) 100,00 %
09.04.2016 05:51 4,4 C 96 % 1007,2 hPa 0,0 l/m 5,1 km/h (1 Bft) SW 216 0 min 0,000 mm 0,0 UV-I 0 W/m 3,8 C 4,4 C 9,7 km/h (2 Bft) 100,00 %
09.04.2016 05:52 4,4 C 96 % 1007,3 hPa 0,0 l/m 7,1 km/h (2 Bft) SW 236 0 min 0,000 mm 0,0 UV-I 0 W/m 3,8 C 3,8 C 11,3 km/h (2 Bft) 100,00 %
09.04.2016 05:53 4,4 C 96 % 1007,3 hPa 0,0 l/m 7,1 km/h (2 Bft) SW 234 0 min 0,000 mm 0,0 UV-I 0 W/m 3,8 C 3,8 C 9,7 km/h (2 Bft) 100,00 %
09.04.2016 05:54 4,4 C 96 % 1007,3 hPa 0,0 l/m 7,8 km/h (2 Bft) W-SW 240 0 min 0,000 mm 0,0 UV-I 0 W/m 3,8 C 3,1 C 9,7 km/h (2 Bft) 100,00 %
09.04.2016 05:55 4,4 C 96 % 1007,3 hPa 0,0 l/m 6,4 km/h (2 Bft) SW 236 0 min 0,000 mm 0,0 UV-I 0 W/m 3,8 C 4,4 C 9,7 km/h (2 Bft) 100,00 %
09.04.2016 05:56 4,4 C 96 % 1007,2 hPa 0,0 l/m 7,4 km/h (2 Bft) SW 229 0 min 0,000 mm 0,0 UV-I 0 W/m 3,8 C 3,5 C 9,7 km/h (2 Bft) 92,59 %
09.04.2016 05:57 4,4 C 96 % 1007,3 hPa 0,0 l/m 7,0 km/h (2 Bft) S-SW 209 0 min 0,000 mm 0,0 UV-I 0 W/m 3,8 C 3,9 C 11,3 km/h (2 Bft) 91,30 %
09.04.2016 05:58 4,4 C 96 % 1007,3 hPa 0,0 l/m 6,8 km/h (2 Bft) W-SW 252 0 min 0,000 mm 0,0 UV-I 0 W/m 3,8 C 4,1 C 9,7 km/h (2 Bft) 100,00 %
09.04.2016 05:59 4,4 C 96 % 1007,3 hPa 0,0 l/m 7,5 km/h (2 Bft) W-SW 240 0 min 0,000 mm 0,0 UV-I 0 W/m 3,8 C 3,4 C 11,3 km/h (2 Bft) 96,15 %
09.04.2016 06:00 4,4 C 96 % 1007,3 hPa 0,0 l/m 6,9 km/h (2 Bft) W-SW 237 0 min 0,000 mm 0,0 UV-I 0 W/m 3,8 C 4,0 C 9,7 km/h (2 Bft) 100,00 %
09.04.2016 06:01 4,4 C 96 % 1007,3 hPa 0,0 l/m 6,8 km/h (2 Bft) W-SW 244 0 min 0,000 mm 0,0 UV-I 0 W/m 3,8 C 4,1 C 12,9 km/h (3 Bft) 88,46 %
09.04.2016 06:02 4,4 C 96 % 1007,2 hPa 0,0 l/m 5,6 km/h (1 Bft) SW 214 0 min 0,000 mm 0,0 UV-I 0 W/m 3,8 C 4,4 C 9,7 km/h (2 Bft) 100,00 %
09.04.2016 06:03 4,4 C 96 % 1007,2 hPa 0,0 l/m 8,9 km/h (2 Bft) W-SW 241 0 min 0,000 mm 0,0 UV-I 0 W/m 3,8 C 2,2 C 12,9 km/h (3 Bft) 93,10 %
09.04.2016 06:04 4,4 C 96 % 1007,2 hPa 0,0 l/m 8,0 km/h (2 Bft) W-SW 238 0 min 0,000 mm 0,0 UV-I 0 W/m 3,8 C 3,0 C 11,3 km/h (2 Bft) 100,00 %
09.04.2016 06:05 4,4 C 96 % 1007,3 hPa 0,0 l/m 6,8 km/h (2 Bft) W 261 0 min 0,000 mm 0,0 UV-I 0 W/m 3,8 C 4,1 C 12,9 km/h (3 Bft) 96,15 %
09.04.2016 06:06 4,4 C 96 % 1007,2 hPa 0,0 l/m 7,6 km/h (2 Bft) SW 221 0 min 0,000 mm 0,0 UV-I 0 W/m 3,8 C 3,3 C 8,0 km/h (2 Bft) 96,67 %
09.04.2016 06:07 4,4 C 96 % 1007,2 hPa 0,0 l/m 8,1 km/h (2 Bft) SW 232 0 min 0,000 mm 0,0 UV-I 0 W/m 3,8 C 2,9 C 9,7 km/h (2 Bft) 100,00 %
09.04.2016 06:08 4,4 C 96 % 1007,3 hPa 0,0 l/m 6,8 km/h (2 Bft) W-SW 248 0 min 0,000 mm 0,0 UV-I 0 W/m 3,8 C 4,1 C 9,7 km/h (2 Bft) 96,15 %
09.04.2016 06:09 4,4 C 96 % 1007,3 hPa 0,0 l/m 5,6 km/h (1 Bft) SW 217 0 min 0,000 mm 0,0 UV-I 0 W/m 3,8 C 4,4 C 8,0 km/h (2 Bft) 100,00 %
09.04.2016 06:10 4,4 C 96 % 1007,3 hPa 0,0 l/m 6,1 km/h (2 Bft) W-SW 242 0 min 0,000 mm 0,0 UV-I 0 W/m 3,8 C 4,4 C 11,3 km/h (2 Bft) 95,65 %
09.04.2016 06:11 4,4 C 96 % 1007,3 hPa 0,0 l/m 10,5 km/h (2 Bft) SW 236 0 min 0,000 mm 0,0 UV-I 0 W/m 3,8 C 1,1 C 14,5 km/h (3 Bft) 100,00 %
09.04.2016 06:12 4,4 C 96 % 1007,4 hPa 0,0 l/m 7,9 km/h (2 Bft) W-SW 257 0 min 0,000 mm 0,0 UV-I 0 W/m 3,8 C 3,1 C 12,9 km/h (3 Bft) 96,55 %
09.04.2016 06:13 4,4 C 96 % 1007,4 hPa 0,0 l/m 7,8 km/h (2 Bft) W-SW 243 0 min 0,000 mm 0,0 UV-I 0 W/m 3,8 C 3,1 C 11,3 km/h (2 Bft) 100,00 %
09.04.2016 06:14 4,4 C 96 % 1007,4 hPa 0,0 l/m 6,6 km/h (2 Bft) SW 228 0 min 0,000 mm 0,0 UV-I 0 W/m 3,8 C 4,2 C 9,7 km/h (2 Bft) 94,12 %
09.04.2016 06:15 4,4 C 96 % 1007,4 hPa 0,0 l/m 5,5 km/h (1 Bft) W 263 0 min 0,000 mm 0,0 UV-I 0 W/m 3,8 C 4,4 C 6,4 km/h (2 Bft) 97,62 %
09.04.2016 06:16 4,4 C 96 % 1007,4 hPa 0,0 l/m 4,3 km/h (1 Bft) W-SW 245 0 min 0,000 mm 0,0 UV-I 0 W/m 3,8 C 4,4 C 4,8 km/h (1 Bft) 100,00 %
09.04.2016 06:17 4,4 C 96 % 1007,4 hPa 0,0 l/m 5,6 km/h (1 Bft) W-SW 246 0 min 0,000 mm 0,0 UV-I 0 W/m 3,8 C 4,4 C 11,3 km/h (2 Bft) 96,30 %
09.04.2016 06:18 4,4 C 96 % 1007,4 hPa 0,0 l/m 6,7 km/h (2 Bft) W-SW 250 0 min 0,000 mm 0,0 UV-I 0 W/m 3,8 C 4,1 C 9,7 km/h (2 Bft) 96,88 %
09.04.2016 06:19 4,4 C 96 % 1007,4 hPa 0,0 l/m 6,4 km/h (2 Bft) SW 230 0 min 0,000 mm 0,0 UV-I 0 W/m 3,8 C 4,4 C 9,7 km/h (2 Bft) 100,00 %
09.04.2016 06:20 4,4 C 96 % 1007,4 hPa 0,0 l/m 4,8 km/h (1 Bft) W-SW 246 0 min 0,000 mm 0,0 UV-I 0 W/m 3,8 C 4,4 C 6,4 km/h (2 Bft) 96,88 %
09.04.2016 06:21 4,4 C 96 % 1007,4 hPa 0,0 l/m 6,4 km/h (2 Bft) SW 234 0 min 0,000 mm 0,0 UV-I 0 W/m 3,8 C 4,4 C 9,7 km/h (2 Bft) 100,00 %
09.04.2016 06:22 4,4 C 96 % 1007,4 hPa 0,0 l/m 7,6 km/h (2 Bft) W-SW 244 0 min 0,000 mm 0,0 UV-I 0 W/m 3,8 C 3,3 C 14,5 km/h (3 Bft) 100,00 %
09.04.2016 06:23 4,4 C 96 % 1007,4 hPa 0,0 l/m 8,6 km/h (2 Bft) SW 227 0 min 0,000 mm 0,0 UV-I 0 W/m 3,8 C 2,5 C 11,3 km/h (2 Bft) 96,77 %
09.04.2016 06:24 4,4 C 96 % 1007,4 hPa 0,0 l/m 8,0 km/h (2 Bft) W-SW 238 0 min 0,000 mm 0,0 UV-I 0 W/m 3,8 C 3,0 C 9,7 km/h (2 Bft) 96,15 %
09.04.2016 06:25 4,4 C 96 % 1007,4 hPa 0,0 l/m 7,1 km/h (2 Bft) SW 227 0 min 0,000 mm 0,0 UV-I 0 W/m 3,8 C 3,8 C 9,7 km/h (2 Bft) 100,00 %
09.04.2016 06:26 4,4 C 96 % 1007,4 hPa 0,0 l/m 8,2 km/h (2 Bft) SW 217 0 min 0,000 mm 0,0 UV-I 0 W/m 3,8 C 2,8 C 12,9 km/h (3 Bft) 93,33 %
09.04.2016 06:27 4,4 C 96 % 1007,4 hPa 0,0 l/m 5,4 km/h (1 Bft) SW 236 0 min 0,000 mm 0,0 UV-I 0 W/m 3,8 C 4,4 C 8,0 km/h (2 Bft) 100,00 %
09.04.2016 06:28 4,4 C 96 % 1007,3 hPa 0,0 l/m 6,3 km/h (2 Bft) W 259 0 min 0,000 mm 0,0 UV-I 0 W/m 3,8 C 4,4 C 9,7 km/h (2 Bft) 96,30 %
09.04.2016 06:29 4,4 C 96 % 1007,4 hPa 0,0 l/m 6,9 km/h (2 Bft) W 268 0 min 0,000 mm 0,0 UV-I 0 W/m 3,8 C 4,0 C 12,9 km/h (3 Bft) 96,15 %
09.04.2016 06:30 4,5 C 96 % 1007,4 hPa 0,0 l/m 7,6 km/h (2 Bft) W-SW 257 0 min 0,000 mm 0,0 UV-I 0 W/m 3,9 C 3,4 C 11,3 km/h (2 Bft) 100,00 %
09.04.2016 06:31 4,5 C 96 % 1007,4 hPa 0,0 l/m 6,0 km/h (2 Bft) W-SW 253 0 min 0,000 mm 0,0 UV-I 0 W/m 3,9 C 4,5 C 8,0 km/h (2 Bft) 92,31 %
09.04.2016 06:32 4,5 C 96 % 1007,4 hPa 0,0 l/m 4,2 km/h (1 Bft) W-SW 248 0 min 0,000 mm 0,0 UV-I 0 W/m 3,9 C 4,5 C 4,8 km/h (1 Bft) 100,00 %
09.04.2016 06:33 4,5 C 96 % 1007,4 hPa 0,0 l/m 6,1 km/h (2 Bft) W-SW 241 0 min 0,000 mm 0,0 UV-I 0 W/m 3,9 C 4,5 C 6,4 km/h (2 Bft) 100,00 %
09.04.2016 06:34 4,5 C 96 % 1007,4 hPa 0,0 l/m 8,9 km/h (2 Bft) W 267 0 min 0,000 mm 0,0 UV-I 0 W/m 3,9 C 2,3 C 11,3 km/h (2 Bft) 100,00 %
09.04.2016 06:35 4,5 C 96 % 1007,3 hPa 0,0 l/m 7,0 km/h (2 Bft) W 259 0 min 0,000 mm 0,0 UV-I 0 W/m 3,9 C 4,0 C 9,7 km/h (2 Bft) 100,00 %
09.04.2016 06:36 4,5 C 96 % 1007,4 hPa 0,0 l/m 7,2 km/h (2 Bft) W 259 0 min 0,000 mm 0,0 UV-I 0 W/m 3,9 C 3,8 C 12,9 km/h (3 Bft) 100,00 %
09.04.2016 06:37 4,5 C 96 % 1007,4 hPa 0,0 l/m 7,1 km/h (2 Bft) W-SW 246 0 min 0,000 mm 0,0 UV-I 0 W/m 3,9 C 3,9 C 11,3 km/h (2 Bft) 100,00 %
09.04.2016 06:38 4,5 C 96 % 1007,4 hPa 0,0 l/m 5,6 km/h (1 Bft) SW 222 0 min 0,000 mm 0,0 UV-I 0 W/m 3,9 C 4,5 C 11,3 km/h (2 Bft) 95,83 %
09.04.2016 06:39 4,5 C 96 % 1007,3 hPa 0,0 l/m 5,6 km/h (1 Bft) SW 236 0 min 0,000 mm 0,0 UV-I 0 W/m 3,9 C 4,5 C 9,7 km/h (2 Bft) 100,00 %
09.04.2016 06:40 4,5 C 96 % 1007,4 hPa 0,0 l/m 7,6 km/h (2 Bft) W-SW 242 0 min 0,000 mm 0,0 UV-I 0 W/m 3,9 C 3,4 C 14,5 km/h (3 Bft) 100,00 %
09.04.2016 06:41 4,5 C 96 % 1007,4 hPa 0,0 l/m 8,3 km/h (2 Bft) W-SW 240 0 min 0,000 mm 0,0 UV-I 0 W/m 3,9 C 2,8 C 11,3 km/h (2 Bft) 100,00 %
09.04.2016 06:42 4,5 C 96 % 1007,4 hPa 0,0 l/m 5,6 km/h (1 Bft) W-SW 253 0 min 0,000 mm 0,0 UV-I 0 W/m 3,9 C 4,5 C 8,0 km/h (2 Bft) 100,00 %
09.04.2016 06:43 4,5 C 96 % 1007,4 hPa 0,0 l/m 5,6 km/h (1 Bft) W-SW 244 0 min 0,000 mm 0,0 UV-I 0 W/m 3,9 C 4,5 C 6,4 km/h (2 Bft) 100,00 %
09.04.2016 06:44 4,5 C 96 % 1007,4 hPa 0,0 l/m 6,6 km/h (2 Bft) W-SW 252 0 min 0,000 mm 0,0 UV-I 0 W/m 3,9 C 4,3 C 9,7 km/h (2 Bft) 100,00 %
09.04.2016 06:45 4,5 C 96 % 1007,5 hPa 0,0 l/m 6,0 km/h (2 Bft) W-SW 254 0 min 0,000 mm 0,0 UV-I 0 W/m 3,9 C 4,5 C 9,7 km/h (2 Bft) 97,56 %
09.04.2016 06:46 4,5 C 96 % 1007,4 hPa 0,0 l/m 7,5 km/h (2 Bft) W-SW 252 0 min 0,000 mm 0,0 UV-I 0 W/m 3,9 C 3,5 C 12,9 km/h (3 Bft) 100,00 %
09.04.2016 06:47 4,5 C 96 % 1007,5 hPa 0,0 l/m 10,0 km/h (2 Bft) W-SW 242 0 min 0,000 mm 0,0 UV-I 0 W/m 3,9 C 1,5 C 12,9 km/h (3 Bft) 100,00 %
09.04.2016 06:48 4,5 C 96 % 1007,5 hPa 0,0 l/m 10,2 km/h (2 Bft) SW 233 0 min 0,000 mm 0,0 UV-I 0 W/m 3,9 C 1,4 C 12,9 km/h (3 Bft) 100,00 %
09.04.2016 06:49 4,5 C 96 % 1007,5 hPa 0,0 l/m 8,6 km/h (2 Bft) W-SW 253 0 min 0,000 mm 0,0 UV-I 0 W/m 3,9 C 2,6 C 12,9 km/h (3 Bft) 100,00 %
09.04.2016 06:50 4,5 C 96 % 1007,5 hPa 0,0 l/m 7,3 km/h (2 Bft) SW 221 0 min 0,000 mm 0,0 UV-I 0 W/m 3,9 C 3,7 C 11,3 km/h (2 Bft) 100,00 %
09.04.2016 06:51 4,5 C 96 % 1007,5 hPa 0,0 l/m 5,6 km/h (1 Bft) W-SW 239 0 min 0,000 mm 0,0 UV-I 0 W/m 3,9 C 4,5 C 8,0 km/h (2 Bft) 100,00 %
09.04.2016 06:52 4,5 C 96 % 1007,5 hPa 0,0 l/m 7,3 km/h (2 Bft) SW 232 0 min 0,000 mm 0,0 UV-I 0 W/m 3,9 C 3,7 C 12,9 km/h (3 Bft) 100,00 %
09.04.2016 06:53 4,5 C 96 % 1007,6 hPa 0,0 l/m 5,6 km/h (1 Bft) SW 215 0 min 0,000 mm 0,0 UV-I 0 W/m 3,9 C 4,5 C 8,0 km/h (2 Bft) 100,00 %
09.04.2016 06:54 4,5 C 96 % 1007,5 hPa 0,0 l/m 6,8 km/h (2 Bft) SW 227 0 min 0,000 mm 0,0 UV-I 0 W/m 3,9 C 4,2 C 12,9 km/h (3 Bft) 100,00 %
09.04.2016 06:55 4,5 C 96 % 1007,5 hPa 0,0 l/m 7,4 km/h (2 Bft) S-SW 197 0 min 0,000 mm 0,0 UV-I 0 W/m 3,9 C 3,6 C 9,7 km/h (2 Bft) 100,00 %
09.04.2016 06:56 4,5 C 96 % 1007,5 hPa 0,0 l/m 10,3 km/h (2 Bft) S-SW 203 0 min 0,000 mm 0,0 UV-I 0 W/m 3,9 C 1,3 C 14,5 km/h (3 Bft) 100,00 %
09.04.2016 06:57 4,5 C 96 % 1007,5 hPa 0,0 l/m 8,0 km/h (2 Bft) SW 219 0 min 0,000 mm 0,0 UV-I 0 W/m 3,9 C 3,1 C 11,3 km/h (2 Bft) 95,83 %
09.04.2016 06:58 4,5 C 96 % 1007,5 hPa 0,0 l/m 8,8 km/h (2 Bft) SW 224 0 min 0,000 mm 0,0 UV-I 0 W/m 3,9 C 2,4 C 11,3 km/h (2 Bft) 100,00 %
09.04.2016 06:59 4,5 C 96 % 1007,5 hPa 0,0 l/m 9,3 km/h (2 Bft) W-SW 239 0 min 0,000 mm 0,0 UV-I 0 W/m 3,9 C 2,0 C 12,9 km/h (3 Bft) 100,00 %
09.04.2016 07:00 4,5 C 96 % 1007,5 hPa 0,0 l/m 8,6 km/h (2 Bft) SW 228 0 min 0,000 mm 0,0 UV-I 0 W/m 3,9 C 2,6 C 11,3 km/h (2 Bft) 95,65 %
09.04.2016 07:01 4,5 C 96 % 1007,5 hPa 0,0 l/m 8,4 km/h (2 Bft) SW 224 0 min 0,000 mm 0,0 UV-I 0 W/m 3,9 C 2,7 C 11,3 km/h (2 Bft) 93,33 %
09.04.2016 07:02 4,5 C 96 % 1007,5 hPa 0,0 l/m 7,9 km/h (2 Bft) W-SW 248 0 min 0,000 mm 0,0 UV-I 4 W/m 3,9 C 3,2 C 12,9 km/h (3 Bft) 100,00 %
09.04.2016 07:03 4,5 C 96 % 1007,5 hPa 0,0 l/m 6,0 km/h (2 Bft) SW 221 0 min 0,000 mm 0,0 UV-I 5 W/m 3,9 C 4,5 C 8,0 km/h (2 Bft) 100,00 %
09.04.2016 07:04 4,5 C 96 % 1007,5 hPa 0,0 l/m 7,1 km/h (2 Bft) SW 234 0 min 0,000 mm 0,0 UV-I 5 W/m 3,9 C 3,9 C 11,3 km/h (2 Bft) 100,00 %
09.04.2016 07:05 4,5 C 96 % 1007,5 hPa 0,0 l/m 6,8 km/h (2 Bft) SW 225 0 min 0,000 mm 0,0 UV-I 5 W/m 3,9 C 4,2 C 11,3 km/h (2 Bft) 100,00 %
09.04.2016 07:06 4,5 C 96 % 1007,5 hPa 0,0 l/m 8,5 km/h (2 Bft) SW 235 0 min 0,000 mm 0,0 UV-I 5 W/m 3,9 C 2,7 C 11,3 km/h (2 Bft) 100,00 %
09.04.2016 07:07 4,5 C 96 % 1007,5 hPa 0,0 l/m 7,7 km/h (2 Bft) W-SW 240 0 min 0,000 mm 0,0 UV-I 5 W/m 3,9 C 3,3 C 11,3 km/h (2 Bft) 100,00 %
09.04.2016 07:08 4,5 C 96 % 1007,5 hPa 0,0 l/m 7,4 km/h (2 Bft) W-SW 253 0 min 0,000 mm 0,0 UV-I 5 W/m 3,9 C 3,6 C 11,3 km/h (2 Bft) 100,00 %
09.04.2016 07:09 4,5 C 96 % 1007,5 hPa 0,0 l/m 7,3 km/h (2 Bft) W-SW 251 0 min 0,000 mm 0,0 UV-I 5 W/m 3,9 C 3,7 C 11,3 km/h (2 Bft) 100,00 %
09.04.2016 07:10 4,5 C 96 % 1007,5 hPa 0,0 l/m 6,2 km/h (2 Bft) SW 223 0 min 0,000 mm 0,0 UV-I 5 W/m 3,9 C 4,5 C 8,0 km/h (2 Bft) 100,00 %
09.04.2016 07:11 4,4 C 96 % 1007,5 hPa 0,0 l/m 6,8 km/h (2 Bft) SW 225 0 min 0,000 mm 0,0 UV-I 5 W/m 3,8 C 4,1 C 11,3 km/h (2 Bft) 100,00 %
09.04.2016 07:12 4,5 C 96 % 1007,5 hPa 0,0 l/m 6,5 km/h (2 Bft) SW 233 0 min 0,000 mm 0,0 UV-I 5 W/m 3,9 C 4,4 C 8,0 km/h (2 Bft) 100,00 %
09.04.2016 07:13 4,5 C 96 % 1007,5 hPa 0,0 l/m 8,4 km/h (2 Bft) S-SW 206 0 min 0,000 mm 0,0 UV-I 5 W/m 3,9 C 2,7 C 11,3 km/h (2 Bft) 96,55 %
09.04.2016 07:14 4,5 C 96 % 1007,6 hPa 0,0 l/m 9,1 km/h (2 Bft) W-SW 245 0 min 0,000 mm 0,0 UV-I 5 W/m 3,9 C 2,2 C 12,9 km/h (3 Bft) 100,00 %
09.04.2016 07:15 4,5 C 96 % 1007,6 hPa 0,0 l/m 11,3 km/h (2 Bft) SW 234 0 min 0,000 mm 0,0 UV-I 5 W/m 3,9 C 0,6 C 14,5 km/h (3 Bft) 96,15 %
09.04.2016 07:16 4,5 C 96 % 1007,6 hPa 0,0 l/m 9,3 km/h (2 Bft) S-SW 209 0 min 0,000 mm 0,0 UV-I 5 W/m 3,9 C 2,0 C 14,5 km/h (3 Bft) 100,00 %
09.04.2016 07:17 4,5 C 96 % 1007,5 hPa 0,0 l/m 8,1 km/h (2 Bft) SW 236 0 min 0,000 mm 0,0 UV-I 5 W/m 3,9 C 3,0 C 14,5 km/h (3 Bft) 100,00 %
09.04.2016 07:18 4,5 C 96 % 1007,6 hPa 0,0 l/m 9,1 km/h (2 Bft) SW 227 0 min 0,000 mm 0,0 UV-I 6 W/m 3,9 C 2,2 C 12,9 km/h (3 Bft) 96,30 %
09.04.2016 07:19 4,5 C 96 % 1007,6 hPa 0,0 l/m 7,5 km/h (2 Bft) SW 219 0 min 0,000 mm 0,0 UV-I 7 W/m 3,9 C 3,5 C 9,7 km/h (2 Bft) 100,00 %
09.04.2016 07:20 4,5 C 96 % 1007,6 hPa 0,2 l/m 4,6 km/h (1 Bft) SW 215 0 min 0,000 mm 0,0 UV-I 7 W/m 3,9 C 4,5 C 6,4 km/h (2 Bft) 100,00 %
09.04.2016 07:21 4,4 C 96 % 1007,5 hPa 0,0 l/m 6,4 km/h (2 Bft) SW 225 0 min 0,000 mm 0,0 UV-I 7 W/m 3,8 C 4,4 C 11,3 km/h (2 Bft) 100,00 %
09.04.2016 07:22 4,5 C 96 % 1007,6 hPa 0,0 l/m 8,7 km/h (2 Bft) SW 229 0 min 0,000 mm 0,0 UV-I 9 W/m 3,9 C 2,5 C 11,3 km/h (2 Bft) 100,00 %
09.04.2016 07:23 4,5 C 96 % 1007,5 hPa 0,0 l/m 7,6 km/h (2 Bft) W-SW 239 0 min 0,000 mm 0,0 UV-I 9 W/m 3,9 C 3,4 C 11,3 km/h (2 Bft) 100,00 %
09.04.2016 07:24 4,4 C 96 % 1007,5 hPa 0,0 l/m 7,0 km/h (2 Bft) W-SW 237 0 min 0,000 mm 0,0 UV-I 9 W/m 3,8 C 3,9 C 9,7 km/h (2 Bft) 95,83 %
09.04.2016 07:25 4,5 C 96 % 1007,6 hPa 0,0 l/m 6,8 km/h (2 Bft) W-SW 244 0 min 0,000 mm 0,0 UV-I 8 W/m 3,9 C 4,2 C 9,7 km/h (2 Bft) 100,00 %
09.04.2016 07:26 4,5 C 96 % 1007,6 hPa 0,0 l/m 5,7 km/h (1 Bft) SW 235 0 min 0,000 mm 0,0 UV-I 7 W/m 3,9 C 4,5 C 8,0 km/h (2 Bft) 96,55 %
09.04.2016 07:27 4,5 C 96 % 1007,5 hPa 0,0 l/m 5,6 km/h (1 Bft) SW 220 0 min 0,000 mm 0,0 UV-I 7 W/m 3,9 C 4,5 C 8,0 km/h (2 Bft) 100,00 %
09.04.2016 07:28 4,5 C 96 % 1007,5 hPa 0,0 l/m 3,6 km/h (1 Bft) SW 229 0 min 0,000 mm 0,0 UV-I 9 W/m 3,9 C 4,5 C 6,4 km/h (2 Bft) 100,00 %
09.04.2016 07:29 4,5 C 96 % 1007,5 hPa 0,0 l/m 4,5 km/h (1 Bft) W-SW 238 0 min 0,000 mm 0,0 UV-I 9 W/m 3,9 C 4,5 C 6,4 km/h (2 Bft) 95,65 %
09.04.2016 07:30 4,5 C 96 % 1007,5 hPa 0,0 l/m 5,7 km/h (1 Bft) W-SW 254 0 min 0,000 mm 0,0 UV-I 9 W/m 3,9 C 4,5 C 6,4 km/h (2 Bft) 100,00 %
09.04.2016 07:31 4,5 C 96 % 1007,5 hPa 0,0 l/m 5,1 km/h (1 Bft) SW 227 0 min 0,000 mm 0,0 UV-I 11 W/m 3,9 C 4,5 C 8,0 km/h (2 Bft) 100,00 %
09.04.2016 07:32 4,5 C 96 % 1007,5 hPa 0,0 l/m 3,4 km/h (1 Bft) SW 230 0 min 0,000 mm 0,0 UV-I 11 W/m 3,9 C 4,5 C 4,8 km/h (1 Bft) 100,00 %
09.04.2016 07:33 4,5 C 96 % 1007,5 hPa 0,0 l/m 4,2 km/h (1 Bft) W-SW 251 0 min 0,000 mm 0,0 UV-I 11 W/m 3,9 C 4,5 C 4,8 km/h (1 Bft) 100,00 %
09.04.2016 07:34 4,5 C 96 % 1007,5 hPa 0,0 l/m 4,4 km/h (1 Bft) SW 218 0 min 0,000 mm 0,0 UV-I 12 W/m 3,9 C 4,5 C 6,4 km/h (2 Bft) 100,00 %
09.04.2016 07:35 4,5 C 96 % 1007,5 hPa 0,0 l/m 5,1 km/h (1 Bft) W-SW 242 0 min 0,000 mm 0,0 UV-I 12 W/m 3,9 C 4,5 C 8,0 km/h (2 Bft) 100,00 %
09.04.2016 07:36 4,5 C 96 % 1007,5 hPa 0,0 l/m 5,4 km/h (1 Bft) SW 227 0 min 0,000 mm 0,0 UV-I 11 W/m 3,9 C 4,5 C 8,0 km/h (2 Bft) 100,00 %
09.04.2016 07:37 4,5 C 97 % 1007,5 hPa 0,0 l/m 5,4 km/h (1 Bft) W-SW 244 0 min 0,000 mm 0,0 UV-I 11 W/m 4,1 C 4,5 C 6,4 km/h (2 Bft) 100,00 %
09.04.2016 07:38 4,5 C 97 % 1007,4 hPa 0,0 l/m 4,3 km/h (1 Bft) SW 227 0 min 0,000 mm 0,0 UV-I 11 W/m 4,1 C 4,5 C 8,0 km/h (2 Bft) 100,00 %
09.04.2016 07:39 4,5 C 97 % 1007,5 hPa 0,0 l/m 6,0 km/h (2 Bft) SW 233 0 min 0,000 mm 0,0 UV-I 11 W/m 4,1 C 4,5 C 9,7 km/h (2 Bft) 100,00 %
09.04.2016 07:40 4,5 C 97 % 1007,5 hPa 0,0 l/m 6,6 km/h (2 Bft) S-SW 211 0 min 0,000 mm 0,0 UV-I 11 W/m 4,1 C 4,3 C 11,3 km/h (2 Bft) 100,00 %
09.04.2016 07:41 4,5 C 97 % 1007,5 hPa 0,0 l/m 7,6 km/h (2 Bft) W 259 0 min 0,000 mm 0,0 UV-I 11 W/m 4,1 C 3,4 C 11,3 km/h (2 Bft) 100,00 %
09.04.2016 07:42 4,5 C 97 % 1007,5 hPa 0,0 l/m 6,3 km/h (2 Bft) W-SW 244 0 min 0,000 mm 0,0 UV-I 11 W/m 4,1 C 4,5 C 9,7 km/h (2 Bft) 100,00 %
09.04.2016 07:43 4,5 C 97 % 1007,5 hPa 0,0 l/m 6,4 km/h (2 Bft) W-SW 251 0 min 0,000 mm 0,0 UV-I 12 W/m 4,1 C 4,5 C 9,7 km/h (2 Bft) 100,00 %
09.04.2016 07:44 4,5 C 97 % 1007,5 hPa 0,0 l/m 7,8 km/h (2 Bft) SW 217 0 min 0,000 mm 0,0 UV-I 12 W/m 4,1 C 3,2 C 9,7 km/h (2 Bft) 100,00 %
09.04.2016 07:45 4,5 C 97 % 1007,5 hPa 0,0 l/m 6,4 km/h (2 Bft) W-SW 242 0 min 0,000 mm 0,0 UV-I 12 W/m 4,1 C 4,5 C 11,3 km/h (2 Bft) 91,67 %
09.04.2016 07:46 4,5 C 97 % 1007,5 hPa 0,0 l/m 6,4 km/h (2 Bft) SW 223 0 min 0,000 mm 0,0 UV-I 12 W/m 4,1 C 4,5 C 8,0 km/h (2 Bft) 100,00 %
09.04.2016 07:47 4,5 C 97 % 1007,5 hPa 0,0 l/m 6,3 km/h (2 Bft) W-SW 240 0 min 0,000 mm 0,0 UV-I 12 W/m 4,1 C 4,5 C 9,7 km/h (2 Bft) 100,00 %
09.04.2016 07:48 4,5 C 97 % 1007,5 hPa 0,0 l/m 7,0 km/h (2 Bft) W-SW 244 0 min 0,000 mm 0,0 UV-I 12 W/m 4,1 C 4,0 C 11,3 km/h (2 Bft) 96,88 %
09.04.2016 07:49 4,5 C 97 % 1007,5 hPa 0,0 l/m 5,4 km/h (1 Bft) S 191 0 min 0,000 mm 0,0 UV-I 11 W/m 4,1 C 4,5 C 11,3 km/h (2 Bft) 100,00 %
09.04.2016 07:50 4,5 C 97 % 1007,6 hPa 0,0 l/m 4,5 km/h (1 Bft) W-SW 243 0 min 0,000 mm 0,0 UV-I 11 W/m 4,1 C 4,5 C 4,8 km/h (1 Bft) 100,00 %
09.04.2016 07:51 4,5 C 97 % 1007,6 hPa 0,0 l/m 9,3 km/h (2 Bft) SW 231 0 min 0,000 mm 0,0 UV-I 11 W/m 4,1 C 2,0 C 12,9 km/h (3 Bft) 100,00 %
09.04.2016 07:52 4,5 C 97 % 1007,6 hPa 0,0 l/m 8,9 km/h (2 Bft) SW 233 0 min 0,000 mm 0,0 UV-I 12 W/m 4,1 C 2,3 C 9,7 km/h (2 Bft) 100,00 %
09.04.2016 07:53 4,5 C 97 % 1007,5 hPa 0,0 l/m 5,3 km/h (1 Bft) S-SW 211 0 min 0,000 mm 0,0 UV-I 12 W/m 4,1 C 4,5 C 9,7 km/h (2 Bft) 100,00 %
09.04.2016 07:54 4,5 C 97 % 1007,5 hPa 0,0 l/m 5,9 km/h (2 Bft) W-SW 244 0 min 0,000 mm 0,0 UV-I 13 W/m 4,1 C 4,5 C 8,0 km/h (2 Bft) 100,00 %
09.04.2016 07:55 4,5 C 97 % 1007,6 hPa 0,0 l/m 3,1 km/h (1 Bft) S 188 0 min 0,000 mm 0,0 UV-I 14 W/m 4,1 C 4,5 C 4,8 km/h (1 Bft) 100,00 %
09.04.2016 07:56 4,5 C 97 % 1007,6 hPa 0,0 l/m 3,9 km/h (1 Bft) W-SW 249 0 min 0,000 mm 0,0 UV-I 16 W/m 4,1 C 4,5 C 6,4 km/h (2 Bft) 100,00 %
09.04.2016 07:57 4,5 C 97 % 1007,6 hPa 0,0 l/m 5,8 km/h (2 Bft) W-SW 240 0 min 0,000 mm 0,0 UV-I 16 W/m 4,1 C 4,5 C 8,0 km/h (2 Bft) 100,00 %
09.04.2016 07:58 4,5 C 97 % 1007,5 hPa 0,0 l/m 6,1 km/h (2 Bft) W-SW 242 0 min 0,000 mm 0,0 UV-I 16 W/m 4,1 C 4,5 C 9,7 km/h (2 Bft) 100,00 %
09.04.2016 07:59 4,6 C 97 % 1007,5 hPa 0,0 l/m 7,3 km/h (2 Bft) S-SW 210 0 min 0,000 mm 0,0 UV-I 16 W/m 4,2 C 3,8 C 11,3 km/h (2 Bft) 100,00 %
09.04.2016 08:00 4,5 C 97 % 1007,5 hPa 0,2 l/m 4,7 km/h (1 Bft) W-SW 243 0 min 0,000 mm 0,0 UV-I 18 W/m 4,1 C 4,5 C 8,0 km/h (2 Bft) 100,00 %
09.04.2016 08:01 4,6 C 97 % 1007,6 hPa 0,0 l/m 6,9 km/h (2 Bft) SW 229 0 min 0,000 mm 0,0 UV-I 18 W/m 4,2 C 4,2 C 8,0 km/h (2 Bft) 96,15 %
09.04.2016 08:02 4,6 C 97 % 1007,6 hPa 0,0 l/m 5,3 km/h (1 Bft) SW 230 0 min 0,000 mm 0,0 UV-I 18 W/m 4,2 C 4,6 C 8,0 km/h (2 Bft) 92,59 %
09.04.2016 08:03 4,6 C 97 % 1007,6 hPa 0,0 l/m 7,1 km/h (2 Bft) W-SW 246 0 min 0,000 mm 0,0 UV-I 16 W/m 4,2 C 4,0 C 9,7 km/h (2 Bft) 100,00 %
09.04.2016 08:04 4,6 C 97 % 1007,6 hPa 0,0 l/m 5,7 km/h (1 Bft) SW 228 0 min 0,000 mm 0,0 UV-I 16 W/m 4,2 C 4,6 C 6,4 km/h (2 Bft) 96,30 %
09.04.2016 08:05 4,6 C 97 % 1007,6 hPa 0,0 l/m 4,6 km/h (1 Bft) SW 234 0 min 0,000 mm 0,0 UV-I 17 W/m 4,2 C 4,6 C 6,4 km/h (2 Bft) 96,15 %
09.04.2016 08:06 4,6 C 97 % 1007,6 hPa 0,0 l/m 4,9 km/h (1 Bft) SW 223 0 min 0,000 mm 0,0 UV-I 18 W/m 4,2 C 4,6 C 6,4 km/h (2 Bft) 96,30 %
09.04.2016 08:07 4,6 C 97 % 1007,6 hPa 0,0 l/m 5,1 km/h (1 Bft) SW 231 0 min 0,000 mm 0,0 UV-I 18 W/m 4,2 C 4,6 C 6,4 km/h (2 Bft) 100,00 %
09.04.2016 08:08 4,6 C 97 % 1007,6 hPa 0,0 l/m 4,1 km/h (1 Bft) SW 236 0 min 0,000 mm 0,0 UV-I 18 W/m 4,2 C 4,6 C 4,8 km/h (1 Bft) 95,83 %
09.04.2016 08:09 4,6 C 97 % 1007,6 hPa 0,0 l/m 3,8 km/h (1 Bft) SW 232 0 min 0,000 mm 0,0 UV-I 18 W/m 4,2 C 4,6 C 6,4 km/h (2 Bft) 100,00 %
09.04.2016 08:10 4,6 C 97 % 1007,6 hPa 0,0 l/m 3,9 km/h (1 Bft) W-SW 245 0 min 0,000 mm 0,0 UV-I 18 W/m 4,2 C 4,6 C 6,4 km/h (2 Bft) 93,33 %
09.04.2016 08:11 4,6 C 97 % 1007,6 hPa 0,0 l/m 3,3 km/h (1 Bft) SW 235 0 min 0,000 mm 0,0 UV-I 18 W/m 4,2 C 4,6 C 4,8 km/h (1 Bft) 100,00 %
09.04.2016 08:12 4,6 C 97 % 1007,6 hPa 0,0 l/m 3,9 km/h (1 Bft) W 260 0 min 0,000 mm 0,0 UV-I 18 W/m 4,2 C 4,6 C 6,4 km/h (2 Bft) 96,15 %
09.04.2016 08:13 4,6 C 97 % 1007,7 hPa 0,0 l/m 2,1 km/h (1 Bft) W-SW 254 0 min 0,000 mm 0,0 UV-I 19 W/m 4,2 C 4,6 C 3,2 km/h (1 Bft) 95,83 %
09.04.2016 08:14 4,6 C 97 % 1007,6 hPa 0,0 l/m 3,1 km/h (1 Bft) W-SW 250 0 min 0,000 mm 0,0 UV-I 19 W/m 4,2 C 4,6 C 6,4 km/h (2 Bft) 100,00 %
09.04.2016 08:15 4,6 C 97 % 1007,7 hPa 0,0 l/m 5,1 km/h (1 Bft) W-SW 253 0 min 0,000 mm 0,0 UV-I 19 W/m 4,2 C 4,6 C 8,0 km/h (2 Bft) 95,83 %
09.04.2016 08:16 4,6 C 97 % 1007,6 hPa 0,0 l/m 5,6 km/h (1 Bft) W-SW 240 0 min 0,000 mm 0,0 UV-I 19 W/m 4,2 C 4,6 C 8,0 km/h (2 Bft) 96,15 %
09.04.2016 08:17 4,7 C 97 % 1007,6 hPa 0,0 l/m 3,7 km/h (1 Bft) W-SW 240 0 min 0,000 mm 0,0 UV-I 20 W/m 4,3 C 4,7 C 6,4 km/h (2 Bft) 96,30 %
09.04.2016 08:18 4,7 C 97 % 1007,6 hPa 0,0 l/m 4,4 km/h (1 Bft) SW 218 0 min 0,000 mm 0,0 UV-I 21 W/m 4,3 C 4,7 C 4,8 km/h (1 Bft) 100,00 %
09.04.2016 08:19 4,7 C 97 % 1007,6 hPa 0,0 l/m 5,7 km/h (1 Bft) S-SW 209 0 min 0,000 mm 0,0 UV-I 23 W/m 4,3 C 4,7 C 8,0 km/h (2 Bft) 91,67 %
09.04.2016 08:20 4,7 C 97 % 1007,6 hPa 0,0 l/m 5,1 km/h (1 Bft) S-SW 209 0 min 0,000 mm 0,0 UV-I 25 W/m 4,3 C 4,7 C 6,4 km/h (2 Bft) 100,00 %
09.04.2016 08:21 4,7 C 97 % 1007,6 hPa 0,0 l/m 3,4 km/h (1 Bft) SW 224 0 min 0,000 mm 0,0 UV-I 25 W/m 4,3 C 4,7 C 4,8 km/h (1 Bft) 95,83 %
09.04.2016 08:22 4,7 C 97 % 1007,6 hPa 0,0 l/m 4,2 km/h (1 Bft) S-SW 203 0 min 0,000 mm 0,0 UV-I 25 W/m 4,3 C 4,7 C 6,4 km/h (2 Bft) 100,00 %
09.04.2016 08:23 4,7 C 97 % 1007,6 hPa 0,0 l/m 4,3 km/h (1 Bft) SW 219 0 min 0,000 mm 0,0 UV-I 24 W/m 4,3 C 4,7 C 6,4 km/h (2 Bft) 96,30 %
09.04.2016 08:24 4,7 C 97 % 1007,6 hPa 0,0 l/m 5,1 km/h (1 Bft) SW 234 0 min 0,000 mm 0,0 UV-I 23 W/m 4,3 C 4,7 C 6,4 km/h (2 Bft) 91,30 %
09.04.2016 08:25 4,6 C 97 % 1007,6 hPa 0,0 l/m 3,5 km/h (1 Bft) S-SW 198 0 min 0,000 mm 0,0 UV-I 23 W/m 4,2 C 4,6 C 4,8 km/h (1 Bft) 100,00 %
09.04.2016 08:26 4,6 C 97 % 1007,7 hPa 0,0 l/m 4,7 km/h (1 Bft) SW 224 0 min 0,000 mm 0,0 UV-I 23 W/m 4,2 C 4,6 C 8,0 km/h (2 Bft) 91,67 %
09.04.2016 08:27 4,7 C 97 % 1007,6 hPa 0,0 l/m 5,8 km/h (2 Bft) SW 234 0 min 0,000 mm 0,0 UV-I 23 W/m 4,3 C 4,7 C 8,0 km/h (2 Bft) 100,00 %
09.04.2016 08:28 4,7 C 97 % 1007,6 hPa 0,0 l/m 3,3 km/h (1 Bft) SW 228 0 min 0,000 mm 0,0 UV-I 24 W/m 4,3 C 4,7 C 6,4 km/h (2 Bft) 95,83 %
09.04.2016 08:29 4,7 C 97 % 1007,6 hPa 0,2 l/m 3,5 km/h (1 Bft) S-SW 192 0 min 0,000 mm 0,0 UV-I 26 W/m 4,3 C 4,7 C 4,8 km/h (1 Bft) 100,00 %
09.04.2016 08:30 4,7 C 97 % 1007,6 hPa 0,0 l/m 4,7 km/h (1 Bft) S-SW 193 0 min 0,000 mm 0,0 UV-I 28 W/m 4,3 C 4,7 C 8,0 km/h (2 Bft) 96,30 %
09.04.2016 08:31 4,7 C 97 % 1007,6 hPa 0,0 l/m 4,4 km/h (1 Bft) SW 218 0 min 0,000 mm 0,0 UV-I 30 W/m 4,3 C 4,7 C 6,4 km/h (2 Bft) 96,15 %
09.04.2016 08:32 4,6 C 97 % 1007,6 hPa 0,0 l/m 5,0 km/h (1 Bft) S-SW 213 0 min 0,000 mm 0,0 UV-I 32 W/m 4,2 C 4,6 C 8,0 km/h (2 Bft) 100,00 %
09.04.2016 08:33 4,6 C 97 % 1007,6 hPa 0,0 l/m 6,3 km/h (2 Bft) SW 235 0 min 0,000 mm 0,0 UV-I 34 W/m 4,2 C 4,6 C 8,0 km/h (2 Bft) 94,12 %
09.04.2016 08:34 4,6 C 97 % 1007,7 hPa 0,0 l/m 7,1 km/h (2 Bft) SW 222 0 min 0,000 mm 0,0 UV-I 34 W/m 4,2 C 4,0 C 11,3 km/h (2 Bft) 100,00 %
09.04.2016 08:35 4,7 C 97 % 1007,6 hPa 0,0 l/m 6,3 km/h (2 Bft) SW 232 0 min 0,000 mm 0,0 UV-I 33 W/m 4,3 C 4,7 C 8,0 km/h (2 Bft) 96,15 %
09.04.2016 08:36 4,7 C 97 % 1007,6 hPa 0,0 l/m 8,4 km/h (2 Bft) SW 226 0 min 0,000 mm 0,0 UV-I 32 W/m 4,3 C 3,0 C 11,3 km/h (2 Bft) 100,00 %
09.04.2016 08:37 4,7 C 97 % 1007,7 hPa 0,0 l/m 5,2 km/h (1 Bft) SW 216 0 min 0,000 mm 0,0 UV-I 32 W/m 4,3 C 4,7 C 8,0 km/h (2 Bft) 100,00 %
09.04.2016 08:38 4,7 C 97 % 1007,7 hPa 0,0 l/m 6,4 km/h (2 Bft) W-SW 257 0 min 0,000 mm 0,0 UV-I 30 W/m 4,3 C 4,7 C 8,0 km/h (2 Bft) 100,00 %
09.04.2016 08:39 4,7 C 97 % 1007,6 hPa 0,0 l/m 6,3 km/h (2 Bft) SW 229 0 min 0,000 mm 0,0 UV-I 30 W/m 4,3 C 4,7 C 9,7 km/h (2 Bft) 100,00 %
09.04.2016 08:40 4,7 C 97 % 1007,6 hPa 0,0 l/m 6,9 km/h (2 Bft) W-SW 240 0 min 0,000 mm 0,0 UV-I 31 W/m 4,3 C 4,3 C 9,7 km/h (2 Bft) 100,00 %
09.04.2016 08:41 4,7 C 97 % 1007,6 hPa 0,0 l/m 8,5 km/h (2 Bft) SW 232 0 min 0,000 mm 0,0 UV-I 32 W/m 4,3 C 2,9 C 11,3 km/h (2 Bft) 95,65 %
09.04.2016 08:42 4,7 C 97 % 1007,6 hPa 0,0 l/m 7,1 km/h (2 Bft) SW 229 0 min 0,000 mm 0,0 UV-I 33 W/m 4,3 C 4,1 C 11,3 km/h (2 Bft) 100,00 %
09.04.2016 08:43 4,7 C 97 % 1007,6 hPa 0,0 l/m 4,6 km/h (1 Bft) SW 236 0 min 0,000 mm 0,0 UV-I 35 W/m 4,3 C 4,7 C 8,0 km/h (2 Bft) 100,00 %
09.04.2016 08:44 4,7 C 97 % 1007,7 hPa 0,0 l/m 8,4 km/h (2 Bft) SW 227 0 min 0,000 mm 0,0 UV-I 37 W/m 4,3 C 3,0 C 11,3 km/h (2 Bft) 96,15 %
09.04.2016 08:45 4,7 C 97 % 1007,6 hPa 0,0 l/m 5,0 km/h (1 Bft) SW 227 0 min 0,000 mm 0,0 UV-I 39 W/m 4,3 C 4,7 C 8,0 km/h (2 Bft) 100,00 %
09.04.2016 08:46 4,7 C 97 % 1007,6 hPa 0,0 l/m 7,1 km/h (2 Bft) SW 226 0 min 0,000 mm 0,0 UV-I 41 W/m 4,3 C 4,1 C 11,3 km/h (2 Bft) 100,00 %
09.04.2016 08:47 4,8 C 97 % 1007,6 hPa 0,0 l/m 7,2 km/h (2 Bft) SW 235 0 min 0,000 mm 0,0 UV-I 42 W/m 4,4 C 4,1 C 8,0 km/h (2 Bft) 100,00 %
09.04.2016 08:48 4,7 C 97 % 1007,6 hPa 0,0 l/m 7,5 km/h (2 Bft) W 263 0 min 0,000 mm 0,0 UV-I 43 W/m 4,3 C 3,7 C 12,9 km/h (3 Bft) 95,65 %
09.04.2016 08:49 4,8 C 97 % 1007,6 hPa 0,0 l/m 8,4 km/h (2 Bft) S-SW 200 0 min 0,000 mm 0,0 UV-I 44 W/m 4,4 C 3,1 C 11,3 km/h (2 Bft) 100,00 %
09.04.2016 08:50 4,8 C 97 % 1007,6 hPa 0,0 l/m 6,3 km/h (2 Bft) W-SW 243 0 min 0,000 mm 0,0 UV-I 46 W/m 4,4 C 4,8 C 8,0 km/h (2 Bft) 95,65 %
09.04.2016 08:51 4,8 C 97 % 1007,5 hPa 0,0 l/m 5,3 km/h (1 Bft) W 262 0 min 0,000 mm 0,0 UV-I 48 W/m 4,4 C 4,8 C 9,7 km/h (2 Bft) 100,00 %
09.04.2016 08:52 4,8 C 97 % 1007,5 hPa 0,0 l/m 6,6 km/h (2 Bft) W-SW 238 0 min 0,000 mm 0,0 UV-I 51 W/m 4,4 C 4,6 C 9,7 km/h (2 Bft) 100,00 %
09.04.2016 08:53 4,8 C 97 % 1007,5 hPa 0,0 l/m 6,2 km/h (2 Bft) SW 219 0 min 0,000 mm 0,0 UV-I 55 W/m 4,4 C 4,8 C 8,0 km/h (2 Bft) 100,00 %
09.04.2016 08:54 4,8 C 97 % 1007,5 hPa 0,0 l/m 7,7 km/h (2 Bft) W-SW 242 0 min 0,000 mm 0,0 UV-I 60 W/m 4,4 C 3,6 C 14,5 km/h (3 Bft) 100,00 %
09.04.2016 08:55 4,8 C 97 % 1007,5 hPa 0,0 l/m 8,5 km/h (2 Bft) SW 219 0 min 0,000 mm 0,0 UV-I 63 W/m 4,4 C 3,0 C 11,3 km/h (2 Bft) 100,00 %
09.04.2016 08:56 4,8 C 97 % 1007,5 hPa 0,0 l/m 7,7 km/h (2 Bft) SW 223 0 min 0,000 mm 0,0 UV-I 69 W/m 4,4 C 3,6 C 11,3 km/h (2 Bft) 98,52 %
09.04.2016 08:57 4,8 C 97 % 1007,5 hPa 0,0 l/m 5,6 km/h (1 Bft) W-SW 247 0 min 0,000 mm 0,0 UV-I 71 W/m 4,4 C 4,8 C 6,4 km/h (2 Bft) 100,00 %
09.04.2016 08:58 4,8 C 97 % 1007,5 hPa 0,0 l/m 6,5 km/h (2 Bft) S 187 0 min 0,000 mm 0,0 UV-I 72 W/m 4,4 C 4,7 C 9,7 km/h (2 Bft) 100,00 %
09.04.2016 08:59 4,8 C 97 % 1007,5 hPa 0,0 l/m 5,3 km/h (1 Bft) S-SW 204 0 min 0,000 mm 0,0 UV-I 71 W/m 4,4 C 4,8 C 8,0 km/h (2 Bft) 100,00 %
09.04.2016 09:00 4,8 C 97 % 1007,5 hPa 0,0 l/m 6,0 km/h (2 Bft) SW 216 0 min 0,025 mm 0,0 UV-I 70 W/m 4,4 C 4,8 C 8,0 km/h (2 Bft) 100,00 %
09.04.2016 09:01 4,8 C 97 % 1007,5 hPa 0,0 l/m 6,8 km/h (2 Bft) SW 231 0 min 0,000 mm 0,0 UV-I 70 W/m 4,4 C 4,5 C 9,7 km/h (2 Bft) 100,00 %
09.04.2016 09:02 4,8 C 97 % 1007,5 hPa 0,0 l/m 10,1 km/h (2 Bft) SW 233 0 min 0,000 mm 0,0 UV-I 73 W/m 4,4 C 1,8 C 14,5 km/h (3 Bft) 100,00 %
09.04.2016 09:03 4,8 C 97 % 1007,5 hPa 0,0 l/m 8,0 km/h (2 Bft) SW 227 0 min 0,000 mm 0,0 UV-I 78 W/m 4,4 C 3,4 C 12,9 km/h (3 Bft) 100,00 %
09.04.2016 09:04 4,8 C 97 % 1007,4 hPa 0,0 l/m 6,4 km/h (2 Bft) SW 223 0 min 0,000 mm 0,0 UV-I 81 W/m 4,4 C 4,8 C 8,0 km/h (2 Bft) 96,15 %
09.04.2016 09:05 4,9 C 97 % 1007,4 hPa 0,0 l/m 6,0 km/h (2 Bft) S-SW 207 0 min 0,000 mm 0,0 UV-I 87 W/m 4,5 C 4,9 C 12,9 km/h (3 Bft) 100,00 %
09.04.2016 09:06 4,9 C 97 % 1007,4 hPa 0,0 l/m 4,1 km/h (1 Bft) SW 225 0 min 0,000 mm 0,0 UV-I 90 W/m 4,5 C 4,9 C 6,4 km/h (2 Bft) 100,00 %
09.04.2016 09:07 4,9 C 97 % 1007,4 hPa 0,0 l/m 8,2 km/h (2 Bft) S-SW 211 0 min 0,000 mm 0,0 UV-I 90 W/m 4,5 C 3,3 C 12,9 km/h (3 Bft) 100,00 %
09.04.2016 09:08 4,9 C 97 % 1007,4 hPa 0,0 l/m 9,5 km/h (2 Bft) W-SW 240 0 min 0,000 mm 0,0 UV-I 87 W/m 4,5 C 2,3 C 12,9 km/h (3 Bft) 100,00 %
09.04.2016 09:09 5,0 C 97 % 1007,4 hPa 0,0 l/m 8,0 km/h (2 Bft) W-SW 246 0 min 0,000 mm 0,0 UV-I 84 W/m 4,6 C 3,6 C 11,3 km/h (2 Bft) 95,65 %
09.04.2016 09:10 5,1 C 97 % 1007,4 hPa 0,0 l/m 9,3 km/h (2 Bft) S-SW 212 0 min 0,000 mm 0,0 UV-I 83 W/m 4,7 C 2,7 C 12,9 km/h (3 Bft) 100,00 %
09.04.2016 09:11 5,1 C 97 % 1007,4 hPa 0,0 l/m 12,0 km/h (2 Bft) SW 232 0 min 0,000 mm 0,0 UV-I 84 W/m 4,7 C 0,9 C 16,1 km/h (3 Bft) 100,00 %
09.04.2016 09:12 5,1 C 97 % 1007,4 hPa 0,0 l/m 9,9 km/h (2 Bft) SW 232 0 min 0,000 mm 0,0 UV-I 88 W/m 4,7 C 2,3 C 14,5 km/h (3 Bft) 100,00 %
09.04.2016 09:13 5,1 C 97 % 1007,4 hPa 0,0 l/m 10,7 km/h (2 Bft) SW 236 0 min 0,000 mm 0,0 UV-I 90 W/m 4,7 C 1,7 C 14,5 km/h (3 Bft) 96,67 %
09.04.2016 09:14 5,1 C 97 % 1007,4 hPa 0,0 l/m 9,0 km/h (2 Bft) S 188 0 min 0,000 mm 0,0 UV-I 91 W/m 4,7 C 2,9 C 12,9 km/h (3 Bft) 100,00 %
09.04.2016 09:15 5,1 C 97 % 1007,4 hPa 0,0 l/m 7,6 km/h (2 Bft) SW 215 0 min 0,000 mm 0,0 UV-I 94 W/m 4,7 C 4,0 C 11,3 km/h (2 Bft) 100,00 %
09.04.2016 09:16 5,1 C 97 % 1007,4 hPa 0,0 l/m 9,6 km/h (2 Bft) SW 229 0 min 0,000 mm 0,0 UV-I 95 W/m 4,7 C 2,5 C 16,1 km/h (3 Bft) 100,00 %
09.04.2016 09:17 5,1 C 97 % 1007,3 hPa 0,0 l/m 8,8 km/h (2 Bft) S-SW 212 0 min 0,000 mm 0,0 UV-I 92 W/m 4,7 C 3,1 C 14,5 km/h (3 Bft) 100,00 %
09.04.2016 09:18 5,1 C 97 % 1007,4 hPa 0,0 l/m 5,6 km/h (1 Bft) S-SW 201 0 min 0,000 mm 0,0 UV-I 88 W/m 4,7 C 5,1 C 9,7 km/h (2 Bft) 100,00 %
09.04.2016 09:19 5,1 C 97 % 1007,3 hPa 0,0 l/m 9,2 km/h (2 Bft) W-SW 258 0 min 0,000 mm 0,0 UV-I 86 W/m 4,7 C 2,8 C 12,9 km/h (3 Bft) 92,86 %
09.04.2016 09:20 5,1 C 97 % 1007,4 hPa 0,0 l/m 6,8 km/h (2 Bft) S 177 0 min 0,000 mm 0,0 UV-I 84 W/m 4,7 C 4,8 C 11,3 km/h (2 Bft) 100,00 %
09.04.2016 09:21 5,1 C 97 % 1007,3 hPa 0,0 l/m 5,4 km/h (1 Bft) W-SW 238 0 min 0,000 mm 0,0 UV-I 83 W/m 4,7 C 5,1 C 8,0 km/h (2 Bft) 100,00 %
09.04.2016 09:22 5,1 C 97 % 1007,3 hPa 0,0 l/m 5,5 km/h (1 Bft) W-SW 250 0 min 0,000 mm 0,0 UV-I 84 W/m 4,7 C 5,1 C 8,0 km/h (2 Bft) 100,00 %
09.04.2016 09:23 5,2 C 97 % 1007,3 hPa 0,0 l/m 8,0 km/h (2 Bft) SW 224 0 min 0,000 mm 0,0 UV-I 89 W/m 4,8 C 3,8 C 11,3 km/h (2 Bft) 100,00 %
09.04.2016 09:24 5,2 C 97 % 1007,3 hPa 0,0 l/m 7,8 km/h (2 Bft) W-SW 244 0 min 0,000 mm 0,0 UV-I 93 W/m 4,8 C 4,0 C 12,9 km/h (3 Bft) 100,00 %
09.04.2016 09:25 5,2 C 97 % 1007,3 hPa 0,0 l/m 6,0 km/h (2 Bft) S-SW 200 0 min 0,000 mm 0,0 UV-I 97 W/m 4,8 C 5,2 C 11,3 km/h (2 Bft) 96,15 %
09.04.2016 09:26 5,2 C 96 % 1007,3 hPa 0,0 l/m 5,3 km/h (1 Bft) SW 229 0 min 0,000 mm 0,0 UV-I 98 W/m 4,6 C 5,2 C 8,0 km/h (2 Bft) 93,33 %
09.04.2016 09:27 5,2 C 96 % 1007,3 hPa 0,0 l/m 6,0 km/h (2 Bft) SW 227 0 min 0,000 mm 0,0 UV-I 98 W/m 4,6 C 5,2 C 8,0 km/h (2 Bft) 92,59 %
09.04.2016 09:28 5,2 C 97 % 1007,3 hPa 0,0 l/m 4,4 km/h (1 Bft) S-SW 207 0 min 0,000 mm 0,0 UV-I 97 W/m 4,8 C 5,2 C 6,4 km/h (2 Bft) 100,00 %
09.04.2016 09:29 5,3 C 97 % 1007,3 hPa 0,0 l/m 3,7 km/h (1 Bft) SW 220 0 min 0,000 mm 0,0 UV-I 96 W/m 4,9 C 5,3 C 6,4 km/h (2 Bft) 93,33 %
09.04.2016 09:30 5,3 C 96 % 1007,3 hPa 0,0 l/m 3,8 km/h (1 Bft) SW 227 0 min 0,000 mm 0,0 UV-I 90 W/m 4,7 C 5,3 C 6,4 km/h (2 Bft) 100,00 %
09.04.2016 09:31 5,2 C 96 % 1007,4 hPa 0,0 l/m 6,9 km/h (2 Bft) S-SW 203 0 min 0,000 mm 0,0 UV-I 88 W/m 4,6 C 4,8 C 11,3 km/h (2 Bft) 100,00 %
09.04.2016 09:32 5,2 C 96 % 1007,4 hPa 0,0 l/m 4,7 km/h (1 Bft) S-SW 198 0 min 0,000 mm 0,0 UV-I 86 W/m 4,6 C 5,2 C 6,4 km/h (2 Bft) 100,00 %
09.04.2016 09:33 5,2 C 96 % 1007,4 hPa 0,0 l/m 2,4 km/h (1 Bft) SW 214 0 min 0,000 mm 0,0 UV-I 86 W/m 4,6 C 5,2 C 4,8 km/h (1 Bft) 93,33 %
09.04.2016 09:34 5,2 C 96 % 1007,4 hPa 0,0 l/m 5,0 km/h (1 Bft) S-SW 204 0 min 0,000 mm 0,0 UV-I 85 W/m 4,6 C 5,2 C 6,4 km/h (2 Bft) 100,00 %
09.04.2016 09:35 5,3 C 96 % 1007,4 hPa 0,0 l/m 5,7 km/h (1 Bft) S-SW 196 0 min 0,000 mm 0,0 UV-I 82 W/m 4,7 C 5,3 C 8,0 km/h (2 Bft) 100,00 %
09.04.2016 09:36 5,3 C 96 % 1007,4 hPa 0,0 l/m 3,5 km/h (1 Bft) S-SW 213 0 min 0,000 mm 0,0 UV-I 74 W/m 4,7 C 5,3 C 8,0 km/h (2 Bft) 100,00 %
09.04.2016 09:37 5,3 C 96 % 1007,4 hPa 0,0 l/m 3,8 km/h (1 Bft) W-SW 246 0 min 0,000 mm 0,0 UV-I 68 W/m 4,7 C 5,3 C 4,8 km/h (1 Bft) 100,00 %
09.04.2016 09:38 5,3 C 96 % 1007,4 hPa 0,0 l/m 2,6 km/h (1 Bft) W-SW 241 0 min 0,000 mm 0,0 UV-I 63 W/m 4,7 C 5,3 C 4,8 km/h (1 Bft) 100,00 %
09.04.2016 09:39 5,3 C 96 % 1007,4 hPa 0,0 l/m 2,5 km/h (1 Bft) S-SW 210 0 min 0,000 mm 0,0 UV-I 61 W/m 4,7 C 5,3 C 3,2 km/h (1 Bft) 100,00 %
09.04.2016 09:40 5,3 C 96 % 1007,5 hPa 0,0 l/m 4,2 km/h (1 Bft) W-SW 240 0 min 0,000 mm 0,0 UV-I 58 W/m 4,7 C 5,3 C 6,4 km/h (2 Bft) 100,00 %
09.04.2016 09:41 5,3 C 96 % 1007,5 hPa 0,0 l/m 5,9 km/h (2 Bft) W 265 0 min 0,000 mm 0,0 UV-I 58 W/m 4,7 C 5,3 C 9,7 km/h (2 Bft) 100,00 %
09.04.2016 09:44 5,4 C 96 % 1007,5 hPa 0,0 l/m 6,9 km/h (2 Bft) W-SW 243 0 min 0,000 mm 0,0 UV-I 65 W/m 4,8 C 5,0 C 11,3 km/h (2 Bft) 98,84 %
09.04.2016 09:45 5,4 C 96 % 1007,5 hPa 0,0 l/m 9,9 km/h (2 Bft) SW 231 0 min 0,000 mm 0,0 UV-I 68 W/m 4,8 C 2,6 C 12,9 km/h (3 Bft) 100,00 %
09.04.2016 09:46 5,4 C 96 % 1007,5 hPa 0,0 l/m 10,1 km/h (2 Bft) W 263 0 min 0,000 mm 0,0 UV-I 70 W/m 4,8 C 2,4 C 12,9 km/h (3 Bft) 100,00 %
09.04.2016 09:47 5,4 C 96 % 1007,5 hPa 0,0 l/m 9,6 km/h (2 Bft) W 263 0 min 0,000 mm 0,0 UV-I 72 W/m 4,8 C 2,8 C 14,5 km/h (3 Bft) 95,65 %
09.04.2016 09:48 5,4 C 96 % 1007,4 hPa 0,0 l/m 10,9 km/h (2 Bft) W-SW 250 0 min 0,000 mm 0,0 UV-I 70 W/m 4,8 C 1,9 C 16,1 km/h (3 Bft) 100,00 %
09.04.2016 09:49 5,3 C 96 % 1007,5 hPa 0,0 l/m 9,3 km/h (2 Bft) SW 235 0 min 0,000 mm 0,0 UV-I 73 W/m 4,7 C 2,9 C 14,5 km/h (3 Bft) 96,15 %
09.04.2016 09:50 5,3 C 96 % 1007,5 hPa 0,0 l/m 9,0 km/h (2 Bft) SW 223 0 min 0,000 mm 0,0 UV-I 75 W/m 4,7 C 3,1 C 12,9 km/h (3 Bft) 100,00 %
09.04.2016 09:51 5,3 C 96 % 1007,5 hPa 0,0 l/m 11,8 km/h (2 Bft) SW 235 0 min 0,000 mm 0,0 UV-I 82 W/m 4,7 C 1,2 C 14,5 km/h (3 Bft) 100,00 %
09.04.2016 09:52 5,3 C 96 % 1007,5 hPa 0,0 l/m 10,0 km/h (2 Bft) S-SW 202 0 min 0,000 mm 0,2 UV-I 91 W/m 4,7 C 2,4 C 12,9 km/h (3 Bft) 100,00 %
09.04.2016 09:53 5,3 C 96 % 1007,5 hPa 0,0 l/m 9,3 km/h (2 Bft) W-SW 255 0 min 0,000 mm 0,5 UV-I 105 W/m 4,7 C 2,9 C 14,5 km/h (3 Bft) 100,00 %
09.04.2016 09:54 5,4 C 96 % 1007,5 hPa 0,0 l/m 8,9 km/h (2 Bft) W-SW 246 0 min 0,000 mm 0,5 UV-I 117 W/m 4,8 C 3,3 C 12,9 km/h (3 Bft) 100,00 %
09.04.2016 09:55 5,4 C 96 % 1007,5 hPa 0,0 l/m 6,8 km/h (2 Bft) W-SW 246 0 min 0,000 mm 0,5 UV-I 121 W/m 4,8 C 5,1 C 11,3 km/h (2 Bft) 100,00 %
09.04.2016 09:56 5,4 C 96 % 1007,5 hPa 0,0 l/m 9,6 km/h (2 Bft) W-SW 244 0 min 0,000 mm 0,5 UV-I 117 W/m 4,8 C 2,8 C 16,1 km/h (3 Bft) 98,62 %
09.04.2016 09:57 5,4 C 96 % 1007,5 hPa 0,0 l/m 9,2 km/h (2 Bft) SW 224 0 min 0,000 mm 0,5 UV-I 108 W/m 4,8 C 3,1 C 12,9 km/h (3 Bft) 100,00 %
09.04.2016 09:58 5,4 C 96 % 1007,5 hPa 0,0 l/m 9,9 km/h (2 Bft) SW 234 0 min 0,000 mm 0,2 UV-I 98 W/m 4,8 C 2,6 C 14,5 km/h (3 Bft) 100,00 %
09.04.2016 09:59 5,4 C 96 % 1007,5 hPa 0,0 l/m 11,7 km/h (2 Bft) SW 232 0 min 0,000 mm 0,0 UV-I 89 W/m 4,8 C 1,4 C 14,5 km/h (3 Bft) 100,00 %
09.04.2016 10:00 5,4 C 96 % 1007,6 hPa 0,0 l/m 9,0 km/h (2 Bft) SW 236 0 min 0,000 mm 0,0 UV-I 78 W/m 4,8 C 3,2 C 14,5 km/h (3 Bft) 98,63 %
09.04.2016 10:01 5,4 C 96 % 1007,5 hPa 0,0 l/m 10,4 km/h (2 Bft) W-SW 238 0 min 0,026 mm 0,0 UV-I 73 W/m 4,8 C 2,2 C 14,5 km/h (3 Bft) 100,00 %
09.04.2016 10:02 5,4 C 96 % 1007,6 hPa 0,0 l/m 9,0 km/h (2 Bft) W-SW 245 0 min 0,000 mm 0,0 UV-I 70 W/m 4,8 C 3,2 C 14,5 km/h (3 Bft) 100,00 %
09.04.2016 10:03 5,4 C 96 % 1007,5 hPa 0,0 l/m 5,7 km/h (1 Bft) S-SW 202 0 min 0,000 mm 0,0 UV-I 69 W/m 4,8 C 5,4 C 8,0 km/h (2 Bft) 92,31 %
09.04.2016 10:04 5,5 C 96 % 1007,6 hPa 0,0 l/m 7,9 km/h (2 Bft) W 261 0 min 0,000 mm 0,0 UV-I 69 W/m 4,9 C 4,2 C 12,9 km/h (3 Bft) 95,83 %
09.04.2016 10:05 5,5 C 96 % 1007,5 hPa 0,0 l/m 7,4 km/h (2 Bft) SW 228 0 min 0,000 mm 0,0 UV-I 69 W/m 4,9 C 4,6 C 11,3 km/h (2 Bft) 95,65 %
09.04.2016 10:06 5,5 C 96 % 1007,5 hPa 0,0 l/m 7,8 km/h (2 Bft) S 191 0 min 0,000 mm 0,0 UV-I 67 W/m 4,9 C 4,3 C 12,9 km/h (3 Bft) 96,30 %
09.04.2016 10:07 5,5 C 96 % 1007,6 hPa 0,0 l/m 5,9 km/h (2 Bft) S-SW 209 0 min 0,000 mm 0,0 UV-I 66 W/m 4,9 C 5,5 C 8,0 km/h (2 Bft) 100,00 %
09.04.2016 10:08 5,5 C 96 % 1007,6 hPa 0,0 l/m 6,0 km/h (2 Bft) SW 220 0 min 0,000 mm 0,0 UV-I 66 W/m 4,9 C 5,5 C 9,7 km/h (2 Bft) 93,33 %
09.04.2016 10:09 5,5 C 96 % 1007,5 hPa 0,0 l/m 6,2 km/h (2 Bft) S 188 0 min 0,000 mm 0,0 UV-I 68 W/m 4,9 C 5,5 C 9,7 km/h (2 Bft) 100,00 %
09.04.2016 10:10 5,4 C 96 % 1007,5 hPa 0,0 l/m 5,1 km/h (1 Bft) W-SW 245 0 min 0,000 mm 0,0 UV-I 69 W/m 4,8 C 5,4 C 8,0 km/h (2 Bft) 96,15 %
09.04.2016 10:11 5,4 C 96 % 1007,6 hPa 0,0 l/m 8,4 km/h (2 Bft) W 277 0 min 0,000 mm 0,0 UV-I 70 W/m 4,8 C 3,7 C 11,3 km/h (2 Bft) 100,00 %
09.04.2016 10:12 5,4 C 95 % 1007,6 hPa 0,0 l/m 9,0 km/h (2 Bft) W-SW 250 0 min 0,000 mm 0,0 UV-I 70 W/m 4,7 C 3,2 C 14,5 km/h (3 Bft) 92,86 %
09.04.2016 10:13 5,4 C 95 % 1007,5 hPa 0,0 l/m 7,1 km/h (2 Bft) W-SW 242 0 min 0,000 mm 0,0 UV-I 70 W/m 4,7 C 4,8 C 9,7 km/h (2 Bft) 100,00 %
09.04.2016 10:14 5,4 C 95 % 1007,6 hPa 0,0 l/m 8,7 km/h (2 Bft) S-SW 200 0 min 0,000 mm 0,0 UV-I 69 W/m 4,7 C 3,5 C 12,9 km/h (3 Bft) 96,15 %
09.04.2016 10:15 5,4 C 95 % 1007,5 hPa 0,0 l/m 7,1 km/h (2 Bft) W-SW 244 0 min 0,000 mm 0,0 UV-I 69 W/m 4,7 C 4,8 C 9,7 km/h (2 Bft) 100,00 %
09.04.2016 10:16 5,5 C 96 % 1007,6 hPa 0,0 l/m 9,0 km/h (2 Bft) SW 217 0 min 0,000 mm 0,0 UV-I 68 W/m 4,9 C 3,3 C 12,9 km/h (3 Bft) 96,55 %
09.04.2016 10:17 5,5 C 96 % 1007,6 hPa 0,0 l/m 8,3 km/h (2 Bft) W-SW 252 0 min 0,000 mm 0,0 UV-I 67 W/m 4,9 C 3,9 C 12,9 km/h (3 Bft) 93,33 %
09.04.2016 10:18 5,5 C 96 % 1007,5 hPa 0,0 l/m 8,8 km/h (2 Bft) W-SW 242 0 min 0,000 mm 0,0 UV-I 69 W/m 4,9 C 3,5 C 12,9 km/h (3 Bft) 96,15 %
09.04.2016 10:19 5,5 C 96 % 1007,5 hPa 0,0 l/m 12,9 km/h (3 Bft) SW 231 0 min 0,000 mm 0,0 UV-I 69 W/m 4,9 C 0,8 C 16,1 km/h (3 Bft) 95,83 %
09.04.2016 10:20 5,5 C 96 % 1007,5 hPa 0,0 l/m 7,7 km/h (2 Bft) W-SW 240 0 min 0,000 mm 0,0 UV-I 70 W/m 4,9 C 4,4 C 11,3 km/h (2 Bft) 95,65 %
09.04.2016 10:21 5,6 C 96 % 1007,5 hPa 0,0 l/m 7,7 km/h (2 Bft) W-SW 245 0 min 0,000 mm 0,0 UV-I 69 W/m 5,0 C 4,5 C 9,7 km/h (2 Bft) 93,33 %
09.04.2016 10:22 5,5 C 96 % 1007,5 hPa 0,0 l/m 7,2 km/h (2 Bft) W-SW 240 0 min 0,000 mm 0,0 UV-I 69 W/m 4,9 C 4,8 C 12,9 km/h (3 Bft) 97,37 %
09.04.2016 10:23 5,5 C 95 % 1007,5 hPa 0,0 l/m 8,0 km/h (2 Bft) SW 229 0 min 0,000 mm 0,0 UV-I 65 W/m 4,8 C 4,1 C 12,9 km/h (3 Bft) 100,00 %
09.04.2016 10:24 5,5 C 95 % 1007,5 hPa 0,0 l/m 7,0 km/h (2 Bft) S-SW 213 0 min 0,000 mm 0,0 UV-I 64 W/m 4,8 C 5,0 C 11,3 km/h (2 Bft) 100,00 %
09.04.2016 10:25 5,6 C 95 % 1007,5 hPa 0,0 l/m 6,4 km/h (2 Bft) SW 228 0 min 0,000 mm 0,0 UV-I 63 W/m 4,9 C 5,6 C 9,7 km/h (2 Bft) 96,55 %
09.04.2016 10:26 5,5 C 95 % 1007,5 hPa 0,0 l/m 5,8 km/h (2 Bft) SW 220 0 min 0,000 mm 0,0 UV-I 60 W/m 4,8 C 5,5 C 9,7 km/h (2 Bft) 95,83 %
09.04.2016 10:27 5,6 C 95 % 1007,5 hPa 0,0 l/m 5,5 km/h (1 Bft) W-SW 242 0 min 0,000 mm 0,0 UV-I 55 W/m 4,9 C 5,6 C 9,7 km/h (2 Bft) 100,00 %
09.04.2016 10:28 5,5 C 95 % 1007,5 hPa 0,0 l/m 7,4 km/h (2 Bft) W 261 0 min 0,000 mm 0,0 UV-I 53 W/m 4,8 C 4,6 C 9,7 km/h (2 Bft) 83,33 %
09.04.2016 10:29 5,6 C 95 % 1007,5 hPa 0,0 l/m 6,9 km/h (2 Bft) W-SW 246 0 min 0,000 mm 0,0 UV-I 53 W/m 4,9 C 5,2 C 8,0 km/h (2 Bft) 100,00 %
09.04.2016 10:30 5,6 C 95 % 1007,5 hPa 0,0 l/m 8,0 km/h (2 Bft) W 261 0 min 0,000 mm 0,0 UV-I 53 W/m 4,9 C 4,2 C 12,9 km/h (3 Bft) 96,30 %
09.04.2016 10:31 5,6 C 95 % 1007,5 hPa 0,0 l/m 8,5 km/h (2 Bft) W-SW 246 0 min 0,000 mm 0,0 UV-I 53 W/m 4,9 C 3,8 C 12,9 km/h (3 Bft) 98,51 %
09.04.2016 10:32 5,6 C 95 % 1007,5 hPa 0,0 l/m 4,8 km/h (1 Bft) W-SW 252 0 min 0,000 mm 0,0 UV-I 54 W/m 4,9 C 5,6 C 6,4 km/h (2 Bft) 97,56 %
09.04.2016 10:33 5,6 C 95 % 1007,5 hPa 0,0 l/m 4,8 km/h (1 Bft) W-NW 300 0 min 0,000 mm 0,0 UV-I 54 W/m 4,9 C 5,6 C 6,4 km/h (2 Bft) 95,65 %
09.04.2016 10:34 5,6 C 96 % 1007,5 hPa 0,0 l/m 5,2 km/h (1 Bft) W 263 0 min 0,000 mm 0,0 UV-I 58 W/m 5,0 C 5,6 C 6,4 km/h (2 Bft) 96,30 %
09.04.2016 10:35 5,6 C 96 % 1007,4 hPa 0,0 l/m 5,7 km/h (1 Bft) W-SW 252 0 min 0,000 mm 0,0 UV-I 63 W/m 5,0 C 5,6 C 8,0 km/h (2 Bft) 91,30 %
09.04.2016 10:36 5,6 C 96 % 1007,4 hPa 0,0 l/m 8,7 km/h (2 Bft) SW 220 0 min 0,000 mm 0,0 UV-I 69 W/m 5,0 C 3,7 C 12,9 km/h (3 Bft) 100,00 %
09.04.2016 10:37 5,6 C 95 % 1007,4 hPa 0,0 l/m 9,6 km/h (2 Bft) W-SW 252 0 min 0,000 mm 0,0 UV-I 74 W/m 4,9 C 3,0 C 12,9 km/h (3 Bft) 100,00 %
09.04.2016 10:38 5,6 C 95 % 1007,4 hPa 0,0 l/m 7,8 km/h (2 Bft) W-SW 240 0 min 0,000 mm 0,0 UV-I 78 W/m 4,9 C 4,4 C 12,9 km/h (3 Bft) 100,00 %
09.04.2016 10:39 5,6 C 95 % 1007,4 hPa 0,0 l/m 7,1 km/h (2 Bft) W-SW 238 0 min 0,000 mm 0,0 UV-I 77 W/m 4,9 C 5,0 C 9,7 km/h (2 Bft) 100,00 %
09.04.2016 10:40 5,6 C 95 % 1007,4 hPa 0,0 l/m 5,6 km/h (1 Bft) W-SW 242 0 min 0,000 mm 0,0 UV-I 76 W/m 4,9 C 5,6 C 8,0 km/h (2 Bft) 95,83 %
09.04.2016 10:41 5,6 C 95 % 1007,4 hPa 0,0 l/m 7,2 km/h (2 Bft) SW 231 0 min 0,000 mm 0,0 UV-I 74 W/m 4,9 C 4,9 C 9,7 km/h (2 Bft) 100,00 %
09.04.2016 10:42 5,6 C 95 % 1007,4 hPa 0,0 l/m 5,8 km/h (2 Bft) W-SW 245 0 min 0,000 mm 0,0 UV-I 72 W/m 4,9 C 5,6 C 8,0 km/h (2 Bft) 100,00 %
09.04.2016 10:43 5,6 C 95 % 1007,4 hPa 0,0 l/m 4,5 km/h (1 Bft) W-SW 247 0 min 0,000 mm 0,0 UV-I 73 W/m 4,9 C 5,6 C 8,0 km/h (2 Bft) 100,00 %
09.04.2016 10:44 5,7 C 95 % 1007,4 hPa 0,0 l/m 3,3 km/h (1 Bft) W-SW 243 0 min 0,000 mm 0,0 UV-I 75 W/m 5,0 C 5,7 C 4,8 km/h (1 Bft) 100,00 %
09.04.2016 10:45 5,7 C 96 % 1007,4 hPa 0,0 l/m 6,4 km/h (2 Bft) W 261 0 min 0,000 mm 0,0 UV-I 76 W/m 5,1 C 5,7 C 11,3 km/h (2 Bft) 92,31 %
09.04.2016 10:46 5,7 C 96 % 1007,4 hPa 0,0 l/m 5,1 km/h (1 Bft) W-SW 255 0 min 0,000 mm 0,0 UV-I 77 W/m 5,1 C 5,7 C 11,3 km/h (2 Bft) 95,83 %
09.04.2016 10:47 5,7 C 96 % 1007,4 hPa 0,0 l/m 4,8 km/h (1 Bft) SW 230 0 min 0,000 mm 0,0 UV-I 80 W/m 5,1 C 5,7 C 6,4 km/h (2 Bft) 100,00 %
09.04.2016 10:48 5,7 C 96 % 1007,4 hPa 0,0 l/m 6,8 km/h (2 Bft) W 270 0 min 0,000 mm 0,0 UV-I 83 W/m 5,1 C 5,4 C 11,3 km/h (2 Bft) 100,00 %
09.04.2016 10:49 5,7 C 96 % 1007,4 hPa 0,0 l/m 7,8 km/h (2 Bft) W-SW 254 0 min 0,000 mm 0,0 UV-I 84 W/m 5,1 C 4,5 C 11,3 km/h (2 Bft) 95,83 %
09.04.2016 10:50 5,7 C 96 % 1007,4 hPa 0,0 l/m 5,2 km/h (1 Bft) W-SW 254 0 min 0,000 mm 0,0 UV-I 82 W/m 5,1 C 5,7 C 6,4 km/h (2 Bft) 100,00 %
09.04.2016 10:51 5,7 C 96 % 1007,4 hPa 0,0 l/m 3,0 km/h (1 Bft) W-SW 238 0 min 0,000 mm 0,0 UV-I 81 W/m 5,1 C 5,7 C 4,8 km/h (1 Bft) 95,83 %
09.04.2016 10:52 5,7 C 96 % 1007,4 hPa 0,0 l/m 4,5 km/h (1 Bft) SW 223 0 min 0,000 mm 0,0 UV-I 81 W/m 5,1 C 5,7 C 6,4 km/h (2 Bft) 100,00 %
09.04.2016 10:53 5,7 C 96 % 1007,4 hPa 0,0 l/m 3,4 km/h (1 Bft) SW 220 0 min 0,000 mm 0,0 UV-I 81 W/m 5,1 C 5,7 C 4,8 km/h (1 Bft) 100,00 %
09.04.2016 10:54 5,8 C 96 % 1007,4 hPa 0,0 l/m 4,5 km/h (1 Bft) W-SW 238 0 min 0,000 mm 0,0 UV-I 81 W/m 5,2 C 5,8 C 6,4 km/h (2 Bft) 100,00 %
09.04.2016 10:55 5,8 C 96 % 1007,4 hPa 0,0 l/m 5,3 km/h (1 Bft) W-SW 244 0 min 0,000 mm 0,0 UV-I 82 W/m 5,2 C 5,8 C 8,0 km/h (2 Bft) 96,67 %
09.04.2016 10:56 5,8 C 96 % 1007,4 hPa 0,0 l/m 7,1 km/h (2 Bft) SW 225 0 min 0,000 mm 0,0 UV-I 83 W/m 5,2 C 5,2 C 9,7 km/h (2 Bft) 92,31 %
09.04.2016 10:57 5,8 C 95 % 1007,4 hPa 0,0 l/m 6,0 km/h (2 Bft) S-SW 207 0 min 0,000 mm 0,0 UV-I 80 W/m 5,1 C 5,8 C 8,0 km/h (2 Bft) 100,00 %
09.04.2016 10:58 5,8 C 95 % 1007,4 hPa 0,0 l/m 8,0 km/h (2 Bft) W 279 0 min 0,000 mm 0,0 UV-I 77 W/m 5,1 C 4,4 C 11,3 km/h (2 Bft) 96,15 %
09.04.2016 10:59 5,8 C 95 % 1007,4 hPa 0,0 l/m 6,7 km/h (2 Bft) SW 233 0 min 0,000 mm 0,0 UV-I 80 W/m 5,1 C 5,6 C 11,3 km/h (2 Bft) 100,00 %
09.04.2016 11:00 5,8 C 95 % 1007,4 hPa 0,0 l/m 5,9 km/h (2 Bft) W-SW 248 0 min 0,025 mm 0,0 UV-I 81 W/m 5,1 C 5,8 C 8,0 km/h (2 Bft) 100,00 %
09.04.2016 11:01 5,8 C 95 % 1007,3 hPa 0,0 l/m 5,0 km/h (1 Bft) W-SW 248 0 min 0,000 mm 0,0 UV-I 82 W/m 5,1 C 5,8 C 8,0 km/h (2 Bft) 100,00 %
09.04.2016 11:02 5,8 C 95 % 1007,4 hPa 0,0 l/m 7,9 km/h (2 Bft) SW 232 0 min 0,000 mm 0,0 UV-I 84 W/m 5,1 C 4,5 C 9,7 km/h (2 Bft) 100,00 %
09.04.2016 11:03 5,8 C 95 % 1007,3 hPa 0,0 l/m 6,7 km/h (2 Bft) W 267 0 min 0,000 mm 0,0 UV-I 83 W/m 5,1 C 5,6 C 8,0 km/h (2 Bft) 100,00 %
09.04.2016 11:04 5,8 C 95 % 1007,4 hPa 0,0 l/m 5,3 km/h (1 Bft) SW 236 0 min 0,000 mm 0,0 UV-I 79 W/m 5,1 C 5,8 C 6,4 km/h (2 Bft) 100,00 %
09.04.2016 11:05 5,8 C 95 % 1007,4 hPa 0,0 l/m 4,9 km/h (1 Bft) W-SW 245 0 min 0,000 mm 0,0 UV-I 74 W/m 5,1 C 5,8 C 6,4 km/h (2 Bft) 100,00 %
09.04.2016 11:06 5,8 C 95 % 1007,4 hPa 0,0 l/m 4,0 km/h (1 Bft) W 266 0 min 0,000 mm 0,0 UV-I 74 W/m 5,1 C 5,8 C 9,7 km/h (2 Bft) 100,00 %
09.04.2016 11:07 5,8 C 95 % 1007,4 hPa 0,0 l/m 5,5 km/h (1 Bft) W-SW 246 0 min 0,000 mm 0,0 UV-I 73 W/m 5,1 C 5,8 C 8,0 km/h (2 Bft) 100,00 %
09.04.2016 11:08 5,8 C 95 % 1007,5 hPa 0,0 l/m 5,9 km/h (2 Bft) SW 223 0 min 0,000 mm 0,0 UV-I 72 W/m 5,1 C 5,8 C 8,0 km/h (2 Bft) 100,00 %
09.04.2016 11:09 5,8 C 95 % 1007,4 hPa 0,0 l/m 5,9 km/h (2 Bft) W-SW 237 0 min 0,000 mm 0,0 UV-I 72 W/m 5,1 C 5,8 C 8,0 km/h (2 Bft) 100,00 %
09.04.2016 11:10 5,8 C 95 % 1007,4 hPa 0,0 l/m 6,4 km/h (2 Bft) W-SW 240 0 min 0,000 mm 0,0 UV-I 72 W/m 5,1 C 5,8 C 9,7 km/h (2 Bft) 100,00 %
09.04.2016 11:11 5,8 C 95 % 1007,4 hPa 0,0 l/m 4,0 km/h (1 Bft) W-SW 246 0 min 0,000 mm 0,0 UV-I 70 W/m 5,1 C 5,8 C 4,8 km/h (1 Bft) 95,65 %
09.04.2016 11:12 5,8 C 95 % 1007,4 hPa 0,0 l/m 4,0 km/h (1 Bft) W 277 0 min 0,000 mm 0,0 UV-I 70 W/m 5,1 C 5,8 C 4,8 km/h (1 Bft) 100,00 %
09.04.2016 11:13 5,9 C 95 % 1007,4 hPa 0,0 l/m 3,0 km/h (1 Bft) W 277 0 min 0,000 mm 0,0 UV-I 67 W/m 5,2 C 5,9 C 3,2 km/h (1 Bft) 100,00 %
09.04.2016 11:14 5,9 C 95 % 1007,4 hPa 0,0 l/m 3,8 km/h (1 Bft) W 259 0 min 0,000 mm 0,0 UV-I 65 W/m 5,2 C 5,9 C 4,8 km/h (1 Bft) 100,00 %
09.04.2016 11:15 5,9 C 95 % 1007,4 hPa 0,0 l/m 2,6 km/h (1 Bft) W 259 0 min 0,000 mm 0,0 UV-I 68 W/m 5,2 C 5,9 C 3,2 km/h (1 Bft) 100,00 %
09.04.2016 11:16 5,9 C 95 % 1007,4 hPa 0,0 l/m 3,7 km/h (1 Bft) W 260 0 min 0,000 mm 0,0 UV-I 74 W/m 5,2 C 5,9 C 4,8 km/h (1 Bft) 100,00 %
09.04.2016 11:17 5,9 C 95 % 1007,4 hPa 0,0 l/m 4,9 km/h (1 Bft) S-SW 210 0 min 0,000 mm 0,1 UV-I 79 W/m 5,2 C 5,9 C 8,0 km/h (2 Bft) 100,00 %
09.04.2016 11:18 5,9 C 95 % 1007,4 hPa 0,0 l/m 5,4 km/h (1 Bft) W 271 0 min 0,000 mm 0,5 UV-I 84 W/m 5,2 C 5,9 C 9,7 km/h (2 Bft) 100,00 %
09.04.2016 11:19 5,9 C 95 % 1007,3 hPa 0,0 l/m 5,1 km/h (1 Bft) W 261 0 min 0,000 mm 0,5 UV-I 87 W/m 5,2 C 5,9 C 8,0 km/h (2 Bft) 95,65 %
09.04.2016 11:20 5,9 C 95 % 1007,4 hPa 0,0 l/m 6,2 km/h (2 Bft) S-SW 210 0 min 0,000 mm 0,5 UV-I 89 W/m 5,2 C 5,9 C 8,0 km/h (2 Bft) 96,30 %
09.04.2016 11:21 5,9 C 95 % 1007,3 hPa 0,0 l/m 5,2 km/h (1 Bft) W-SW 257 0 min 0,000 mm 0,5 UV-I 90 W/m 5,2 C 5,9 C 6,4 km/h (2 Bft) 100,00 %
09.04.2016 11:22 5,9 C 95 % 1007,3 hPa 0,0 l/m 5,7 km/h (1 Bft) W-SW 250 0 min 0,000 mm 0,5 UV-I 87 W/m 5,2 C 5,9 C 9,7 km/h (2 Bft) 100,00 %
09.04.2016 11:23 5,9 C 95 % 1007,4 hPa 0,0 l/m 4,6 km/h (1 Bft) SW 219 0 min 0,000 mm 0,5 UV-I 85 W/m 5,2 C 5,9 C 6,4 km/h (2 Bft) 100,00 %
09.04.2016 11:24 6,0 C 95 % 1007,3 hPa 0,0 l/m 2,8 km/h (1 Bft) W 262 0 min 0,000 mm 0,5 UV-I 90 W/m 5,3 C 6,0 C 4,8 km/h (1 Bft) 100,00 %
09.04.2016 11:25 6,0 C 95 % 1007,3 hPa 0,0 l/m 3,7 km/h (1 Bft) SW 214 0 min 0,000 mm 0,5 UV-I 96 W/m 5,3 C 6,0 C 6,4 km/h (2 Bft) 95,65 %
09.04.2016 11:26 6,0 C 95 % 1007,3 hPa 0,0 l/m 4,6 km/h (1 Bft) W-SW 244 0 min 0,000 mm 0,6 UV-I 99 W/m 5,3 C 6,0 C 6,4 km/h (2 Bft) 100,00 %
09.04.2016 11:27 6,0 C 95 % 1007,3 hPa 0,0 l/m 4,7 km/h (1 Bft) W-SW 244 0 min 0,000 mm 0,6 UV-I 104 W/m 5,3 C 6,0 C 6,4 km/h (2 Bft) 100,00 %
09.04.2016 11:28 6,0 C 95 % 1007,3 hPa 0,0 l/m 4,3 km/h (1 Bft) W-SW 237 0 min 0,000 mm 0,6 UV-I 109 W/m 5,3 C 6,0 C 6,4 km/h (2 Bft) 95,83 %
09.04.2016 11:29 6,1 C 95 % 1007,3 hPa 0,0 l/m 4,2 km/h (1 Bft) SW 236 0 min 0,000 mm 0,6 UV-I 108 W/m 5,4 C 6,1 C 6,4 km/h (2 Bft) 100,00 %
09.04.2016 11:30 6,1 C 95 % 1007,3 hPa 0,0 l/m 5,2 km/h (1 Bft) SW 234 0 min 0,000 mm 0,6 UV-I 106 W/m 5,4 C 6,1 C 8,0 km/h (2 Bft) 100,00 %
09.04.2016 11:31 6,1 C 95 % 1007,3 hPa 0,0 l/m 5,0 km/h (1 Bft) W-SW 248 0 min 0,000 mm 0,6 UV-I 101 W/m 5,4 C 6,1 C 6,4 km/h (2 Bft) 100,00 %
09.04.2016 11:32 6,1 C 95 % 1007,3 hPa 0,0 l/m 4,5 km/h (1 Bft) W-SW 250 0 min 0,000 mm 0,5 UV-I 98 W/m 5,4 C 6,1 C 6,4 km/h (2 Bft) 100,00 %
09.04.2016 11:33 6,1 C 95 % 1007,3 hPa 0,0 l/m 3,0 km/h (1 Bft) W-SW 250 0 min 0,000 mm 0,5 UV-I 91 W/m 5,4 C 6,1 C 4,8 km/h (1 Bft) 100,00 %
09.04.2016 11:34 6,1 C 95 % 1007,3 hPa 0,0 l/m 5,8 km/h (2 Bft) W-SW 246 0 min 0,000 mm 0,5 UV-I 87 W/m 5,4 C 6,1 C 8,0 km/h (2 Bft) 100,00 %
09.04.2016 11:35 6,1 C 95 % 1007,3 hPa 0,0 l/m 3,7 km/h (1 Bft) SW 227 0 min 0,000 mm 0,5 UV-I 84 W/m 5,4 C 6,1 C 6,4 km/h (2 Bft) 100,00 %
09.04.2016 11:36 6,1 C 95 % 1007,3 hPa 0,0 l/m 5,0 km/h (1 Bft) W-SW 248 0 min 0,000 mm 0,3 UV-I 80 W/m 5,4 C 6,1 C 6,4 km/h (2 Bft) 100,00 %
09.04.2016 11:37 6,1 C 95 % 1007,3 hPa 0,0 l/m 7,0 km/h (2 Bft) W-SW 242 0 min 0,000 mm 0,0 UV-I 76 W/m 5,4 C 5,6 C 9,7 km/h (2 Bft) 100,00 %
09.04.2016 11:38 6,1 C 95 % 1007,3 hPa 0,0 l/m 6,5 km/h (2 Bft) SW 229 0 min 0,000 mm 0,0 UV-I 76 W/m 5,4 C 6,0 C 9,7 km/h (2 Bft) 100,00 %
09.04.2016 11:39 6,1 C 95 % 1007,3 hPa 0,0 l/m 8,4 km/h (2 Bft) S-SW 206 0 min 0,000 mm 0,0 UV-I 76 W/m 5,4 C 4,4 C 11,3 km/h (2 Bft) 100,00 %
09.04.2016 11:40 6,1 C 95 % 1007,2 hPa 0,0 l/m 6,1 km/h (2 Bft) SW 229 0 min 0,000 mm 0,0 UV-I 75 W/m 5,4 C 6,1 C 8,0 km/h (2 Bft) 100,00 %
09.04.2016 11:41 6,1 C 95 % 1007,3 hPa 0,0 l/m 5,0 km/h (1 Bft) W-SW 254 0 min 0,000 mm 0,0 UV-I 71 W/m 5,4 C 6,1 C 6,4 km/h (2 Bft) 95,83 %
09.04.2016 11:42 6,1 C 95 % 1007,3 hPa 0,0 l/m 5,2 km/h (1 Bft) SW 215 0 min 0,000 mm 0,0 UV-I 69 W/m 5,4 C 6,1 C 9,7 km/h (2 Bft) 95,65 %
09.04.2016 11:43 6,1 C 95 % 1007,4 hPa 0,0 l/m 4,2 km/h (1 Bft) W-SW 243 0 min 0,000 mm 0,0 UV-I 63 W/m 5,4 C 6,1 C 6,4 km/h (2 Bft) 100,00 %
09.04.2016 11:44 6,1 C 95 % 1007,3 hPa 0,0 l/m 6,4 km/h (2 Bft) W 265 0 min 0,000 mm 0,0 UV-I 57 W/m 5,4 C 6,1 C 9,7 km/h (2 Bft) 100,00 %
09.04.2016 11:45 6,1 C 95 % 1007,3 hPa 0,0 l/m 4,0 km/h (1 Bft) W 265 0 min 0,000 mm 0,0 UV-I 54 W/m 5,4 C 6,1 C 6,4 km/h (2 Bft) 100,00 %
09.04.2016 11:46 6,1 C 95 % 1007,3 hPa 0,0 l/m 1,9 km/h (1 Bft) W 265 0 min 0,000 mm 0,0 UV-I 54 W/m 5,4 C 6,1 C 3,2 km/h (1 Bft) 100,00 %
09.04.2016 11:47 6,1 C 95 % 1007,4 hPa 0,0 l/m 0,8 km/h (0 Bft) W 265 0 min 0,000 mm 0,0 UV-I 55 W/m 5,4 C 6,1 C 1,6 km/h (1 Bft) 100,00 %
09.04.2016 11:48 6,1 C 96 % 1007,4 hPa 0,0 l/m 2,4 km/h (1 Bft) W 265 0 min 0,000 mm 0,0 UV-I 57 W/m 5,5 C 6,1 C 4,8 km/h (1 Bft) 100,00 %
09.04.2016 11:49 6,1 C 95 % 1007,3 hPa 0,0 l/m 3,3 km/h (1 Bft) W 265 0 min 0,000 mm 0,0 UV-I 59 W/m 5,4 C 6,1 C 6,4 km/h (2 Bft) 100,00 %
09.04.2016 11:50 6,1 C 95 % 1007,3 hPa 0,0 l/m 4,2 km/h (1 Bft) W-SW 248 0 min 0,000 mm 0,0 UV-I 62 W/m 5,4 C 6,1 C 4,8 km/h (1 Bft) 100,00 %
09.04.2016 11:51 6,1 C 95 % 1007,3 hPa 0,0 l/m 4,6 km/h (1 Bft) SW 234 0 min 0,000 mm 0,0 UV-I 66 W/m 5,4 C 6,1 C 6,4 km/h (2 Bft) 95,65 %
09.04.2016 11:52 6,1 C 95 % 1007,3 hPa 0,0 l/m 3,6 km/h (1 Bft) SW 235 0 min 0,000 mm 0,0 UV-I 71 W/m 5,4 C 6,1 C 4,8 km/h (1 Bft) 95,83 %
09.04.2016 11:53 6,2 C 95 % 1007,3 hPa 0,0 l/m 4,9 km/h (1 Bft) W-SW 248 0 min 0,000 mm 0,0 UV-I 75 W/m 5,5 C 6,2 C 6,4 km/h (2 Bft) 100,00 %
09.04.2016 11:54 6,2 C 96 % 1007,3 hPa 0,0 l/m 4,7 km/h (1 Bft) W-SW 238 0 min 0,000 mm 0,0 UV-I 76 W/m 5,6 C 6,2 C 6,4 km/h (2 Bft) 100,00 %
09.04.2016 11:55 6,2 C 96 % 1007,3 hPa 0,0 l/m 6,3 km/h (2 Bft) SW 227 0 min 0,000 mm 0,0 UV-I 74 W/m 5,6 C 6,2 C 9,7 km/h (2 Bft) 100,00 %
09.04.2016 11:56 6,2 C 96 % 1007,3 hPa 0,0 l/m 7,1 km/h (2 Bft) SW 215 0 min 0,000 mm 0,0 UV-I 76 W/m 5,6 C 5,6 C 11,3 km/h (2 Bft) 100,00 %
09.04.2016 11:57 6,2 C 96 % 1007,2 hPa 0,0 l/m 8,7 km/h (2 Bft) W-SW 255 0 min 0,000 mm 0,0 UV-I 77 W/m 5,6 C 4,3 C 11,3 km/h (2 Bft) 95,65 %
09.04.2016 11:58 6,2 C 95 % 1007,2 hPa 0,0 l/m 5,4 km/h (1 Bft) SW 226 0 min 0,000 mm 0,1 UV-I 80 W/m 5,5 C 6,2 C 8,0 km/h (2 Bft) 100,00 %
09.04.2016 11:59 6,2 C 95 % 1007,2 hPa 0,0 l/m 7,0 km/h (2 Bft) W-SW 240 0 min 0,000 mm 0,5 UV-I 82 W/m 5,5 C 5,7 C 9,7 km/h (2 Bft) 100,00 %
09.04.2016 12:00 6,2 C 95 % 1007,3 hPa 0,0 l/m 8,4 km/h (2 Bft) SW 228 0 min 0,026 mm 0,5 UV-I 85 W/m 5,5 C 4,6 C 9,7 km/h (2 Bft) 100,00 %
09.04.2016 12:01 6,2 C 95 % 1007,2 hPa 0,0 l/m 9,8 km/h (2 Bft) SW 233 0 min 0,000 mm 0,5 UV-I 90 W/m 5,5 C 3,5 C 11,3 km/h (2 Bft) 100,00 %
09.04.2016 12:02 6,2 C 95 % 1007,2 hPa 0,0 l/m 6,4 km/h (2 Bft) SW 229 0 min 0,000 mm 0,5 UV-I 91 W/m 5,5 C 6,2 C 9,7 km/h (2 Bft) 95,65 %
09.04.2016 12:03 6,2 C 96 % 1007,2 hPa 0,0 l/m 5,3 km/h (1 Bft) S-SW 213 0 min 0,000 mm 0,5 UV-I 93 W/m 5,6 C 6,2 C 8,0 km/h (2 Bft) 96,30 %
09.04.2016 12:04 6,2 C 95 % 1007,2 hPa 0,0 l/m 4,0 km/h (1 Bft) W-SW 252 0 min 0,000 mm 0,5 UV-I 92 W/m 5,5 C 6,2 C 8,0 km/h (2 Bft) 100,00 %
09.04.2016 12:05 6,2 C 95 % 1007,2 hPa 0,0 l/m 3,8 km/h (1 Bft) S-SW 198 0 min 0,000 mm 0,5 UV-I 88 W/m 5,5 C 6,2 C 6,4 km/h (2 Bft) 95,83 %
09.04.2016 12:06 6,2 C 95 % 1007,2 hPa 0,0 l/m 7,3 km/h (2 Bft) W-SW 248 0 min 0,000 mm 0,3 UV-I 81 W/m 5,5 C 5,4 C 11,3 km/h (2 Bft) 100,00 %
09.04.2016 12:07 6,3 C 95 % 1007,3 hPa 0,0 l/m 5,1 km/h (1 Bft) W 259 0 min 0,000 mm 0,0 UV-I 72 W/m 5,6 C 6,3 C 6,4 km/h (2 Bft) 95,83 %
09.04.2016 12:08 6,3 C 95 % 1007,3 hPa 0,0 l/m 4,1 km/h (1 Bft) SW 235 0 min 0,000 mm 0,0 UV-I 65 W/m 5,6 C 6,3 C 6,4 km/h (2 Bft) 95,65 %
09.04.2016 12:09 6,3 C 95 % 1007,3 hPa 0,0 l/m 4,0 km/h (1 Bft) W 267 0 min 0,000 mm 0,0 UV-I 60 W/m 5,6 C 6,3 C 4,8 km/h (1 Bft) 100,00 %
09.04.2016 12:10 6,3 C 95 % 1007,3 hPa 0,0 l/m 4,0 km/h (1 Bft) W-SW 257 0 min 0,000 mm 0,0 UV-I 58 W/m 5,6 C 6,3 C 6,4 km/h (2 Bft) 95,65 %
09.04.2016 12:11 6,3 C 95 % 1007,3 hPa 0,0 l/m 5,1 km/h (1 Bft) W-SW 257 0 min 0,000 mm 0,0 UV-I 60 W/m 5,6 C 6,3 C 6,4 km/h (2 Bft) 100,00 %
09.04.2016 12:12 6,3 C 95 % 1007,3 hPa 0,0 l/m 6,4 km/h (2 Bft) W-SW 247 0 min 0,000 mm 0,0 UV-I 67 W/m 5,6 C 6,3 C 8,0 km/h (2 Bft) 95,65 %
09.04.2016 12:13 6,3 C 95 % 1007,3 hPa 0,0 l/m 6,1 km/h (2 Bft) W-SW 257 0 min 0,000 mm 0,3 UV-I 77 W/m 5,6 C 6,3 C 8,0 km/h (2 Bft) 100,00 %
09.04.2016 12:14 6,3 C 95 % 1007,3 hPa 0,0 l/m 5,7 km/h (1 Bft) W-SW 246 0 min 0,000 mm 0,5 UV-I 82 W/m 5,6 C 6,3 C 8,0 km/h (2 Bft) 91,30 %
09.04.2016 12:15 6,3 C 95 % 1007,3 hPa 0,0 l/m 4,2 km/h (1 Bft) SW 236 0 min 0,000 mm 0,5 UV-I 79 W/m 5,6 C 6,3 C 4,8 km/h (1 Bft) 95,83 %
09.04.2016 12:16 6,3 C 95 % 1007,4 hPa 0,0 l/m 2,9 km/h (1 Bft) SW 236 0 min 0,000 mm 0,5 UV-I 77 W/m 5,6 C 6,3 C 4,8 km/h (1 Bft) 100,00 %
09.04.2016 12:17 6,3 C 95 % 1007,4 hPa 0,0 l/m 2,9 km/h (1 Bft) SW 236 0 min 0,000 mm 0,5 UV-I 77 W/m 5,6 C 6,3 C 4,8 km/h (1 Bft) 91,67 %
09.04.2016 12:18 6,4 C 95 % 1007,3 hPa 0,0 l/m 4,8 km/h (1 Bft) W-SW 240 0 min 0,000 mm 0,3 UV-I 75 W/m 5,7 C 6,4 C 6,4 km/h (2 Bft) 100,00 %
09.04.2016 12:19 6,4 C 95 % 1007,4 hPa 0,0 l/m 4,4 km/h (1 Bft) W-SW 240 0 min 0,000 mm 0,0 UV-I 71 W/m 5,7 C 6,4 C 6,4 km/h (2 Bft) 95,83 %
09.04.2016 12:20 6,4 C 95 % 1007,3 hPa 0,0 l/m 2,7 km/h (1 Bft) W-SW 240 0 min 0,000 mm 0,0 UV-I 69 W/m 5,7 C 6,4 C 4,8 km/h (1 Bft) 100,00 %
09.04.2016 12:21 6,4 C 95 % 1007,4 hPa 0,0 l/m 2,7 km/h (1 Bft) W-SW 240 0 min 0,000 mm 0,0 UV-I 66 W/m 5,7 C 6,4 C 3,2 km/h (1 Bft) 95,83 %
09.04.2016 12:22 6,4 C 95 % 1007,4 hPa 0,0 l/m 4,2 km/h (1 Bft) W-SW 252 0 min 0,000 mm 0,0 UV-I 65 W/m 5,7 C 6,4 C 6,4 km/h (2 Bft) 96,15 %
09.04.2016 12:23 6,4 C 95 % 1007,4 hPa 0,0 l/m 5,3 km/h (1 Bft) W-SW 255 0 min 0,000 mm 0,0 UV-I 67 W/m 5,7 C 6,4 C 9,7 km/h (2 Bft) 100,00 %
09.04.2016 12:24 6,4 C 95 % 1007,3 hPa 0,0 l/m 3,3 km/h (1 Bft) W-SW 257 0 min 0,000 mm 0,0 UV-I 69 W/m 5,7 C 6,4 C 4,8 km/h (1 Bft) 100,00 %
09.04.2016 12:25 6,4 C 95 % 1007,3 hPa 0,0 l/m 2,7 km/h (1 Bft) W-SW 257 0 min 0,000 mm 0,0 UV-I 67 W/m 5,7 C 6,4 C 4,8 km/h (1 Bft) 91,30 %
09.04.2016 12:26 6,4 C 95 % 1007,3 hPa 0,0 l/m 2,1 km/h (1 Bft) W-SW 257 0 min 0,000 mm 0,0 UV-I 66 W/m 5,7 C 6,4 C 3,2 km/h (1 Bft) 98,49 %
09.04.2016 12:29 6,5 C 95 % 1007,3 hPa 0,0 l/m 3,8 km/h (1 Bft) SW 231 0 min 0,000 mm 0,0 UV-I 66 W/m 5,8 C 6,5 C 4,8 km/h (1 Bft) 96,91 %
09.04.2016 12:30 6,5 C 95 % 1007,3 hPa 0,0 l/m 2,9 km/h (1 Bft) W-SW 252 0 min 0,000 mm 0,0 UV-I 63 W/m 5,8 C 6,5 C 4,8 km/h (1 Bft) 96,30 %
09.04.2016 12:31 6,5 C 95 % 1007,3 hPa 0,0 l/m 0,8 km/h (0 Bft) W-SW 252 0 min 0,000 mm 0,0 UV-I 58 W/m 5,8 C 6,5 C 3,2 km/h (1 Bft) 100,00 %
09.04.2016 12:32 6,5 C 95 % 1007,3 hPa 0,0 l/m 0,3 km/h (0 Bft) W-SW 252 0 min 0,000 mm 0,0 UV-I 53 W/m 5,8 C 6,5 C 1,6 km/h (1 Bft) 96,30 %
09.04.2016 12:33 6,5 C 95 % 1007,3 hPa 0,0 l/m 2,2 km/h (1 Bft) W-NW 301 0 min 0,000 mm 0,0 UV-I 52 W/m 5,8 C 6,5 C 4,8 km/h (1 Bft) 96,15 %
09.04.2016 12:34 6,5 C 95 % 1007,3 hPa 0,0 l/m 2,7 km/h (1 Bft) W-NW 297 0 min 0,000 mm 0,0 UV-I 55 W/m 5,8 C 6,5 C 4,8 km/h (1 Bft) 100,00 %
09.04.2016 12:35 6,5 C 95 % 1007,4 hPa 0,0 l/m 1,5 km/h (1 Bft) W-NW 297 0 min 0,000 mm 0,0 UV-I 58 W/m 5,8 C 6,5 C 3,2 km/h (1 Bft) 96,15 %
09.04.2016 12:36 6,5 C 95 % 1007,3 hPa 0,0 l/m 3,7 km/h (1 Bft) W 273 0 min 0,000 mm 0,0 UV-I 62 W/m 5,8 C 6,5 C 4,8 km/h (1 Bft) 95,83 %
09.04.2016 12:37 6,5 C 96 % 1007,3 hPa 0,0 l/m 2,5 km/h (1 Bft) W 273 0 min 0,000 mm 0,0 UV-I 60 W/m 5,9 C 6,5 C 3,2 km/h (1 Bft) 92,86 %
09.04.2016 12:38 6,5 C 95 % 1007,3 hPa 0,0 l/m 0,1 km/h (0 Bft) W 273 0 min 0,000 mm 0,0 UV-I 56 W/m 5,8 C 6,5 C 1,6 km/h (1 Bft) 100,00 %
09.04.2016 12:39 6,6 C 95 % 1007,3 hPa 0,0 l/m 0,0 km/h (0 Bft) W 273 0 min 0,000 mm 0,0 UV-I 56 W/m 5,9 C 6,6 C 0,0 km/h (0 Bft) 100,00 %
09.04.2016 12:40 6,6 C 96 % 1007,3 hPa 0,0 l/m 0,2 km/h (0 Bft) W 273 0 min 0,000 mm 0,0 UV-I 57 W/m 6,0 C 6,6 C 1,6 km/h (1 Bft) 100,00 %
09.04.2016 12:41 6,6 C 96 % 1007,3 hPa 0,0 l/m 1,4 km/h (1 Bft) W 273 0 min 0,000 mm 0,0 UV-I 60 W/m 6,0 C 6,6 C 3,2 km/h (1 Bft) 100,00 %
09.04.2016 12:42 6,6 C 96 % 1007,3 hPa 0,0 l/m 2,9 km/h (1 Bft) W 273 0 min 0,000 mm 0,0 UV-I 64 W/m 6,0 C 6,6 C 3,2 km/h (1 Bft) 96,30 %
09.04.2016 12:43 6,6 C 96 % 1007,3 hPa 0,0 l/m 3,1 km/h (1 Bft) W 273 0 min 0,000 mm 0,0 UV-I 69 W/m 6,0 C 6,6 C 3,2 km/h (1 Bft) 100,00 %
09.04.2016 12:44 6,6 C 96 % 1007,3 hPa 0,0 l/m 1,1 km/h (1 Bft) W 273 0 min 0,000 mm 0,0 UV-I 73 W/m 6,0 C 6,6 C 3,2 km/h (1 Bft) 100,00 %
09.04.2016 12:45 6,6 C 96 % 1007,3 hPa 0,0 l/m 0,6 km/h (0 Bft) W 273 0 min 0,000 mm 0,5 UV-I 81 W/m 6,0 C 6,6 C 3,2 km/h (1 Bft) 100,00 %
09.04.2016 12:46 6,6 C 96 % 1007,3 hPa 0,0 l/m 2,7 km/h (1 Bft) W 267 0 min 0,000 mm 0,5 UV-I 95 W/m 6,0 C 6,6 C 4,8 km/h (1 Bft) 92,31 %
09.04.2016 12:47 6,6 C 96 % 1007,3 hPa 0,0 l/m 3,5 km/h (1 Bft) W 267 0 min 0,000 mm 0,6 UV-I 106 W/m 6,0 C 6,6 C 4,8 km/h (1 Bft) 100,00 %
09.04.2016 12:48 6,6 C 95 % 1007,3 hPa 0,0 l/m 4,8 km/h (1 Bft) W-SW 253 0 min 0,000 mm 0,7 UV-I 112 W/m 5,9 C 6,6 C 4,8 km/h (1 Bft) 100,00 %
09.04.2016 12:49 6,6 C 95 % 1007,3 hPa 0,0 l/m 8,6 km/h (2 Bft) W-SW 248 0 min 0,000 mm 0,7 UV-I 114 W/m 5,9 C 4,8 C 12,9 km/h (3 Bft) 100,00 %
09.04.2016 12:50 6,6 C 95 % 1007,3 hPa 0,0 l/m 9,0 km/h (2 Bft) W-SW 253 0 min 0,000 mm 0,7 UV-I 114 W/m 5,9 C 4,5 C 12,9 km/h (3 Bft) 95,65 %
09.04.2016 12:51 6,6 C 95 % 1007,2 hPa 0,0 l/m 6,5 km/h (2 Bft) W-SW 246 0 min 0,000 mm 0,7 UV-I 114 W/m 5,9 C 6,5 C 8,0 km/h (2 Bft) 100,00 %
09.04.2016 12:52 6,6 C 95 % 1007,3 hPa 0,0 l/m 5,3 km/h (1 Bft) W 273 0 min 0,000 mm 0,7 UV-I 112 W/m 5,9 C 6,6 C 8,0 km/h (2 Bft) 96,15 %
09.04.2016 12:53 6,6 C 95 % 1007,2 hPa 0,0 l/m 5,9 km/h (2 Bft) W 261 0 min 0,000 mm 0,7 UV-I 111 W/m 5,9 C 6,6 C 8,0 km/h (2 Bft) 100,00 %
09.04.2016 12:54 6,6 C 94 % 1007,3 hPa 0,0 l/m 5,7 km/h (1 Bft) W 259 0 min 0,000 mm 0,7 UV-I 111 W/m 5,7 C 6,6 C 9,7 km/h (2 Bft) 100,00 %
09.04.2016 12:55 6,6 C 94 % 1007,2 hPa 0,0 l/m 7,8 km/h (2 Bft) W 267 0 min 0,000 mm 0,7 UV-I 111 W/m 5,7 C 5,4 C 11,3 km/h (2 Bft) 96,30 %
09.04.2016 12:56 6,7 C 94 % 1007,2 hPa 0,0 l/m 4,5 km/h (1 Bft) W-NW 282 0 min 0,000 mm 0,7 UV-I 113 W/m 5,8 C 6,7 C 6,4 km/h (2 Bft) 100,00 %
09.04.2016 12:57 6,7 C 94 % 1007,2 hPa 0,0 l/m 3,0 km/h (1 Bft) SW 223 0 min 0,000 mm 0,7 UV-I 115 W/m 5,8 C 6,7 C 6,4 km/h (2 Bft) 100,00 %
09.04.2016 12:58 6,7 C 94 % 1007,2 hPa 0,0 l/m 4,4 km/h (1 Bft) S-SW 205 0 min 0,000 mm 0,7 UV-I 118 W/m 5,8 C 6,7 C 6,4 km/h (2 Bft) 100,00 %
09.04.2016 12:59 6,7 C 94 % 1007,2 hPa 0,0 l/m 6,7 km/h (2 Bft) W-SW 243 0 min 0,000 mm 0,7 UV-I 123 W/m 5,8 C 6,5 C 8,0 km/h (2 Bft) 100,00 %
09.04.2016 13:00 6,7 C 94 % 1007,1 hPa 0,0 l/m 6,0 km/h (2 Bft) W-SW 242 0 min 0,000 mm 0,8 UV-I 127 W/m 5,8 C 6,7 C 8,0 km/h (2 Bft) 100,00 %
09.04.2016 13:01 6,8 C 94 % 1007,1 hPa 0,0 l/m 6,1 km/h (2 Bft) S-SW 209 0 min 0,025 mm 0,8 UV-I 130 W/m 5,9 C 6,8 C 8,0 km/h (2 Bft) 100,00 %
09.04.2016 13:02 6,8 C 94 % 1007,2 hPa 0,0 l/m 7,2 km/h (2 Bft) SW 236 0 min 0,000 mm 0,8 UV-I 132 W/m 5,9 C 6,1 C 12,9 km/h (3 Bft) 100,00 %
09.04.2016 13:03 6,8 C 94 % 1007,1 hPa 0,0 l/m 10,3 km/h (2 Bft) S-SW 206 0 min 0,000 mm 0,8 UV-I 134 W/m 5,9 C 3,9 C 14,5 km/h (3 Bft) 100,00 %
09.04.2016 13:04 6,8 C 94 % 1007,1 hPa 0,0 l/m 7,5 km/h (2 Bft) SW 221 0 min 0,000 mm 0,8 UV-I 135 W/m 5,9 C 5,9 C 9,7 km/h (2 Bft) 100,00 %
09.04.2016 13:05 6,8 C 93 % 1007,1 hPa 0,0 l/m 8,6 km/h (2 Bft) W-SW 238 0 min 0,000 mm 0,8 UV-I 133 W/m 5,7 C 5,0 C 11,3 km/h (2 Bft) 100,00 %
09.04.2016 13:06 6,8 C 93 % 1007,1 hPa 0,0 l/m 6,3 km/h (2 Bft) SW 234 0 min 0,000 mm 0,8 UV-I 128 W/m 5,7 C 6,8 C 9,7 km/h (2 Bft) 100,00 %
09.04.2016 13:07 6,8 C 93 % 1007,2 hPa 0,0 l/m 7,1 km/h (2 Bft) W-SW 241 0 min 0,000 mm 0,7 UV-I 123 W/m 5,7 C 6,2 C 12,9 km/h (3 Bft) 100,00 %
09.04.2016 13:08 6,8 C 93 % 1007,2 hPa 0,0 l/m 6,5 km/h (2 Bft) W-SW 238 0 min 0,000 mm 0,7 UV-I 119 W/m 5,7 C 6,7 C 9,7 km/h (2 Bft) 93,33 %
09.04.2016 13:09 6,8 C 94 % 1007,2 hPa 0,0 l/m 6,0 km/h (2 Bft) W-SW 244 0 min 0,000 mm 0,7 UV-I 115 W/m 5,9 C 6,8 C 8,0 km/h (2 Bft) 100,00 %
09.04.2016 13:10 6,9 C 94 % 1007,2 hPa 0,0 l/m 7,1 km/h (2 Bft) SW 226 0 min 0,000 mm 0,7 UV-I 111 W/m 6,0 C 6,3 C 9,7 km/h (2 Bft) 100,00 %
09.04.2016 13:11 6,9 C 94 % 1007,1 hPa 0,0 l/m 4,3 km/h (1 Bft) W-SW 238 0 min 0,000 mm 0,6 UV-I 106 W/m 6,0 C 6,9 C 6,4 km/h (2 Bft) 100,00 %
09.04.2016 13:12 6,9 C 94 % 1007,1 hPa 0,0 l/m 7,6 km/h (2 Bft) W-SW 239 0 min 0,000 mm 0,6 UV-I 104 W/m 6,0 C 5,9 C 11,3 km/h (2 Bft) 100,00 %
09.04.2016 13:13 6,9 C 94 % 1007,1 hPa 0,0 l/m 7,2 km/h (2 Bft) S-SW 212 0 min 0,000 mm 0,6 UV-I 100 W/m 6,0 C 6,2 C 12,9 km/h (3 Bft) 96,15 %
09.04.2016 13:14 6,9 C 94 % 1007,1 hPa 0,0 l/m 4,8 km/h (1 Bft) W-SW 252 0 min 0,000 mm 0,6 UV-I 97 W/m 6,0 C 6,9 C 6,4 km/h (2 Bft) 100,00 %
09.04.2016 13:15 6,9 C 93 % 1007,1 hPa 0,0 l/m 6,0 km/h (2 Bft) SW 231 0 min 0,000 mm 0,6 UV-I 94 W/m 5,8 C 6,9 C 8,0 km/h (2 Bft) 96,15 %
09.04.2016 13:16 6,9 C 93 % 1007,1 hPa 0,0 l/m 5,9 km/h (2 Bft) W 260 0 min 0,000 mm 0,6 UV-I 92 W/m 5,8 C 6,9 C 11,3 km/h (2 Bft) 95,83 %
09.04.2016 13:17 6,9 C 94 % 1007,1 hPa 0,0 l/m 8,0 km/h (2 Bft) W-SW 256 0 min 0,000 mm 0,6 UV-I 90 W/m 6,0 C 5,6 C 11,3 km/h (2 Bft) 100,00 %
09.04.2016 13:18 6,9 C 94 % 1007,1 hPa 0,0 l/m 7,3 km/h (2 Bft) W 263 0 min 0,000 mm 0,5 UV-I 90 W/m 6,0 C 6,2 C 11,3 km/h (2 Bft) 96,30 %
09.04.2016 13:19 7,0 C 93 % 1007,1 hPa 0,0 l/m 7,7 km/h (2 Bft) W-SW 247 0 min 0,000 mm 0,5 UV-I 88 W/m 5,9 C 5,9 C 12,9 km/h (3 Bft) 100,00 %
09.04.2016 13:20 7,0 C 94 % 1007,1 hPa 0,0 l/m 4,7 km/h (1 Bft) SW 231 0 min 0,000 mm 0,5 UV-I 85 W/m 6,1 C 7,0 C 8,0 km/h (2 Bft) 96,30 %
09.04.2016 13:21 6,9 C 93 % 1007,1 hPa 0,0 l/m 5,9 km/h (2 Bft) S 191 0 min 0,000 mm 0,5 UV-I 85 W/m 5,8 C 6,9 C 11,3 km/h (2 Bft) 100,00 %
09.04.2016 13:22 6,9 C 93 % 1007,1 hPa 0,0 l/m 7,3 km/h (2 Bft) S-SW 208 0 min 0,000 mm 0,5 UV-I 87 W/m 5,8 C 6,2 C 9,7 km/h (2 Bft) 100,00 %
09.04.2016 13:23 6,9 C 93 % 1007,1 hPa 0,0 l/m 7,7 km/h (2 Bft) W-SW 252 0 min 0,000 mm 0,6 UV-I 89 W/m 5,8 C 5,8 C 11,3 km/h (2 Bft) 96,55 %
09.04.2016 13:24 6,9 C 93 % 1007,1 hPa 0,0 l/m 7,0 km/h (2 Bft) S 184 0 min 0,000 mm 0,6 UV-I 91 W/m 5,8 C 6,4 C 11,3 km/h (2 Bft) 100,00 %
09.04.2016 13:25 6,9 C 93 % 1007,1 hPa 0,0 l/m 6,5 km/h (2 Bft) SW 223 0 min 0,000 mm 0,6 UV-I 91 W/m 5,8 C 6,8 C 11,3 km/h (2 Bft) 100,00 %
09.04.2016 13:26 6,9 C 93 % 1007,1 hPa 0,0 l/m 7,9 km/h (2 Bft) S-SW 197 0 min 0,000 mm 0,6 UV-I 90 W/m 5,8 C 5,7 C 11,3 km/h (2 Bft) 100,00 %
09.04.2016 13:27 6,9 C 93 % 1007,1 hPa 0,0 l/m 8,0 km/h (2 Bft) S-SO 162 0 min 0,000 mm 0,5 UV-I 87 W/m 5,8 C 5,6 C 12,9 km/h (3 Bft) 100,00 %
09.04.2016 13:28 6,9 C 94 % 1007,1 hPa 0,0 l/m 6,2 km/h (2 Bft) S-SW 201 0 min 0,000 mm 0,5 UV-I 85 W/m 6,0 C 6,9 C 9,7 km/h (2 Bft) 100,00 %
09.04.2016 13:29 6,9 C 94 % 1007,1 hPa 0,0 l/m 11,2 km/h (2 Bft) S-SW 192 0 min 0,000 mm 0,5 UV-I 83 W/m 6,0 C 3,4 C 19,3 km/h (3 Bft) 96,30 %
09.04.2016 13:30 6,9 C 93 % 1007,1 hPa 0,0 l/m 10,4 km/h (2 Bft) S-SW 200 0 min 0,000 mm 0,5 UV-I 83 W/m 5,8 C 3,9 C 14,5 km/h (3 Bft) 100,00 %
09.04.2016 13:31 6,9 C 93 % 1007,1 hPa 0,0 l/m 6,3 km/h (2 Bft) SW 219 0 min 0,000 mm 0,5 UV-I 83 W/m 5,8 C 6,9 C 8,0 km/h (2 Bft) 95,83 %
09.04.2016 13:32 6,9 C 93 % 1007,1 hPa 0,0 l/m 9,8 km/h (2 Bft) SW 229 0 min 0,000 mm 0,5 UV-I 81 W/m 5,8 C 4,3 C 14,5 km/h (3 Bft) 100,00 %
09.04.2016 13:33 6,9 C 93 % 1007,1 hPa 0,0 l/m 9,5 km/h (2 Bft) SW 225 0 min 0,000 mm 0,5 UV-I 81 W/m 5,8 C 4,5 C 12,9 km/h (3 Bft) 100,00 %
09.04.2016 13:34 6,9 C 94 % 1007,1 hPa 0,0 l/m 6,0 km/h (2 Bft) W-SW 240 0 min 0,000 mm 0,5 UV-I 80 W/m 6,0 C 6,9 C 9,7 km/h (2 Bft) 95,65 %
09.04.2016 13:35 6,9 C 94 % 1007,1 hPa 0,0 l/m 5,0 km/h (1 Bft) S-SW 209 0 min 0,000 mm 0,5 UV-I 79 W/m 6,0 C 6,9 C 6,4 km/h (2 Bft) 96,30 %
09.04.2016 13:36 6,9 C 94 % 1007,1 hPa 0,0 l/m 5,5 km/h (1 Bft) S-SW 209 0 min 0,000 mm 0,5 UV-I 77 W/m 6,0 C 6,9 C 8,0 km/h (2 Bft) 100,00 %
09.04.2016 13:37 6,9 C 93 % 1007,1 hPa 0,0 l/m 5,3 km/h (1 Bft) W-SW 243 0 min 0,000 mm 0,5 UV-I 77 W/m 5,8 C 6,9 C 12,9 km/h (3 Bft) 100,00 %
09.04.2016 13:38 6,9 C 94 % 1007,1 hPa 0,0 l/m 6,9 km/h (2 Bft) SW 232 0 min 0,000 mm 0,5 UV-I 77 W/m 6,0 C 6,5 C 11,3 km/h (2 Bft) 100,00 %
09.04.2016 13:39 6,9 C 94 % 1007,0 hPa 0,0 l/m 7,7 km/h (2 Bft) W-SW 252 0 min 0,000 mm 0,5 UV-I 77 W/m 6,0 C 5,8 C 11,3 km/h (2 Bft) 96,30 %
09.04.2016 13:40 7,0 C 94 % 1007,0 hPa 0,0 l/m 5,3 km/h (1 Bft) S-SW 210 0 min 0,000 mm 0,5 UV-I 77 W/m 6,1 C 7,0 C 6,4 km/h (2 Bft) 96,15 %
09.04.2016 13:41 7,0 C 94 % 1007,0 hPa 0,0 l/m 5,9 km/h (2 Bft) S-SW 212 0 min 0,000 mm 0,5 UV-I 77 W/m 6,1 C 7,0 C 9,7 km/h (2 Bft) 100,00 %
09.04.2016 13:42 6,9 C 94 % 1007,0 hPa 0,0 l/m 7,2 km/h (2 Bft) S 177 0 min 0,000 mm 0,5 UV-I 77 W/m 6,0 C 6,2 C 11,3 km/h (2 Bft) 100,00 %
09.04.2016 13:43 6,9 C 94 % 1007,0 hPa 0,0 l/m 8,6 km/h (2 Bft) S 172 0 min 0,000 mm 0,5 UV-I 77 W/m 6,0 C 5,1 C 14,5 km/h (3 Bft) 100,00 %
09.04.2016 13:44 6,9 C 93 % 1007,0 hPa 0,0 l/m 7,0 km/h (2 Bft) SW 220 0 min 0,000 mm 0,5 UV-I 78 W/m 5,8 C 6,4 C 9,7 km/h (2 Bft) 100,00 %
09.04.2016 13:45 6,9 C 93 % 1007,0 hPa 0,0 l/m 7,8 km/h (2 Bft) SW 223 0 min 0,000 mm 0,5 UV-I 80 W/m 5,8 C 5,8 C 12,9 km/h (3 Bft) 100,00 %
09.04.2016 13:46 6,9 C 93 % 1007,0 hPa 0,0 l/m 7,6 km/h (2 Bft) SW 217 0 min 0,000 mm 0,5 UV-I 81 W/m 5,8 C 5,9 C 9,7 km/h (2 Bft) 100,00 %
09.04.2016 13:47 6,9 C 94 % 1007,0 hPa 0,0 l/m 7,8 km/h (2 Bft) SW 236 0 min 0,000 mm 0,5 UV-I 79 W/m 6,0 C 5,8 C 9,7 km/h (2 Bft) 100,00 %
09.04.2016 13:48 6,9 C 94 % 1007,0 hPa 0,0 l/m 7,4 km/h (2 Bft) W-SW 240 0 min 0,000 mm 0,5 UV-I 77 W/m 6,0 C 6,1 C 9,7 km/h (2 Bft) 100,00 %
09.04.2016 13:49 7,0 C 94 % 1006,9 hPa 0,0 l/m 11,2 km/h (2 Bft) SW 227 0 min 0,000 mm 0,5 UV-I 73 W/m 6,1 C 3,5 C 12,9 km/h (3 Bft) 100,00 %
09.04.2016 13:50 6,9 C 94 % 1007,0 hPa 0,0 l/m 7,9 km/h (2 Bft) W-SW 238 0 min 0,000 mm 0,0 UV-I 70 W/m 6,0 C 5,7 C 11,3 km/h (2 Bft) 100,00 %
09.04.2016 13:51 6,9 C 94 % 1007,0 hPa 0,0 l/m 5,4 km/h (1 Bft) SW 230 0 min 0,000 mm 0,0 UV-I 68 W/m 6,0 C 6,9 C 9,7 km/h (2 Bft) 100,00 %
09.04.2016 13:52 7,0 C 94 % 1007,0 hPa 0,0 l/m 7,3 km/h (2 Bft) SW 223 0 min 0,000 mm 0,0 UV-I 66 W/m 6,1 C 6,3 C 11,3 km/h (2 Bft) 95,83 %
09.04.2016 13:53 7,0 C 93 % 1007,0 hPa 0,0 l/m 9,9 km/h (2 Bft) SW 235 0 min 0,000 mm 0,0 UV-I 63 W/m 5,9 C 4,3 C 12,9 km/h (3 Bft) 100,00 %
09.04.2016 13:54 7,0 C 93 % 1006,9 hPa 0,0 l/m 10,4 km/h (2 Bft) SW 234 0 min 0,000 mm 0,0 UV-I 63 W/m 5,9 C 4,0 C 12,9 km/h (3 Bft) 96,30 %
09.04.2016 13:55 7,0 C 93 % 1007,0 hPa 0,0 l/m 8,8 km/h (2 Bft) W-SW 242 0 min 0,000 mm 0,0 UV-I 62 W/m 5,9 C 5,1 C 14,5 km/h (3 Bft) 100,00 %
09.04.2016 13:56 7,0 C 93 % 1006,9 hPa 0,0 l/m 8,5 km/h (2 Bft) W 271 0 min 0,000 mm 0,0 UV-I 59 W/m 5,9 C 5,3 C 12,9 km/h (3 Bft) 100,00 %
09.04.2016 13:57 7,0 C 94 % 1007,0 hPa 0,0 l/m 4,9 km/h (1 Bft) W-SW 246 0 min 0,000 mm 0,0 UV-I 55 W/m 6,1 C 7,0 C 6,4 km/h (2 Bft) 100,00 %
09.04.2016 13:58 7,0 C 94 % 1007,0 hPa 0,0 l/m 4,8 km/h (1 Bft) W-SW 244 0 min 0,000 mm 0,0 UV-I 54 W/m 6,1 C 7,0 C 8,0 km/h (2 Bft) 100,00 %
09.04.2016 13:59 7,0 C 94 % 1007,0 hPa 0,0 l/m 4,2 km/h (1 Bft) S-SW 197 0 min 0,000 mm 0,0 UV-I 53 W/m 6,1 C 7,0 C 6,4 km/h (2 Bft) 95,65 %
09.04.2016 14:00 7,0 C 94 % 1007,0 hPa 0,0 l/m 6,7 km/h (2 Bft) SW 236 0 min 0,051 mm 0,0 UV-I 54 W/m 6,1 C 6,8 C 9,7 km/h (2 Bft) 100,00 %
09.04.2016 14:01 6,9 C 94 % 1007,0 hPa 0,0 l/m 4,6 km/h (1 Bft) W-SW 250 0 min 0,000 mm 0,0 UV-I 56 W/m 6,0 C 6,9 C 6,4 km/h (2 Bft) 100,00 %
09.04.2016 14:02 7,0 C 94 % 1007,0 hPa 0,0 l/m 4,7 km/h (1 Bft) SW 229 0 min 0,000 mm 0,0 UV-I 57 W/m 6,1 C 7,0 C 8,0 km/h (2 Bft) 100,00 %
09.04.2016 14:03 7,0 C 94 % 1007,0 hPa 0,0 l/m 6,0 km/h (2 Bft) W-SW 240 0 min 0,000 mm 0,0 UV-I 59 W/m 6,1 C 7,0 C 8,0 km/h (2 Bft) 100,00 %
09.04.2016 14:04 7,0 C 94 % 1007,0 hPa 0,0 l/m 8,2 km/h (2 Bft) W-SW 242 0 min 0,000 mm 0,0 UV-I 60 W/m 6,1 C 5,5 C 11,3 km/h (2 Bft) 95,65 %
09.04.2016 14:05 7,0 C 94 % 1007,0 hPa 0,0 l/m 6,9 km/h (2 Bft) SW 235 0 min 0,000 mm 0,0 UV-I 60 W/m 6,1 C 6,6 C 11,3 km/h (2 Bft) 96,30 %
09.04.2016 14:06 7,0 C 94 % 1007,0 hPa 0,0 l/m 5,9 km/h (2 Bft) W 259 0 min 0,000 mm 0,0 UV-I 60 W/m 6,1 C 7,0 C 9,7 km/h (2 Bft) 100,00 %
09.04.2016 14:07 7,0 C 94 % 1007,0 hPa 0,0 l/m 8,3 km/h (2 Bft) SW 236 0 min 0,000 mm 0,0 UV-I 60 W/m 6,1 C 5,5 C 11,3 km/h (2 Bft) 96,30 %
09.04.2016 14:08 7,0 C 94 % 1007,0 hPa 0,0 l/m 9,5 km/h (2 Bft) W-SW 242 0 min 0,000 mm 0,0 UV-I 60 W/m 6,1 C 4,6 C 16,1 km/h (3 Bft) 96,15 %
09.04.2016 14:09 7,0 C 94 % 1007,0 hPa 0,0 l/m 8,2 km/h (2 Bft) SW 236 0 min 0,000 mm 0,0 UV-I 59 W/m 6,1 C 5,5 C 12,9 km/h (3 Bft) 100,00 %
09.04.2016 14:10 7,0 C 94 % 1007,0 hPa 0,0 l/m 5,8 km/h (2 Bft) S-SW 212 0 min 0,000 mm 0,0 UV-I 57 W/m 6,1 C 7,0 C 8,0 km/h (2 Bft) 96,15 %
09.04.2016 14:11 7,0 C 94 % 1007,0 hPa 0,0 l/m 6,1 km/h (2 Bft) W-SW 240 0 min 0,000 mm 0,0 UV-I 56 W/m 6,1 C 7,0 C 9,7 km/h (2 Bft) 100,00 %
09.04.2016 14:12 7,0 C 94 % 1007,1 hPa 0,0 l/m 6,8 km/h (2 Bft) SW 234 0 min 0,000 mm 0,0 UV-I 54 W/m 6,1 C 6,7 C 9,7 km/h (2 Bft) 95,65 %
09.04.2016 14:13 7,0 C 94 % 1007,0 hPa 0,0 l/m 5,8 km/h (2 Bft) W-SW 256 0 min 0,000 mm 0,0 UV-I 54 W/m 6,1 C 7,0 C 6,4 km/h (2 Bft) 100,00 %
09.04.2016 14:14 7,0 C 94 % 1007,0 hPa 0,0 l/m 7,0 km/h (2 Bft) W-SW 243 0 min 0,000 mm 0,0 UV-I 53 W/m 6,1 C 6,5 C 12,9 km/h (3 Bft) 92,86 %
09.04.2016 14:15 7,0 C 94 % 1007,0 hPa 0,0 l/m 9,3 km/h (2 Bft) SW 234 0 min 0,000 mm 0,0 UV-I 52 W/m 6,1 C 4,8 C 12,9 km/h (3 Bft) 96,67 %
09.04.2016 14:16 7,0 C 94 % 1007,0 hPa 0,0 l/m 6,2 km/h (2 Bft) W-SW 254 0 min 0,000 mm 0,0 UV-I 51 W/m 6,1 C 7,0 C 11,3 km/h (2 Bft) 96,15 %
09.04.2016 14:17 7,0 C 94 % 1007,0 hPa 0,0 l/m 6,5 km/h (2 Bft) W-SW 241 0 min 0,000 mm 0,0 UV-I 49 W/m 6,1 C 6,9 C 8,0 km/h (2 Bft) 95,83 %
09.04.2016 14:18 7,0 C 94 % 1007,0 hPa 0,0 l/m 6,5 km/h (2 Bft) S-SW 206 0 min 0,000 mm 0,0 UV-I 48 W/m 6,1 C 6,9 C 9,7 km/h (2 Bft) 96,15 %
09.04.2016 14:19 7,0 C 94 % 1007,0 hPa 0,0 l/m 6,0 km/h (2 Bft) W-SW 254 0 min 0,000 mm 0,0 UV-I 47 W/m 6,1 C 7,0 C 11,3 km/h (2 Bft) 91,67 %
09.04.2016 14:20 7,0 C 94 % 1007,0 hPa 0,0 l/m 5,9 km/h (2 Bft) SW 236 0 min 0,000 mm 0,0 UV-I 47 W/m 6,1 C 7,0 C 8,0 km/h (2 Bft) 100,00 %
09.04.2016 14:21 7,0 C 94 % 1007,0 hPa 0,0 l/m 5,7 km/h (1 Bft) SW 217 0 min 0,000 mm 0,0 UV-I 48 W/m 6,1 C 7,0 C 9,7 km/h (2 Bft) 95,65 %
09.04.2016 14:22 6,9 C 94 % 1006,9 hPa 0,0 l/m 9,4 km/h (2 Bft) SW 223 0 min 0,000 mm 0,0 UV-I 47 W/m 6,0 C 4,6 C 11,3 km/h (2 Bft) 100,00 %
09.04.2016 14:23 6,9 C 94 % 1007,0 hPa 0,0 l/m 8,1 km/h (2 Bft) SW 228 0 min 0,000 mm 0,0 UV-I 47 W/m 6,0 C 5,5 C 11,3 km/h (2 Bft) 92,86 %
09.04.2016 14:24 6,9 C 94 % 1006,9 hPa 0,0 l/m 6,9 km/h (2 Bft) SW 226 0 min 0,000 mm 0,0 UV-I 46 W/m 6,0 C 6,5 C 12,9 km/h (3 Bft) 100,00 %
09.04.2016 14:25 6,9 C 94 % 1006,9 hPa 0,0 l/m 7,3 km/h (2 Bft) SW 227 0 min 0,000 mm 0,0 UV-I 46 W/m 6,0 C 6,2 C 9,7 km/h (2 Bft) 96,15 %
09.04.2016 14:26 6,9 C 94 % 1006,9 hPa 0,0 l/m 5,6 km/h (1 Bft) SW 229 0 min 0,000 mm 0,0 UV-I 44 W/m 6,0 C 6,9 C 8,0 km/h (2 Bft) 93,33 %
09.04.2016 14:27 6,9 C 94 % 1006,8 hPa 0,0 l/m 5,2 km/h (1 Bft) S-SW 195 0 min 0,000 mm 0,0 UV-I 44 W/m 6,0 C 6,9 C 8,0 km/h (2 Bft) 100,00 %
09.04.2016 14:28 6,9 C 94 % 1006,9 hPa 0,0 l/m 4,6 km/h (1 Bft) SW 222 0 min 0,000 mm 0,0 UV-I 44 W/m 6,0 C 6,9 C 6,4 km/h (2 Bft) 93,33 %
09.04.2016 14:29 6,9 C 94 % 1006,9 hPa 0,0 l/m 3,5 km/h (1 Bft) W-SW 237 0 min 0,000 mm 0,0 UV-I 42 W/m 6,0 C 6,9 C 4,8 km/h (1 Bft) 100,00 %
09.04.2016 14:30 6,9 C 94 % 1006,9 hPa 0,0 l/m 8,0 km/h (2 Bft) SW 234 0 min 0,000 mm 0,0 UV-I 42 W/m 6,0 C 5,6 C 12,9 km/h (3 Bft) 91,67 %
09.04.2016 14:31 6,9 C 94 % 1006,9 hPa 0,0 l/m 6,2 km/h (2 Bft) SW 229 0 min 0,000 mm 0,0 UV-I 43 W/m 6,0 C 6,9 C 8,0 km/h (2 Bft) 100,00 %
09.04.2016 14:32 6,9 C 94 % 1006,9 hPa 0,0 l/m 6,0 km/h (2 Bft) SW 224 0 min 0,000 mm 0,0 UV-I 44 W/m 6,0 C 6,9 C 9,7 km/h (2 Bft) 96,30 %
09.04.2016 14:33 6,9 C 94 % 1006,8 hPa 0,0 l/m 5,4 km/h (1 Bft) W-SW 240 0 min 0,000 mm 0,0 UV-I 45 W/m 6,0 C 6,9 C 12,9 km/h (3 Bft) 95,65 %
09.04.2016 14:34 6,9 C 94 % 1006,9 hPa 0,0 l/m 3,9 km/h (1 Bft) W-SW 238 0 min 0,000 mm 0,0 UV-I 48 W/m 6,0 C 6,9 C 4,8 km/h (1 Bft) 95,83 %
09.04.2016 14:35 6,9 C 94 % 1006,8 hPa 0,0 l/m 5,7 km/h (1 Bft) SW 227 0 min 0,000 mm 0,0 UV-I 53 W/m 6,0 C 6,9 C 9,7 km/h (2 Bft) 91,30 %
09.04.2016 14:36 6,9 C 94 % 1006,8 hPa 0,0 l/m 5,7 km/h (1 Bft) W-SW 238 0 min 0,000 mm 0,0 UV-I 54 W/m 6,0 C 6,9 C 8,0 km/h (2 Bft) 98,43 %
09.04.2016 14:37 6,9 C 94 % 1006,8 hPa 0,0 l/m 5,1 km/h (1 Bft) S-SW 213 0 min 0,000 mm 0,0 UV-I 54 W/m 6,0 C 6,9 C 9,7 km/h (2 Bft) 97,56 %
09.04.2016 14:38 6,9 C 94 % 1006,8 hPa 0,0 l/m 6,7 km/h (2 Bft) W-SW 254 0 min 0,000 mm 0,0 UV-I 55 W/m 6,0 C 6,7 C 9,7 km/h (2 Bft) 92,59 %
09.04.2016 14:39 6,9 C 94 % 1006,8 hPa 0,0 l/m 3,3 km/h (1 Bft) W-SW 246 0 min 0,000 mm 0,0 UV-I 56 W/m 6,0 C 6,9 C 4,8 km/h (1 Bft) 100,00 %
09.04.2016 14:40 6,9 C 94 % 1006,8 hPa 0,0 l/m 3,0 km/h (1 Bft) W-SW 246 0 min 0,000 mm 0,0 UV-I 58 W/m 6,0 C 6,9 C 4,8 km/h (1 Bft) 100,00 %
09.04.2016 14:41 6,9 C 94 % 1006,8 hPa 0,0 l/m 5,6 km/h (1 Bft) S-SW 194 0 min 0,000 mm 0,0 UV-I 58 W/m 6,0 C 6,9 C 8,0 km/h (2 Bft) 100,00 %
09.04.2016 14:42 6,9 C 94 % 1006,8 hPa 0,0 l/m 4,6 km/h (1 Bft) W 265 0 min 0,000 mm 0,0 UV-I 61 W/m 6,0 C 6,9 C 8,0 km/h (2 Bft) 95,83 %
09.04.2016 14:43 6,9 C 94 % 1006,8 hPa 0,0 l/m 4,5 km/h (1 Bft) W-SW 256 0 min 0,000 mm 0,0 UV-I 62 W/m 6,0 C 6,9 C 6,4 km/h (2 Bft) 100,00 %
09.04.2016 14:44 6,9 C 94 % 1006,8 hPa 0,0 l/m 3,9 km/h (1 Bft) W 273 0 min 0,000 mm 0,0 UV-I 63 W/m 6,0 C 6,9 C 6,4 km/h (2 Bft) 100,00 %
09.04.2016 14:45 6,9 C 94 % 1006,8 hPa 0,0 l/m 4,3 km/h (1 Bft) W-SW 237 0 min 0,000 mm 0,0 UV-I 63 W/m 6,0 C 6,9 C 8,0 km/h (2 Bft) 100,00 %
09.04.2016 14:46 6,9 C 94 % 1006,7 hPa 0,0 l/m 6,5 km/h (2 Bft) W-SW 251 0 min 0,000 mm 0,0 UV-I 62 W/m 6,0 C 6,8 C 8,0 km/h (2 Bft) 100,00 %
09.04.2016 14:47 6,9 C 94 % 1006,8 hPa 0,0 l/m 4,8 km/h (1 Bft) SW 215 0 min 0,000 mm 0,0 UV-I 62 W/m 6,0 C 6,9 C 8,0 km/h (2 Bft) 100,00 %
09.04.2016 14:48 6,9 C 94 % 1006,8 hPa 0,0 l/m 4,2 km/h (1 Bft) W-SW 238 0 min 0,000 mm 0,0 UV-I 63 W/m 6,0 C 6,9 C 6,4 km/h (2 Bft) 100,00 %
09.04.2016 14:49 7,0 C 94 % 1006,8 hPa 0,0 l/m 5,4 km/h (1 Bft) W-SW 238 0 min 0,000 mm 0,0 UV-I 62 W/m 6,1 C 7,0 C 6,4 km/h (2 Bft) 96,30 %
09.04.2016 14:50 6,9 C 94 % 1006,8 hPa 0,0 l/m 3,2 km/h (1 Bft) W-SW 238 0 min 0,000 mm 0,0 UV-I 62 W/m 6,0 C 6,9 C 3,2 km/h (1 Bft) 96,15 %
09.04.2016 14:51 7,0 C 94 % 1006,8 hPa 0,0 l/m 2,8 km/h (1 Bft) W-SW 240 0 min 0,000 mm 0,0 UV-I 62 W/m 6,1 C 7,0 C 3,2 km/h (1 Bft) 100,00 %
09.04.2016 14:52 7,0 C 94 % 1006,8 hPa 0,0 l/m 2,7 km/h (1 Bft) SW 225 0 min 0,000 mm 0,0 UV-I 62 W/m 6,1 C 7,0 C 4,8 km/h (1 Bft) 96,15 %
09.04.2016 14:53 7,0 C 94 % 1006,8 hPa 0,0 l/m 4,5 km/h (1 Bft) SW 215 0 min 0,000 mm 0,0 UV-I 62 W/m 6,1 C 7,0 C 6,4 km/h (2 Bft) 100,00 %
09.04.2016 14:54 7,0 C 94 % 1006,8 hPa 0,0 l/m 6,1 km/h (2 Bft) W-SW 238 0 min 0,000 mm 0,0 UV-I 62 W/m 6,1 C 7,0 C 9,7 km/h (2 Bft) 100,00 %
09.04.2016 14:55 7,0 C 94 % 1006,7 hPa 0,0 l/m 5,4 km/h (1 Bft) S-SW 192 0 min 0,000 mm 0,0 UV-I 62 W/m 6,1 C 7,0 C 8,0 km/h (2 Bft) 96,67 %
09.04.2016 14:56 7,0 C 94 % 1006,7 hPa 0,0 l/m 5,7 km/h (1 Bft) S-SW 197 0 min 0,000 mm 0,0 UV-I 62 W/m 6,1 C 7,0 C 8,0 km/h (2 Bft) 100,00 %
09.04.2016 14:57 7,0 C 94 % 1006,7 hPa 0,0 l/m 3,9 km/h (1 Bft) S 190 0 min 0,000 mm 0,0 UV-I 63 W/m 6,1 C 7,0 C 4,8 km/h (1 Bft) 100,00 %
09.04.2016 14:58 7,0 C 93 % 1006,7 hPa 0,0 l/m 3,9 km/h (1 Bft) S-SW 208 0 min 0,000 mm 0,0 UV-I 65 W/m 5,9 C 7,0 C 6,4 km/h (2 Bft) 100,00 %
09.04.2016 14:59 7,0 C 93 % 1006,7 hPa 0,0 l/m 4,4 km/h (1 Bft) SW 232 0 min 0,000 mm 0,0 UV-I 67 W/m 5,9 C 7,0 C 8,0 km/h (2 Bft) 100,00 %
09.04.2016 15:00 7,0 C 93 % 1006,7 hPa 0,0 l/m 3,4 km/h (1 Bft) SW 234 0 min 0,000 mm 0,0 UV-I 67 W/m 5,9 C 7,0 C 4,8 km/h (1 Bft) 100,00 %
09.04.2016 15:01 7,0 C 94 % 1006,7 hPa 0,0 l/m 3,6 km/h (1 Bft) S 174 0 min 0,025 mm 0,0 UV-I 67 W/m 6,1 C 7,0 C 8,0 km/h (2 Bft) 100,00 %
09.04.2016 15:02 7,1 C 94 % 1006,7 hPa 0,0 l/m 3,0 km/h (1 Bft) W 275 0 min 0,000 mm 0,0 UV-I 67 W/m 6,2 C 7,1 C 4,8 km/h (1 Bft) 95,65 %
09.04.2016 15:03 7,1 C 94 % 1006,7 hPa 0,0 l/m 5,0 km/h (1 Bft) W-SW 254 0 min 0,000 mm 0,0 UV-I 67 W/m 6,2 C 7,1 C 8,0 km/h (2 Bft) 100,00 %
09.04.2016 15:04 7,1 C 94 % 1006,7 hPa 0,0 l/m 5,4 km/h (1 Bft) S-SW 213 0 min 0,000 mm 0,0 UV-I 67 W/m 6,2 C 7,1 C 6,4 km/h (2 Bft) 100,00 %
09.04.2016 15:05 7,1 C 94 % 1006,7 hPa 0,0 l/m 5,7 km/h (1 Bft) SW 218 0 min 0,000 mm 0,0 UV-I 67 W/m 6,2 C 7,1 C 9,7 km/h (2 Bft) 100,00 %
09.04.2016 15:06 7,1 C 94 % 1006,7 hPa 0,0 l/m 6,2 km/h (2 Bft) SW 227 0 min 0,000 mm 0,0 UV-I 67 W/m 6,2 C 7,1 C 8,0 km/h (2 Bft) 100,00 %
09.04.2016 15:07 7,1 C 94 % 1006,7 hPa 0,0 l/m 7,9 km/h (2 Bft) SW 232 0 min 0,000 mm 0,0 UV-I 68 W/m 6,2 C 5,9 C 11,3 km/h (2 Bft) 100,00 %
09.04.2016 15:08 7,1 C 93 % 1006,7 hPa 0,0 l/m 5,5 km/h (1 Bft) SW 234 0 min 0,000 mm 0,0 UV-I 69 W/m 6,0 C 7,1 C 8,0 km/h (2 Bft) 100,00 %
09.04.2016 15:09 7,1 C 94 % 1006,7 hPa 0,0 l/m 6,3 km/h (2 Bft) W-SW 255 0 min 0,000 mm 0,0 UV-I 69 W/m 6,2 C 7,1 C 11,3 km/h (2 Bft) 100,00 %
09.04.2016 15:10 7,1 C 94 % 1006,7 hPa 0,0 l/m 5,7 km/h (1 Bft) SW 229 0 min 0,000 mm 0,0 UV-I 69 W/m 6,2 C 7,1 C 11,3 km/h (2 Bft) 100,00 %
09.04.2016 15:11 7,1 C 93 % 1006,7 hPa 0,0 l/m 5,8 km/h (2 Bft) SW 227 0 min 0,000 mm 0,0 UV-I 68 W/m 6,0 C 7,1 C 8,0 km/h (2 Bft) 100,00 %
09.04.2016 15:12 7,1 C 94 % 1006,8 hPa 0,0 l/m 4,3 km/h (1 Bft) SW 227 0 min 0,000 mm 0,0 UV-I 67 W/m 6,2 C 7,1 C 6,4 km/h (2 Bft) 100,00 %
09.04.2016 15:13 7,1 C 94 % 1006,7 hPa 0,0 l/m 4,3 km/h (1 Bft) W 273 0 min 0,000 mm 0,0 UV-I 68 W/m 6,2 C 7,1 C 6,4 km/h (2 Bft) 100,00 %
09.04.2016 15:14 7,2 C 94 % 1006,7 hPa 0,0 l/m 5,0 km/h (1 Bft) SW 226 0 min 0,000 mm 0,0 UV-I 69 W/m 6,3 C 7,2 C 6,4 km/h (2 Bft) 100,00 %
09.04.2016 15:15 7,2 C 93 % 1006,7 hPa 0,0 l/m 6,2 km/h (2 Bft) SW 226 0 min 0,000 mm 0,0 UV-I 70 W/m 6,1 C 7,2 C 8,0 km/h (2 Bft) 100,00 %
09.04.2016 15:16 7,2 C 93 % 1006,7 hPa 0,0 l/m 5,6 km/h (1 Bft) W 261 0 min 0,000 mm 0,0 UV-I 72 W/m 6,1 C 7,2 C 11,3 km/h (2 Bft) 100,00 %
09.04.2016 15:17 7,2 C 93 % 1006,7 hPa 0,0 l/m 5,6 km/h (1 Bft) W 280 0 min 0,000 mm 0,0 UV-I 72 W/m 6,1 C 7,2 C 6,4 km/h (2 Bft) 100,00 %
09.04.2016 15:18 7,1 C 93 % 1006,7 hPa 0,0 l/m 4,0 km/h (1 Bft) W 269 0 min 0,000 mm 0,0 UV-I 73 W/m 6,0 C 7,1 C 9,7 km/h (2 Bft) 100,00 %
09.04.2016 15:19 7,2 C 93 % 1006,7 hPa 0,0 l/m 5,1 km/h (1 Bft) W 274 0 min 0,000 mm 0,0 UV-I 74 W/m 6,1 C 7,2 C 9,7 km/h (2 Bft) 100,00 %
09.04.2016 15:20 7,2 C 93 % 1006,7 hPa 0,0 l/m 4,7 km/h (1 Bft) W-SW 240 0 min 0,000 mm 0,0 UV-I 74 W/m 6,1 C 7,2 C 6,4 km/h (2 Bft) 100,00 %
09.04.2016 15:21 7,2 C 93 % 1006,7 hPa 0,0 l/m 6,4 km/h (2 Bft) W 262 0 min 0,000 mm 0,0 UV-I 74 W/m 6,1 C 7,2 C 9,7 km/h (2 Bft) 100,00 %
09.04.2016 15:22 7,2 C 93 % 1006,7 hPa 0,0 l/m 9,4 km/h (2 Bft) W-SW 244 0 min 0,000 mm 0,0 UV-I 72 W/m 6,1 C 4,9 C 12,9 km/h (3 Bft) 100,00 %
09.04.2016 15:23 7,2 C 93 % 1006,7 hPa 0,0 l/m 7,4 km/h (2 Bft) W 281 0 min 0,000 mm 0,0 UV-I 72 W/m 6,1 C 6,4 C 11,3 km/h (2 Bft) 100,00 %
09.04.2016 15:24 7,2 C 93 % 1006,7 hPa 0,0 l/m 8,2 km/h (2 Bft) SW 236 0 min 0,000 mm 0,0 UV-I 70 W/m 6,1 C 5,8 C 12,9 km/h (3 Bft) 100,00 %
09.04.2016 15:25 7,2 C 93 % 1006,7 hPa 0,0 l/m 6,4 km/h (2 Bft) SW 236 0 min 0,000 mm 0,0 UV-I 69 W/m 6,1 C 7,2 C 9,7 km/h (2 Bft) 96,30 %
09.04.2016 15:26 7,2 C 93 % 1006,7 hPa 0,0 l/m 6,8 km/h (2 Bft) SW 226 0 min 0,000 mm 0,0 UV-I 69 W/m 6,1 C 6,9 C 9,7 km/h (2 Bft) 100,00 %
09.04.2016 15:27 7,2 C 93 % 1006,7 hPa 0,0 l/m 7,0 km/h (2 Bft) SW 231 0 min 0,000 mm 0,0 UV-I 67 W/m 6,1 C 6,7 C 9,7 km/h (2 Bft) 100,00 %
09.04.2016 15:28 7,2 C 93 % 1006,7 hPa 0,0 l/m 6,1 km/h (2 Bft) SW 227 0 min 0,000 mm 0,0 UV-I 67 W/m 6,1 C 7,2 C 9,7 km/h (2 Bft) 100,00 %
09.04.2016 15:29 7,2 C 93 % 1006,7 hPa 0,0 l/m 9,1 km/h (2 Bft) W-SW 254 0 min 0,000 mm 0,0 UV-I 65 W/m 6,1 C 5,1 C 11,3 km/h (2 Bft) 95,83 %
09.04.2016 15:30 7,2 C 93 % 1006,7 hPa 0,0 l/m 7,7 km/h (2 Bft) W-SW 240 0 min 0,000 mm 0,0 UV-I 64 W/m 6,1 C 6,1 C 11,3 km/h (2 Bft) 100,00 %
09.04.2016 15:31 7,2 C 93 % 1006,7 hPa 0,0 l/m 5,0 km/h (1 Bft) SW 226 0 min 0,000 mm 0,0 UV-I 63 W/m 6,1 C 7,2 C 6,4 km/h (2 Bft) 100,00 %
09.04.2016 15:32 7,2 C 93 % 1006,7 hPa 0,0 l/m 5,4 km/h (1 Bft) W-SW 239 0 min 0,000 mm 0,0 UV-I 62 W/m 6,1 C 7,2 C 9,7 km/h (2 Bft) 100,00 %
09.04.2016 15:33 7,2 C 93 % 1006,7 hPa 0,0 l/m 4,7 km/h (1 Bft) W 265 0 min 0,000 mm 0,0 UV-I 60 W/m 6,1 C 7,2 C 8,0 km/h (2 Bft) 100,00 %
09.04.2016 15:34 7,1 C 93 % 1006,7 hPa 0,0 l/m 8,0 km/h (2 Bft) W-SW 245 0 min 0,000 mm 0,0 UV-I 60 W/m 6,0 C 5,8 C 11,3 km/h (2 Bft) 100,00 %
09.04.2016 15:35 7,2 C 93 % 1006,7 hPa 0,0 l/m 7,2 km/h (2 Bft) W-SW 255 0 min 0,000 mm 0,0 UV-I 58 W/m 6,1 C 6,5 C 14,5 km/h (3 Bft) 100,00 %
09.04.2016 15:36 7,2 C 93 % 1006,7 hPa 0,0 l/m 6,2 km/h (2 Bft) S-SW 208 0 min 0,000 mm 0,0 UV-I 57 W/m 6,1 C 7,2 C 11,3 km/h (2 Bft) 100,00 %
09.04.2016 15:37 7,2 C 93 % 1006,7 hPa 0,0 l/m 6,3 km/h (2 Bft) W-SW 248 0 min 0,000 mm 0,0 UV-I 56 W/m 6,1 C 7,2 C 11,3 km/h (2 Bft) 100,00 %
09.04.2016 15:38 7,2 C 93 % 1006,7 hPa 0,0 l/m 7,1 km/h (2 Bft) W-SW 249 0 min 0,000 mm 0,0 UV-I 55 W/m 6,1 C 6,6 C 11,3 km/h (2 Bft) 100,00 %
09.04.2016 15:39 7,2 C 93 % 1006,7 hPa 0,0 l/m 3,5 km/h (1 Bft) W-SW 249 0 min 0,000 mm 0,0 UV-I 54 W/m 6,1 C 7,2 C 6,4 km/h (2 Bft) 96,88 %
09.04.2016 15:40 7,2 C 93 % 1006,7 hPa 0,0 l/m 4,3 km/h (1 Bft) SW 229 0 min 0,000 mm 0,0 UV-I 53 W/m 6,1 C 7,2 C 6,4 km/h (2 Bft) 100,00 %
09.04.2016 15:41 7,2 C 93 % 1006,7 hPa 0,0 l/m 4,0 km/h (1 Bft) W 260 0 min 0,000 mm 0,0 UV-I 53 W/m 6,1 C 7,2 C 6,4 km/h (2 Bft) 100,00 %
09.04.2016 15:42 7,2 C 94 % 1006,6 hPa 0,0 l/m 4,1 km/h (1 Bft) W-SW 252 0 min 0,000 mm 0,0 UV-I 53 W/m 6,3 C 7,2 C 6,4 km/h (2 Bft) 95,65 %
09.04.2016 15:43 7,2 C 93 % 1006,6 hPa 0,0 l/m 4,3 km/h (1 Bft) W-SW 252 0 min 0,000 mm 0,0 UV-I 52 W/m 6,1 C 7,2 C 6,4 km/h (2 Bft) 100,00 %
09.04.2016 15:44 7,2 C 93 % 1006,6 hPa 0,0 l/m 3,1 km/h (1 Bft) W-SW 251 0 min 0,000 mm 0,0 UV-I 51 W/m 6,1 C 7,2 C 4,8 km/h (1 Bft) 100,00 %
09.04.2016 15:45 7,2 C 93 % 1006,6 hPa 0,0 l/m 3,6 km/h (1 Bft) W-SW 255 0 min 0,000 mm 0,0 UV-I 49 W/m 6,1 C 7,2 C 4,8 km/h (1 Bft) 96,15 %
09.04.2016 15:46 7,2 C 93 % 1006,6 hPa 0,0 l/m 5,1 km/h (1 Bft) W-SW 247 0 min 0,000 mm 0,0 UV-I 49 W/m 6,1 C 7,2 C 8,0 km/h (2 Bft) 96,30 %
09.04.2016 15:47 7,2 C 94 % 1006,6 hPa 0,0 l/m 7,0 km/h (2 Bft) W-SW 250 0 min 0,000 mm 0,0 UV-I 48 W/m 6,3 C 6,7 C 11,3 km/h (2 Bft) 95,65 %
09.04.2016 15:48 7,2 C 93 % 1006,7 hPa 0,0 l/m 4,6 km/h (1 Bft) W-SW 248 0 min 0,000 mm 0,0 UV-I 46 W/m 6,1 C 7,2 C 8,0 km/h (2 Bft) 100,00 %
09.04.2016 15:49 7,2 C 93 % 1006,6 hPa 0,0 l/m 3,2 km/h (1 Bft) SW 219 0 min 0,000 mm 0,0 UV-I 46 W/m 6,1 C 7,2 C 6,4 km/h (2 Bft) 100,00 %
09.04.2016 15:50 7,2 C 93 % 1006,6 hPa 0,0 l/m 7,0 km/h (2 Bft) W-SW 242 0 min 0,000 mm 0,0 UV-I 44 W/m 6,1 C 6,7 C 11,3 km/h (2 Bft) 100,00 %
09.04.2016 15:51 7,1 C 93 % 1006,6 hPa 0,0 l/m 7,6 km/h (2 Bft) W-SW 257 0 min 0,000 mm 0,0 UV-I 42 W/m 6,0 C 6,1 C 11,3 km/h (2 Bft) 100,00 %
09.04.2016 15:52 7,1 C 93 % 1006,6 hPa 0,0 l/m 6,0 km/h (2 Bft) SW 236 0 min 0,000 mm 0,0 UV-I 42 W/m 6,0 C 7,1 C 8,0 km/h (2 Bft) 95,83 %
09.04.2016 15:53 7,1 C 93 % 1006,6 hPa 0,0 l/m 5,1 km/h (1 Bft) W 259 0 min 0,000 mm 0,0 UV-I 42 W/m 6,0 C 7,1 C 8,0 km/h (2 Bft) 96,15 %
09.04.2016 15:54 7,1 C 93 % 1006,6 hPa 0,0 l/m 4,4 km/h (1 Bft) W-SW 249 0 min 0,000 mm 0,0 UV-I 41 W/m 6,0 C 7,1 C 6,4 km/h (2 Bft) 100,00 %
09.04.2016 15:55 7,1 C 93 % 1006,6 hPa 0,0 l/m 3,3 km/h (1 Bft) W-SW 246 0 min 0,000 mm 0,0 UV-I 40 W/m 6,0 C 7,1 C 4,8 km/h (1 Bft) 100,00 %
09.04.2016 15:56 7,1 C 93 % 1006,6 hPa 0,0 l/m 5,1 km/h (1 Bft) W-SW 244 0 min 0,000 mm 0,0 UV-I 40 W/m 6,0 C 7,1 C 6,4 km/h (2 Bft) 100,00 %
09.04.2016 15:57 7,1 C 93 % 1006,6 hPa 0,0 l/m 4,8 km/h (1 Bft) SW 227 0 min 0,000 mm 0,0 UV-I 39 W/m 6,0 C 7,1 C 6,4 km/h (2 Bft) 100,00 %
09.04.2016 15:58 7,1 C 93 % 1006,6 hPa 0,0 l/m 5,8 km/h (2 Bft) W-SW 243 0 min 0,000 mm 0,0 UV-I 39 W/m 6,0 C 7,1 C 8,0 km/h (2 Bft) 100,00 %
09.04.2016 15:59 7,1 C 93 % 1006,6 hPa 0,0 l/m 4,7 km/h (1 Bft) SW 224 0 min 0,000 mm 0,0 UV-I 39 W/m 6,0 C 7,1 C 6,4 km/h (2 Bft) 100,00 %
09.04.2016 16:00 7,1 C 93 % 1006,6 hPa 0,0 l/m 6,0 km/h (2 Bft) W-SW 255 0 min 0,000 mm 0,0 UV-I 38 W/m 6,0 C 7,1 C 8,0 km/h (2 Bft) 100,00 %
09.04.2016 16:01 7,1 C 93 % 1006,6 hPa 0,0 l/m 3,6 km/h (1 Bft) W-SW 251 0 min 0,026 mm 0,0 UV-I 37 W/m 6,0 C 7,1 C 4,8 km/h (1 Bft) 100,00 %
09.04.2016 16:02 7,1 C 93 % 1006,6 hPa 0,0 l/m 4,3 km/h (1 Bft) SW 221 0 min 0,000 mm 0,0 UV-I 37 W/m 6,0 C 7,1 C 6,4 km/h (2 Bft) 100,00 %
09.04.2016 16:03 7,1 C 92 % 1006,5 hPa 0,0 l/m 3,1 km/h (1 Bft) S-SW 202 0 min 0,000 mm 0,0 UV-I 35 W/m 5,9 C 7,1 C 4,8 km/h (1 Bft) 98,51 %
09.04.2016 16:04 7,1 C 92 % 1006,5 hPa 0,0 l/m 4,3 km/h (1 Bft) W-SW 254 0 min 0,000 mm 0,0 UV-I 35 W/m 5,9 C 7,1 C 6,4 km/h (2 Bft) 97,87 %
09.04.2016 16:05 7,1 C 92 % 1006,6 hPa 0,0 l/m 4,1 km/h (1 Bft) W-SW 250 0 min 0,000 mm 0,0 UV-I 35 W/m 5,9 C 7,1 C 6,4 km/h (2 Bft) 91,67 %
09.04.2016 16:06 7,1 C 93 % 1006,5 hPa 0,0 l/m 3,4 km/h (1 Bft) W-SW 251 0 min 0,000 mm 0,0 UV-I 35 W/m 6,0 C 7,1 C 4,8 km/h (1 Bft) 100,00 %
09.04.2016 16:07 7,1 C 93 % 1006,5 hPa 0,0 l/m 4,2 km/h (1 Bft) SW 229 0 min 0,000 mm 0,0 UV-I 35 W/m 6,0 C 7,1 C 6,4 km/h (2 Bft) 100,00 %
09.04.2016 16:08 7,1 C 92 % 1006,5 hPa 0,0 l/m 2,3 km/h (1 Bft) SW 229 0 min 0,000 mm 0,0 UV-I 33 W/m 5,9 C 7,1 C 4,8 km/h (1 Bft) 95,65 %
09.04.2016 16:09 7,1 C 92 % 1006,5 hPa 0,0 l/m 4,7 km/h (1 Bft) W-SW 252 0 min 0,000 mm 0,0 UV-I 33 W/m 5,9 C 7,1 C 6,4 km/h (2 Bft) 100,00 %
09.04.2016 16:10 7,1 C 93 % 1006,5 hPa 0,0 l/m 5,1 km/h (1 Bft) W-SW 252 0 min 0,000 mm 0,0 UV-I 33 W/m 6,0 C 7,1 C 9,7 km/h (2 Bft) 92,86 %
09.04.2016 16:11 7,1 C 93 % 1006,5 hPa 0,0 l/m 3,6 km/h (1 Bft) W-SW 254 0 min 0,000 mm 0,0 UV-I 33 W/m 6,0 C 7,1 C 6,4 km/h (2 Bft) 100,00 %
09.04.2016 16:12 7,1 C 93 % 1006,5 hPa 0,0 l/m 4,5 km/h (1 Bft) W-SW 244 0 min 0,000 mm 0,0 UV-I 33 W/m 6,0 C 7,1 C 6,4 km/h (2 Bft) 92,31 %
09.04.2016 16:13 7,1 C 93 % 1006,5 hPa 0,0 l/m 4,1 km/h (1 Bft) W-SW 248 0 min 0,000 mm 0,0 UV-I 33 W/m 6,0 C 7,1 C 6,4 km/h (2 Bft) 100,00 %
09.04.2016 16:14 7,1 C 93 % 1006,6 hPa 0,0 l/m 2,1 km/h (1 Bft) W-SW 248 0 min 0,000 mm 0,0 UV-I 32 W/m 6,0 C 7,1 C 3,2 km/h (1 Bft) 95,65 %
09.04.2016 16:15 7,1 C 93 % 1006,5 hPa 0,0 l/m 3,4 km/h (1 Bft) W-SW 242 0 min 0,000 mm 0,0 UV-I 32 W/m 6,0 C 7,1 C 4,8 km/h (1 Bft) 100,00 %
09.04.2016 16:16 7,1 C 93 % 1006,5 hPa 0,0 l/m 3,9 km/h (1 Bft) W-SW 242 0 min 0,000 mm 0,0 UV-I 31 W/m 6,0 C 7,1 C 4,8 km/h (1 Bft) 96,15 %
09.04.2016 16:17 7,1 C 93 % 1006,6 hPa 0,0 l/m 4,1 km/h (1 Bft) SW 234 0 min 0,000 mm 0,0 UV-I 30 W/m 6,0 C 7,1 C 4,8 km/h (1 Bft) 95,83 %
09.04.2016 16:18 7,1 C 93 % 1006,5 hPa 0,0 l/m 3,2 km/h (1 Bft) SW 234 0 min 0,000 mm 0,0 UV-I 28 W/m 6,0 C 7,1 C 4,8 km/h (1 Bft) 100,00 %
09.04.2016 16:19 7,1 C 93 % 1006,6 hPa 0,0 l/m 3,9 km/h (1 Bft) W 264 0 min 0,000 mm 0,0 UV-I 28 W/m 6,0 C 7,1 C 4,8 km/h (1 Bft) 96,30 %
09.04.2016 16:20 7,1 C 93 % 1006,5 hPa 0,0 l/m 3,3 km/h (1 Bft) W-SW 251 0 min 0,000 mm 0,0 UV-I 28 W/m 6,0 C 7,1 C 4,8 km/h (1 Bft) 100,00 %
09.04.2016 16:21 7,1 C 93 % 1006,6 hPa 0,0 l/m 4,2 km/h (1 Bft) W-SW 248 0 min 0,000 mm 0,0 UV-I 30 W/m 6,0 C 7,1 C 6,4 km/h (2 Bft) 93,33 %
09.04.2016 16:22 7,1 C 93 % 1006,6 hPa 0,0 l/m 5,0 km/h (1 Bft) W-SW 248 0 min 0,000 mm 0,0 UV-I 31 W/m 6,0 C 7,1 C 6,4 km/h (2 Bft) 96,30 %
09.04.2016 16:23 7,1 C 93 % 1006,6 hPa 0,0 l/m 3,5 km/h (1 Bft) W-SW 255 0 min 0,000 mm 0,0 UV-I 32 W/m 6,0 C 7,1 C 6,4 km/h (2 Bft) 96,55 %
09.04.2016 16:24 7,1 C 93 % 1006,6 hPa 0,0 l/m 4,9 km/h (1 Bft) W-SW 246 0 min 0,000 mm 0,0 UV-I 33 W/m 6,0 C 7,1 C 8,0 km/h (2 Bft) 100,00 %
09.04.2016 16:25 7,1 C 92 % 1006,5 hPa 0,0 l/m 4,2 km/h (1 Bft) W-SW 250 0 min 0,000 mm 0,0 UV-I 33 W/m 5,9 C 7,1 C 6,4 km/h (2 Bft) 95,83 %
09.04.2016 16:26 7,1 C 92 % 1006,6 hPa 0,0 l/m 4,6 km/h (1 Bft) W-SW 254 0 min 0,000 mm 0,0 UV-I 33 W/m 5,9 C 7,1 C 6,4 km/h (2 Bft) 95,83 %
09.04.2016 16:27 7,1 C 93 % 1006,6 hPa 0,0 l/m 3,5 km/h (1 Bft) W-SW 248 0 min 0,000 mm 0,0 UV-I 33 W/m 6,0 C 7,1 C 4,8 km/h (1 Bft) 95,65 %
09.04.2016 16:28 7,1 C 93 % 1006,5 hPa 0,0 l/m 4,5 km/h (1 Bft) S-SW 212 0 min 0,000 mm 0,0 UV-I 35 W/m 6,0 C 7,1 C 6,4 km/h (2 Bft) 93,33 %
09.04.2016 16:29 7,1 C 92 % 1006,6 hPa 0,0 l/m 5,4 km/h (1 Bft) SW 224 0 min 0,000 mm 0,0 UV-I 35 W/m 5,9 C 7,1 C 6,4 km/h (2 Bft) 100,00 %
09.04.2016 16:30 7,1 C 93 % 1006,6 hPa 0,0 l/m 5,0 km/h (1 Bft) SW 234 0 min 0,000 mm 0,0 UV-I 35 W/m 6,0 C 7,1 C 6,4 km/h (2 Bft) 96,30 %
09.04.2016 16:31 7,1 C 92 % 1006,6 hPa 0,0 l/m 4,9 km/h (1 Bft) SW 231 0 min 0,000 mm 0,0 UV-I 37 W/m 5,9 C 7,1 C 6,4 km/h (2 Bft) 100,00 %
09.04.2016 16:32 7,1 C 92 % 1006,6 hPa 0,0 l/m 4,6 km/h (1 Bft) W-SW 250 0 min 0,000 mm 0,0 UV-I 37 W/m 5,9 C 7,1 C 6,4 km/h (2 Bft) 91,67 %
09.04.2016 16:33 7,1 C 92 % 1006,6 hPa 0,0 l/m 4,6 km/h (1 Bft) S-SW 203 0 min 0,000 mm 0,0 UV-I 37 W/m 5,9 C 7,1 C 8,0 km/h (2 Bft) 96,15 %
09.04.2016 16:34 7,1 C 92 % 1006,6 hPa 0,0 l/m 6,5 km/h (2 Bft) SW 223 0 min 0,000 mm 0,0 UV-I 37 W/m 5,9 C 7,0 C 8,0 km/h (2 Bft) 95,83 %
09.04.2016 16:35 7,1 C 93 % 1006,6 hPa 0,0 l/m 5,2 km/h (1 Bft) SW 226 0 min 0,000 mm 0,0 UV-I 37 W/m 6,0 C 7,1 C 6,4 km/h (2 Bft) 100,00 %
09.04.2016 16:36 7,1 C 93 % 1006,6 hPa 0,0 l/m 4,1 km/h (1 Bft) S-SW 203 0 min 0,000 mm 0,0 UV-I 38 W/m 6,0 C 7,1 C 8,0 km/h (2 Bft) 96,30 %
09.04.2016 16:37 7,1 C 92 % 1006,6 hPa 0,0 l/m 3,8 km/h (1 Bft) SW 226 0 min 0,000 mm 0,0 UV-I 37 W/m 5,9 C 7,1 C 4,8 km/h (1 Bft) 95,65 %
09.04.2016 16:38 7,1 C 92 % 1006,6 hPa 0,0 l/m 2,7 km/h (1 Bft) SW 226 0 min 0,000 mm 0,0 UV-I 37 W/m 5,9 C 7,1 C 4,8 km/h (1 Bft) 100,00 %
09.04.2016 16:39 7,1 C 92 % 1006,5 hPa 0,0 l/m 4,7 km/h (1 Bft) SW 223 0 min 0,000 mm 0,0 UV-I 37 W/m 5,9 C 7,1 C 6,4 km/h (2 Bft) 96,15 %
09.04.2016 16:40 7,1 C 93 % 1006,6 hPa 0,0 l/m 5,4 km/h (1 Bft) W-SW 240 0 min 0,000 mm 0,0 UV-I 36 W/m 6,0 C 7,1 C 8,0 km/h (2 Bft) 100,00 %
09.04.2016 16:41 7,1 C 93 % 1006,6 hPa 0,0 l/m 5,1 km/h (1 Bft) SW 217 0 min 0,000 mm 0,0 UV-I 35 W/m 6,0 C 7,1 C 6,4 km/h (2 Bft) 95,65 %
09.04.2016 16:42 7,1 C 93 % 1006,6 hPa 0,0 l/m 4,8 km/h (1 Bft) SW 234 0 min 0,000 mm 0,0 UV-I 35 W/m 6,0 C 7,1 C 6,4 km/h (2 Bft) 95,83 %
09.04.2016 16:43 7,1 C 93 % 1006,6 hPa 0,0 l/m 4,5 km/h (1 Bft) SW 234 0 min 0,000 mm 0,0 UV-I 33 W/m 6,0 C 7,1 C 6,4 km/h (2 Bft) 100,00 %
09.04.2016 16:44 7,1 C 93 % 1006,6 hPa 0,0 l/m 5,1 km/h (1 Bft) SW 215 0 min 0,000 mm 0,0 UV-I 33 W/m 6,0 C 7,1 C 6,4 km/h (2 Bft) 100,00 %
09.04.2016 16:45 7,1 C 93 % 1006,6 hPa 0,0 l/m 6,2 km/h (2 Bft) S-SW 207 0 min 0,000 mm 0,0 UV-I 33 W/m 6,0 C 7,1 C 8,0 km/h (2 Bft) 100,00 %
09.04.2016 16:46 7,1 C 93 % 1006,6 hPa 0,0 l/m 6,4 km/h (2 Bft) SW 225 0 min 0,000 mm 0,0 UV-I 33 W/m 6,0 C 7,1 C 8,0 km/h (2 Bft) 100,00 %
09.04.2016 16:47 7,1 C 93 % 1006,6 hPa 0,0 l/m 5,2 km/h (1 Bft) SW 226 0 min 0,000 mm 0,0 UV-I 32 W/m 6,0 C 7,1 C 6,4 km/h (2 Bft) 100,00 %
09.04.2016 16:48 7,1 C 93 % 1006,6 hPa 0,0 l/m 4,1 km/h (1 Bft) SW 225 0 min 0,000 mm 0,0 UV-I 32 W/m 6,0 C 7,1 C 4,8 km/h (1 Bft) 95,65 %
09.04.2016 16:49 7,1 C 92 % 1006,6 hPa 0,0 l/m 3,8 km/h (1 Bft) SW 228 0 min 0,000 mm 0,0 UV-I 32 W/m 5,9 C 7,1 C 6,4 km/h (2 Bft) 100,00 %
09.04.2016 16:50 7,1 C 92 % 1006,6 hPa 0,0 l/m 2,7 km/h (1 Bft) SW 227 0 min 0,000 mm 0,0 UV-I 32 W/m 5,9 C 7,1 C 4,8 km/h (1 Bft) 100,00 %
09.04.2016 16:51 7,1 C 92 % 1006,6 hPa 0,0 l/m 3,4 km/h (1 Bft) SW 227 0 min 0,000 mm 0,0 UV-I 32 W/m 5,9 C 7,1 C 4,8 km/h (1 Bft) 100,00 %
09.04.2016 16:52 7,1 C 92 % 1006,6 hPa 0,0 l/m 3,0 km/h (1 Bft) W-SW 249 0 min 0,000 mm 0,0 UV-I 32 W/m 5,9 C 7,1 C 6,4 km/h (2 Bft) 100,00 %
09.04.2016 16:53 7,1 C 93 % 1006,6 hPa 0,0 l/m 3,4 km/h (1 Bft) W-SW 249 0 min 0,000 mm 0,0 UV-I 31 W/m 6,0 C 7,1 C 4,8 km/h (1 Bft) 100,00 %
09.04.2016 16:54 7,1 C 92 % 1006,6 hPa 0,0 l/m 4,1 km/h (1 Bft) W-SW 249 0 min 0,000 mm 0,0 UV-I 30 W/m 5,9 C 7,1 C 4,8 km/h (1 Bft) 100,00 %
09.04.2016 16:55 7,1 C 93 % 1006,6 hPa 0,0 l/m 3,0 km/h (1 Bft) W-SW 249 0 min 0,000 mm 0,0 UV-I 28 W/m 6,0 C 7,1 C 4,8 km/h (1 Bft) 100,00 %
09.04.2016 16:56 7,1 C 93 % 1006,6 hPa 0,0 l/m 3,5 km/h (1 Bft) W-SW 249 0 min 0,000 mm 0,0 UV-I 28 W/m 6,0 C 7,1 C 4,8 km/h (1 Bft) 100,00 %
09.04.2016 16:57 7,1 C 93 % 1006,6 hPa 0,0 l/m 3,1 km/h (1 Bft) W-SW 249 0 min 0,000 mm 0,0 UV-I 26 W/m 6,0 C 7,1 C 4,8 km/h (1 Bft) 100,00 %
09.04.2016 16:58 7,1 C 93 % 1006,6 hPa 0,0 l/m 4,1 km/h (1 Bft) SW 226 0 min 0,000 mm 0,0 UV-I 26 W/m 6,0 C 7,1 C 4,8 km/h (1 Bft) 100,00 %
09.04.2016 16:59 7,1 C 93 % 1006,6 hPa 0,0 l/m 4,6 km/h (1 Bft) SW 214 0 min 0,000 mm 0,0 UV-I 25 W/m 6,0 C 7,1 C 6,4 km/h (2 Bft) 100,00 %
09.04.2016 17:00 7,1 C 93 % 1006,7 hPa 0,0 l/m 4,4 km/h (1 Bft) SW 227 0 min 0,000 mm 0,0 UV-I 25 W/m 6,0 C 7,1 C 4,8 km/h (1 Bft) 100,00 %
09.04.2016 17:01 7,1 C 93 % 1006,6 hPa 0,0 l/m 4,2 km/h (1 Bft) SW 234 0 min 0,025 mm 0,0 UV-I 25 W/m 6,0 C 7,1 C 6,4 km/h (2 Bft) 96,15 %
09.04.2016 17:02 7,1 C 93 % 1006,6 hPa 0,0 l/m 2,8 km/h (1 Bft) SW 234 0 min 0,000 mm 0,0 UV-I 25 W/m 6,0 C 7,1 C 4,8 km/h (1 Bft) 100,00 %
09.04.2016 17:03 7,1 C 93 % 1006,6 hPa 0,0 l/m 3,2 km/h (1 Bft) SW 234 0 min 0,000 mm 0,0 UV-I 25 W/m 6,0 C 7,1 C 4,8 km/h (1 Bft) 100,00 %
09.04.2016 17:04 7,1 C 93 % 1006,7 hPa 0,0 l/m 2,7 km/h (1 Bft) SW 233 0 min 0,000 mm 0,0 UV-I 26 W/m 6,0 C 7,1 C 4,8 km/h (1 Bft) 100,00 %
09.04.2016 17:05 7,1 C 93 % 1006,6 hPa 0,0 l/m 3,6 km/h (1 Bft) SW 234 0 min 0,000 mm 0,0 UV-I 26 W/m 6,0 C 7,1 C 4,8 km/h (1 Bft) 95,65 %
09.04.2016 17:06 7,1 C 93 % 1006,7 hPa 0,0 l/m 3,1 km/h (1 Bft) SW 234 0 min 0,000 mm 0,0 UV-I 28 W/m 6,0 C 7,1 C 4,8 km/h (1 Bft) 100,00 %
09.04.2016 17:07 7,1 C 92 % 1006,6 hPa 0,0 l/m 4,1 km/h (1 Bft) SW 232 0 min 0,000 mm 0,0 UV-I 28 W/m 5,9 C 7,1 C 6,4 km/h (2 Bft) 95,65 %
09.04.2016 17:08 7,1 C 92 % 1006,7 hPa 0,0 l/m 4,1 km/h (1 Bft) SW 232 0 min 0,000 mm 0,0 UV-I 28 W/m 5,9 C 7,1 C 6,4 km/h (2 Bft) 95,83 %
09.04.2016 17:09 7,1 C 93 % 1006,7 hPa 0,0 l/m 3,8 km/h (1 Bft) SW 232 0 min 0,000 mm 0,0 UV-I 28 W/m 6,0 C 7,1 C 4,8 km/h (1 Bft) 100,00 %
09.04.2016 17:10 7,1 C 92 % 1006,7 hPa 0,0 l/m 3,1 km/h (1 Bft) SW 232 0 min 0,000 mm 0,0 UV-I 28 W/m 5,9 C 7,1 C 4,8 km/h (1 Bft) 100,00 %
09.04.2016 17:11 7,1 C 93 % 1006,7 hPa 0,0 l/m 4,0 km/h (1 Bft) SW 232 0 min 0,000 mm 0,0 UV-I 28 W/m 6,0 C 7,1 C 4,8 km/h (1 Bft) 95,65 %
09.04.2016 17:12 7,1 C 93 % 1006,7 hPa 0,0 l/m 3,4 km/h (1 Bft) SW 232 0 min 0,000 mm 0,0 UV-I 26 W/m 6,0 C 7,1 C 4,8 km/h (1 Bft) 100,00 %
09.04.2016 17:13 7,1 C 93 % 1006,7 hPa 0,0 l/m 4,0 km/h (1 Bft) SW 232 0 min 0,000 mm 0,0 UV-I 26 W/m 6,0 C 7,1 C 6,4 km/h (2 Bft) 95,65 %
09.04.2016 17:14 7,1 C 93 % 1006,8 hPa 0,0 l/m 5,0 km/h (1 Bft) SW 233 0 min 0,000 mm 0,0 UV-I 26 W/m 6,0 C 7,1 C 6,4 km/h (2 Bft) 100,00 %
09.04.2016 17:15 7,1 C 93 % 1006,8 hPa 0,0 l/m 5,0 km/h (1 Bft) SW 229 0 min 0,000 mm 0,0 UV-I 26 W/m 6,0 C 7,1 C 6,4 km/h (2 Bft) 100,00 %
09.04.2016 17:16 7,1 C 93 % 1006,7 hPa 0,0 l/m 3,0 km/h (1 Bft) SW 229 0 min 0,000 mm 0,0 UV-I 26 W/m 6,0 C 7,1 C 4,8 km/h (1 Bft) 100,00 %
09.04.2016 17:17 7,1 C 93 % 1006,8 hPa 0,0 l/m 5,0 km/h (1 Bft) SW 229 0 min 0,000 mm 0,0 UV-I 26 W/m 6,0 C 7,1 C 6,4 km/h (2 Bft) 91,30 %
09.04.2016 17:18 7,1 C 93 % 1006,8 hPa 0,0 l/m 4,3 km/h (1 Bft) SW 229 0 min 0,000 mm 0,0 UV-I 26 W/m 6,0 C 7,1 C 6,4 km/h (2 Bft) 100,00 %
09.04.2016 17:19 7,1 C 93 % 1006,8 hPa 0,0 l/m 4,3 km/h (1 Bft) SW 226 0 min 0,000 mm 0,0 UV-I 26 W/m 6,0 C 7,1 C 6,4 km/h (2 Bft) 100,00 %
09.04.2016 17:20 7,1 C 93 % 1006,8 hPa 0,0 l/m 3,5 km/h (1 Bft) SW 226 0 min 0,000 mm 0,0 UV-I 28 W/m 6,0 C 7,1 C 4,8 km/h (1 Bft) 100,00 %
09.04.2016 17:21 7,1 C 93 % 1006,8 hPa 0,0 l/m 4,5 km/h (1 Bft) SW 226 0 min 0,000 mm 0,0 UV-I 28 W/m 6,0 C 7,1 C 6,4 km/h (2 Bft) 100,00 %
09.04.2016 17:22 7,1 C 93 % 1006,8 hPa 0,0 l/m 4,2 km/h (1 Bft) W-SW 240 0 min 0,000 mm 0,0 UV-I 28 W/m 6,0 C 7,1 C 6,4 km/h (2 Bft) 100,00 %
09.04.2016 17:23 7,1 C 93 % 1006,8 hPa 0,0 l/m 3,4 km/h (1 Bft) W-SW 240 0 min 0,000 mm 0,0 UV-I 28 W/m 6,0 C 7,1 C 4,8 km/h (1 Bft) 100,00 %
09.04.2016 17:24 7,1 C 93 % 1006,8 hPa 0,0 l/m 3,8 km/h (1 Bft) W-SW 238 0 min 0,000 mm 0,0 UV-I 26 W/m 6,0 C 7,1 C 4,8 km/h (1 Bft) 95,65 %
09.04.2016 17:25 7,1 C 93 % 1006,8 hPa 0,0 l/m 3,8 km/h (1 Bft) W-SW 237 0 min 0,000 mm 0,0 UV-I 26 W/m 6,0 C 7,1 C 4,8 km/h (1 Bft) 100,00 %
09.04.2016 17:26 7,1 C 93 % 1006,7 hPa 0,0 l/m 4,4 km/h (1 Bft) W-SW 237 0 min 0,000 mm 0,0 UV-I 26 W/m 6,0 C 7,1 C 6,4 km/h (2 Bft) 100,00 %
09.04.2016 17:27 7,1 C 93 % 1006,8 hPa 0,0 l/m 4,0 km/h (1 Bft) SW 235 0 min 0,000 mm 0,0 UV-I 25 W/m 6,0 C 7,1 C 4,8 km/h (1 Bft) 100,00 %
09.04.2016 17:28 7,1 C 93 % 1006,8 hPa 0,0 l/m 4,4 km/h (1 Bft) SW 235 0 min 0,000 mm 0,0 UV-I 25 W/m 6,0 C 7,1 C 4,8 km/h (1 Bft) 100,00 %
09.04.2016 17:29 7,1 C 93 % 1006,8 hPa 0,0 l/m 3,9 km/h (1 Bft) SW 235 0 min 0,000 mm 0,0 UV-I 25 W/m 6,0 C 7,1 C 4,8 km/h (1 Bft) 100,00 %
09.04.2016 17:30 7,1 C 93 % 1006,8 hPa 0,0 l/m 3,1 km/h (1 Bft) SW 235 0 min 0,000 mm 0,0 UV-I 25 W/m 6,0 C 7,1 C 4,8 km/h (1 Bft) 100,00 %
09.04.2016 17:31 7,1 C 93 % 1006,8 hPa 0,0 l/m 1,9 km/h (1 Bft) SW 235 0 min 0,000 mm 0,0 UV-I 23 W/m 6,0 C 7,1 C 3,2 km/h (1 Bft) 100,00 %
09.04.2016 17:32 7,1 C 93 % 1006,8 hPa 0,0 l/m 2,4 km/h (1 Bft) SW 235 0 min 0,000 mm 0,0 UV-I 21 W/m 6,0 C 7,1 C 3,2 km/h (1 Bft) 100,00 %
09.04.2016 17:33 7,1 C 93 % 1006,8 hPa 0,0 l/m 2,3 km/h (1 Bft) SW 235 0 min 0,000 mm 0,0 UV-I 20 W/m 6,0 C 7,1 C 3,2 km/h (1 Bft) 100,00 %
09.04.2016 17:34 7,1 C 93 % 1006,8 hPa 0,0 l/m 2,6 km/h (1 Bft) SW 235 0 min 0,000 mm 0,0 UV-I 19 W/m 6,0 C 7,1 C 4,8 km/h (1 Bft) 100,00 %
09.04.2016 17:35 7,1 C 93 % 1006,8 hPa 0,0 l/m 3,8 km/h (1 Bft) SW 235 0 min 0,000 mm 0,0 UV-I 19 W/m 6,0 C 7,1 C 4,8 km/h (1 Bft) 100,00 %
09.04.2016 17:36 7,1 C 93 % 1006,8 hPa 0,0 l/m 2,7 km/h (1 Bft) SW 235 0 min 0,000 mm 0,0 UV-I 19 W/m 6,0 C 7,1 C 4,8 km/h (1 Bft) 100,00 %
09.04.2016 17:37 7,1 C 93 % 1006,8 hPa 0,0 l/m 2,4 km/h (1 Bft) SW 235 0 min 0,000 mm 0,0 UV-I 19 W/m 6,0 C 7,1 C 3,2 km/h (1 Bft) 100,00 %
09.04.2016 17:38 7,1 C 93 % 1006,9 hPa 0,0 l/m 3,5 km/h (1 Bft) SW 236 0 min 0,000 mm 0,0 UV-I 19 W/m 6,0 C 7,1 C 4,8 km/h (1 Bft) 100,00 %
09.04.2016 17:39 7,1 C 93 % 1006,9 hPa 0,0 l/m 3,1 km/h (1 Bft) SW 235 0 min 0,000 mm 0,0 UV-I 19 W/m 6,0 C 7,1 C 4,8 km/h (1 Bft) 100,00 %
09.04.2016 17:40 7,1 C 93 % 1006,9 hPa 0,0 l/m 3,3 km/h (1 Bft) SW 235 0 min 0,000 mm 0,0 UV-I 19 W/m 6,0 C 7,1 C 4,8 km/h (1 Bft) 100,00 %
09.04.2016 17:41 7,1 C 94 % 1006,8 hPa 0,0 l/m 3,6 km/h (1 Bft) SW 235 0 min 0,000 mm 0,0 UV-I 18 W/m 6,2 C 7,1 C 4,8 km/h (1 Bft) 100,00 %
09.04.2016 17:42 7,1 C 94 % 1006,9 hPa 0,0 l/m 4,9 km/h (1 Bft) SW 234 0 min 0,000 mm 0,0 UV-I 18 W/m 6,2 C 7,1 C 6,4 km/h (2 Bft) 100,00 %
09.04.2016 17:43 7,1 C 94 % 1006,9 hPa 0,0 l/m 4,8 km/h (1 Bft) S-SW 195 0 min 0,000 mm 0,0 UV-I 18 W/m 6,2 C 7,1 C 6,4 km/h (2 Bft) 100,00 %
09.04.2016 17:44 7,1 C 94 % 1006,9 hPa 0,0 l/m 5,4 km/h (1 Bft) S-SW 207 0 min 0,000 mm 0,0 UV-I 18 W/m 6,2 C 7,1 C 8,0 km/h (2 Bft) 100,00 %
09.04.2016 17:45 7,1 C 94 % 1006,9 hPa 0,0 l/m 2,6 km/h (1 Bft) S-SW 202 0 min 0,000 mm 0,0 UV-I 18 W/m 6,2 C 7,1 C 4,8 km/h (1 Bft) 95,65 %
09.04.2016 17:46 7,1 C 94 % 1006,9 hPa 0,0 l/m 2,5 km/h (1 Bft) S-SW 209 0 min 0,000 mm 0,0 UV-I 18 W/m 6,2 C 7,1 C 4,8 km/h (1 Bft) 100,00 %
09.04.2016 17:47 7,1 C 93 % 1006,9 hPa 0,0 l/m 2,7 km/h (1 Bft) S-SW 210 0 min 0,000 mm 0,0 UV-I 18 W/m 6,0 C 7,1 C 4,8 km/h (1 Bft) 100,00 %
09.04.2016 17:48 7,1 C 94 % 1006,9 hPa 0,0 l/m 3,6 km/h (1 Bft) SW 223 0 min 0,000 mm 0,0 UV-I 16 W/m 6,2 C 7,1 C 4,8 km/h (1 Bft) 100,00 %
09.04.2016 17:49 7,1 C 94 % 1006,9 hPa 0,0 l/m 3,4 km/h (1 Bft) SW 219 0 min 0,000 mm 0,0 UV-I 16 W/m 6,2 C 7,1 C 6,4 km/h (2 Bft) 95,65 %
09.04.2016 17:50 7,0 C 94 % 1006,9 hPa 0,0 l/m 5,3 km/h (1 Bft) SW 224 0 min 0,000 mm 0,0 UV-I 17 W/m 6,1 C 7,0 C 6,4 km/h (2 Bft) 100,00 %
09.04.2016 17:51 7,0 C 94 % 1006,9 hPa 0,0 l/m 4,0 km/h (1 Bft) SW 224 0 min 0,000 mm 0,0 UV-I 18 W/m 6,1 C 7,0 C 4,8 km/h (1 Bft) 100,00 %
09.04.2016 17:52 7,0 C 94 % 1006,9 hPa 0,0 l/m 3,7 km/h (1 Bft) SW 224 0 min 0,000 mm 0,0 UV-I 18 W/m 6,1 C 7,0 C 4,8 km/h (1 Bft) 100,00 %
09.04.2016 17:53 7,0 C 94 % 1006,9 hPa 0,0 l/m 3,6 km/h (1 Bft) SW 224 0 min 0,000 mm 0,0 UV-I 18 W/m 6,1 C 7,0 C 6,4 km/h (2 Bft) 95,65 %
09.04.2016 17:54 7,0 C 94 % 1006,9 hPa 0,0 l/m 4,1 km/h (1 Bft) SW 223 0 min 0,000 mm 0,0 UV-I 18 W/m 6,1 C 7,0 C 4,8 km/h (1 Bft) 100,00 %
09.04.2016 17:55 7,0 C 94 % 1006,9 hPa 0,0 l/m 3,3 km/h (1 Bft) SW 216 0 min 0,000 mm 0,0 UV-I 16 W/m 6,1 C 7,0 C 4,8 km/h (1 Bft) 86,67 %
09.04.2016 17:56 7,0 C 94 % 1007,0 hPa 0,0 l/m 2,8 km/h (1 Bft) SW 216 0 min 0,000 mm 0,0 UV-I 16 W/m 6,1 C 7,0 C 4,8 km/h (1 Bft) 100,00 %
09.04.2016 17:57 7,0 C 94 % 1007,0 hPa 0,0 l/m 2,5 km/h (1 Bft) SW 216 0 min 0,000 mm 0,0 UV-I 16 W/m 6,1 C 7,0 C 3,2 km/h (1 Bft) 100,00 %
09.04.2016 17:58 7,0 C 94 % 1007,0 hPa 0,0 l/m 2,9 km/h (1 Bft) SW 216 0 min 0,000 mm 0,0 UV-I 16 W/m 6,1 C 7,0 C 4,8 km/h (1 Bft) 100,00 %
09.04.2016 17:59 7,0 C 94 % 1007,0 hPa 0,0 l/m 3,8 km/h (1 Bft) SW 216 0 min 0,000 mm 0,0 UV-I 16 W/m 6,1 C 7,0 C 4,8 km/h (1 Bft) 100,00 %
09.04.2016 18:00 7,0 C 94 % 1007,0 hPa 0,0 l/m 3,5 km/h (1 Bft) SW 216 0 min 0,000 mm 0,0 UV-I 16 W/m 6,1 C 7,0 C 4,8 km/h (1 Bft) 100,00 %
09.04.2016 18:01 7,0 C 94 % 1007,0 hPa 0,0 l/m 3,0 km/h (1 Bft) SW 216 0 min 0,000 mm 0,0 UV-I 14 W/m 6,1 C 7,0 C 4,8 km/h (1 Bft) 100,00 %
09.04.2016 18:02 7,0 C 94 % 1007,0 hPa 0,0 l/m 2,1 km/h (1 Bft) SW 216 0 min 0,000 mm 0,0 UV-I 14 W/m 6,1 C 7,0 C 3,2 km/h (1 Bft) 100,00 %
09.04.2016 18:03 7,0 C 94 % 1007,0 hPa 0,0 l/m 2,3 km/h (1 Bft) SW 216 0 min 0,000 mm 0,0 UV-I 13 W/m 6,1 C 7,0 C 3,2 km/h (1 Bft) 100,00 %
09.04.2016 18:04 7,0 C 94 % 1007,0 hPa 0,0 l/m 0,9 km/h (0 Bft) SW 216 0 min 0,000 mm 0,0 UV-I 12 W/m 6,1 C 7,0 C 1,6 km/h (1 Bft) 100,00 %
09.04.2016 18:05 7,0 C 94 % 1007,0 hPa 0,0 l/m 0,6 km/h (0 Bft) SW 216 0 min 0,000 mm 0,0 UV-I 12 W/m 6,1 C 7,0 C 1,6 km/h (1 Bft) 100,00 %
09.04.2016 18:06 7,0 C 94 % 1007,0 hPa 0,0 l/m 1,5 km/h (1 Bft) SW 216 0 min 0,000 mm 0,0 UV-I 11 W/m 6,1 C 7,0 C 3,2 km/h (1 Bft) 100,00 %
09.04.2016 18:07 7,0 C 94 % 1007,0 hPa 0,0 l/m 1,3 km/h (1 Bft) SW 216 0 min 0,000 mm 0,0 UV-I 11 W/m 6,1 C 7,0 C 3,2 km/h (1 Bft) 100,00 %
09.04.2016 18:08 7,0 C 94 % 1006,9 hPa 0,0 l/m 1,8 km/h (1 Bft) SW 216 0 min 0,000 mm 0,0 UV-I 12 W/m 6,1 C 7,0 C 3,2 km/h (1 Bft) 100,00 %
09.04.2016 18:09 7,0 C 94 % 1007,0 hPa 0,0 l/m 1,9 km/h (1 Bft) SW 216 0 min 0,000 mm 0,0 UV-I 12 W/m 6,1 C 7,0 C 3,2 km/h (1 Bft) 95,83 %
09.04.2016 18:10 7,0 C 94 % 1006,9 hPa 0,0 l/m 1,7 km/h (1 Bft) SW 216 0 min 0,000 mm 0,0 UV-I 12 W/m 6,1 C 7,0 C 3,2 km/h (1 Bft) 100,00 %
09.04.2016 18:11 7,0 C 94 % 1007,0 hPa 0,0 l/m 2,8 km/h (1 Bft) SW 216 0 min 0,000 mm 0,0 UV-I 12 W/m 6,1 C 7,0 C 3,2 km/h (1 Bft) 100,00 %
09.04.2016 18:12 7,0 C 94 % 1006,9 hPa 0,0 l/m 1,8 km/h (1 Bft) SW 216 0 min 0,000 mm 0,0 UV-I 12 W/m 6,1 C 7,0 C 3,2 km/h (1 Bft) 95,65 %
09.04.2016 18:13 7,0 C 94 % 1007,0 hPa 0,0 l/m 2,4 km/h (1 Bft) SW 216 0 min 0,000 mm 0,0 UV-I 13 W/m 6,1 C 7,0 C 3,2 km/h (1 Bft) 100,00 %
09.04.2016 18:14 7,1 C 94 % 1006,9 hPa 0,0 l/m 2,5 km/h (1 Bft) SW 216 0 min 0,000 mm 0,0 UV-I 14 W/m 6,2 C 7,1 C 3,2 km/h (1 Bft) 95,65 %
09.04.2016 18:15 7,1 C 94 % 1007,0 hPa 0,0 l/m 1,6 km/h (1 Bft) SW 216 0 min 0,000 mm 0,0 UV-I 14 W/m 6,2 C 7,1 C 3,2 km/h (1 Bft) 100,00 %
09.04.2016 18:16 7,1 C 94 % 1007,0 hPa 0,0 l/m 1,5 km/h (1 Bft) SW 216 0 min 0,000 mm 0,0 UV-I 14 W/m 6,2 C 7,1 C 3,2 km/h (1 Bft) 91,30 %
09.04.2016 18:17 7,0 C 94 % 1007,0 hPa 0,0 l/m 1,8 km/h (1 Bft) SW 216 0 min 0,000 mm 0,0 UV-I 14 W/m 6,1 C 7,0 C 3,2 km/h (1 Bft) 100,00 %
09.04.2016 18:18 7,1 C 94 % 1006,9 hPa 0,0 l/m 1,3 km/h (1 Bft) SW 216 0 min 0,000 mm 0,0 UV-I 14 W/m 6,2 C 7,1 C 3,2 km/h (1 Bft) 91,30 %
09.04.2016 18:19 7,0 C 94 % 1007,0 hPa 0,0 l/m 1,7 km/h (1 Bft) SW 216 0 min 0,000 mm 0,0 UV-I 14 W/m 6,1 C 7,0 C 3,2 km/h (1 Bft) 91,67 %
09.04.2016 18:20 7,1 C 94 % 1007,0 hPa 0,0 l/m 2,7 km/h (1 Bft) SW 216 0 min 0,000 mm 0,0 UV-I 14 W/m 6,2 C 7,1 C 4,8 km/h (1 Bft) 95,65 %
09.04.2016 18:21 7,0 C 94 % 1007,0 hPa 0,0 l/m 1,9 km/h (1 Bft) SW 216 0 min 0,000 mm 0,0 UV-I 14 W/m 6,1 C 7,0 C 3,2 km/h (1 Bft) 95,83 %
09.04.2016 18:22 7,0 C 94 % 1007,0 hPa 0,0 l/m 1,9 km/h (1 Bft) SW 216 0 min 0,000 mm 0,0 UV-I 14 W/m 6,1 C 7,0 C 3,2 km/h (1 Bft) 100,00 %
09.04.2016 18:23 7,0 C 94 % 1007,0 hPa 0,0 l/m 1,7 km/h (1 Bft) SW 216 0 min 0,000 mm 0,0 UV-I 14 W/m 6,1 C 7,0 C 3,2 km/h (1 Bft) 85,71 %
09.04.2016 18:24 7,0 C 94 % 1007,0 hPa 0,0 l/m 1,0 km/h (0 Bft) SW 216 0 min 0,000 mm 0,0 UV-I 14 W/m 6,1 C 7,0 C 1,6 km/h (1 Bft) 100,00 %
09.04.2016 18:25 7,0 C 94 % 1007,0 hPa 0,0 l/m 0,2 km/h (0 Bft) SW 216 0 min 0,000 mm 0,0 UV-I 13 W/m 6,1 C 7,0 C 1,6 km/h (1 Bft) 96,15 %
09.04.2016 18:26 7,0 C 94 % 1007,0 hPa 0,0 l/m 0,1 km/h (0 Bft) SW 216 0 min 0,000 mm 0,0 UV-I 12 W/m 6,1 C 7,0 C 1,6 km/h (1 Bft) 95,83 %
09.04.2016 18:27 7,0 C 94 % 1007,0 hPa 0,0 l/m 0,3 km/h (0 Bft) SW 216 0 min 0,000 mm 0,0 UV-I 12 W/m 6,1 C 7,0 C 1,6 km/h (1 Bft) 95,65 %
09.04.2016 18:28 6,9 C 94 % 1007,0 hPa 0,0 l/m 0,1 km/h (0 Bft) SW 216 0 min 0,000 mm 0,0 UV-I 12 W/m 6,0 C 6,9 C 1,6 km/h (1 Bft) 95,83 %
09.04.2016 18:29 6,9 C 94 % 1007,0 hPa 0,0 l/m 3,0 km/h (1 Bft) SW 216 0 min 0,000 mm 0,0 UV-I 12 W/m 6,0 C 6,9 C 4,8 km/h (1 Bft) 95,65 %
09.04.2016 18:30 6,9 C 94 % 1007,0 hPa 0,0 l/m 1,1 km/h (1 Bft) SW 216 0 min 0,000 mm 0,0 UV-I 11 W/m 6,0 C 6,9 C 3,2 km/h (1 Bft) 95,83 %
09.04.2016 18:31 6,9 C 94 % 1007,0 hPa 0,0 l/m 2,3 km/h (1 Bft) SW 216 0 min 0,000 mm 0,0 UV-I 11 W/m 6,0 C 6,9 C 3,2 km/h (1 Bft) 100,00 %
09.04.2016 18:32 6,9 C 94 % 1007,0 hPa 0,0 l/m 1,9 km/h (1 Bft) SW 216 0 min 0,000 mm 0,0 UV-I 11 W/m 6,0 C 6,9 C 3,2 km/h (1 Bft) 95,83 %
09.04.2016 18:33 6,9 C 94 % 1007,0 hPa 0,0 l/m 2,4 km/h (1 Bft) SW 216 0 min 0,000 mm 0,0 UV-I 11 W/m 6,0 C 6,9 C 3,2 km/h (1 Bft) 95,65 %
09.04.2016 18:34 6,9 C 94 % 1007,0 hPa 0,0 l/m 1,7 km/h (1 Bft) SW 216 0 min 0,000 mm 0,0 UV-I 11 W/m 6,0 C 6,9 C 3,2 km/h (1 Bft) 95,83 %
09.04.2016 18:35 6,9 C 95 % 1007,1 hPa 0,0 l/m 0,7 km/h (0 Bft) SW 216 0 min 0,000 mm 0,0 UV-I 11 W/m 6,2 C 6,9 C 1,6 km/h (1 Bft) 100,00 %
09.04.2016 18:36 6,9 C 94 % 1007,1 hPa 0,0 l/m 1,0 km/h (0 Bft) SW 216 0 min 0,000 mm 0,0 UV-I 11 W/m 6,0 C 6,9 C 1,6 km/h (1 Bft) 95,83 %
09.04.2016 18:37 6,9 C 94 % 1007,1 hPa 0,0 l/m 1,0 km/h (0 Bft) SW 216 0 min 0,000 mm 0,0 UV-I 11 W/m 6,0 C 6,9 C 3,2 km/h (1 Bft) 95,65 %
09.04.2016 18:38 6,9 C 94 % 1007,1 hPa 0,0 l/m 2,1 km/h (1 Bft) SW 216 0 min 0,000 mm 0,0 UV-I 11 W/m 6,0 C 6,9 C 3,2 km/h (1 Bft) 100,00 %
09.04.2016 18:39 6,9 C 94 % 1007,1 hPa 0,0 l/m 0,4 km/h (0 Bft) SW 216 0 min 0,000 mm 0,0 UV-I 11 W/m 6,0 C 6,9 C 1,6 km/h (1 Bft) 95,83 %
09.04.2016 18:40 6,9 C 94 % 1007,1 hPa 0,0 l/m 1,1 km/h (1 Bft) SW 216 0 min 0,000 mm 0,0 UV-I 11 W/m 6,0 C 6,9 C 1,6 km/h (1 Bft) 100,00 %
09.04.2016 18:41 6,9 C 94 % 1007,1 hPa 0,0 l/m 1,5 km/h (1 Bft) SW 216 0 min 0,000 mm 0,0 UV-I 11 W/m 6,0 C 6,9 C 3,2 km/h (1 Bft) 95,83 %
09.04.2016 18:42 6,9 C 94 % 1007,1 hPa 0,0 l/m 2,3 km/h (1 Bft) SW 216 0 min 0,000 mm 0,0 UV-I 11 W/m 6,0 C 6,9 C 3,2 km/h (1 Bft) 100,00 %
09.04.2016 18:43 6,9 C 94 % 1007,1 hPa 0,0 l/m 0,7 km/h (0 Bft) SW 216 0 min 0,000 mm 0,0 UV-I 10 W/m 6,0 C 6,9 C 1,6 km/h (1 Bft) 95,83 %
09.04.2016 18:44 6,9 C 94 % 1007,1 hPa 0,0 l/m 1,9 km/h (1 Bft) SW 216 0 min 0,000 mm 0,0 UV-I 9 W/m 6,0 C 6,9 C 3,2 km/h (1 Bft) 95,65 %
09.04.2016 18:45 6,9 C 94 % 1007,1 hPa 0,0 l/m 3,1 km/h (1 Bft) SW 216 0 min 0,000 mm 0,0 UV-I 9 W/m 6,0 C 6,9 C 4,8 km/h (1 Bft) 100,00 %
09.04.2016 18:46 6,9 C 94 % 1007,1 hPa 0,0 l/m 2,3 km/h (1 Bft) SW 216 0 min 0,000 mm 0,0 UV-I 9 W/m 6,0 C 6,9 C 3,2 km/h (1 Bft) 95,65 %
09.04.2016 18:47 6,9 C 94 % 1007,1 hPa 0,0 l/m 3,4 km/h (1 Bft) SW 229 0 min 0,000 mm 0,0 UV-I 9 W/m 6,0 C 6,9 C 6,4 km/h (2 Bft) 100,00 %
09.04.2016 18:48 6,9 C 94 % 1007,1 hPa 0,0 l/m 3,8 km/h (1 Bft) W-SW 242 0 min 0,000 mm 0,0 UV-I 9 W/m 6,0 C 6,9 C 4,8 km/h (1 Bft) 100,00 %
09.04.2016 18:49 6,9 C 94 % 1007,1 hPa 0,0 l/m 3,4 km/h (1 Bft) W-SW 242 0 min 0,000 mm 0,0 UV-I 9 W/m 6,0 C 6,9 C 4,8 km/h (1 Bft) 100,00 %
09.04.2016 18:50 6,9 C 94 % 1007,2 hPa 0,0 l/m 3,1 km/h (1 Bft) W-SW 242 0 min 0,000 mm 0,0 UV-I 8 W/m 6,0 C 6,9 C 4,8 km/h (1 Bft) 100,00 %
09.04.2016 18:51 6,9 C 94 % 1007,1 hPa 0,0 l/m 4,0 km/h (1 Bft) W-SW 239 0 min 0,000 mm 0,0 UV-I 7 W/m 6,0 C 6,9 C 4,8 km/h (1 Bft) 91,67 %
09.04.2016 18:52 6,9 C 94 % 1007,1 hPa 0,0 l/m 3,6 km/h (1 Bft) W-SW 239 0 min 0,000 mm 0,0 UV-I 7 W/m 6,0 C 6,9 C 4,8 km/h (1 Bft) 100,00 %
09.04.2016 18:53 6,9 C 94 % 1007,1 hPa 0,0 l/m 5,2 km/h (1 Bft) S-SW 209 0 min 0,000 mm 0,0 UV-I 7 W/m 6,0 C 6,9 C 6,4 km/h (2 Bft) 95,83 %
09.04.2016 18:54 6,8 C 94 % 1007,2 hPa 0,0 l/m 5,9 km/h (2 Bft) S 171 0 min 0,000 mm 0,0 UV-I 7 W/m 5,9 C 6,8 C 8,0 km/h (2 Bft) 100,00 %
09.04.2016 18:55 6,8 C 94 % 1007,2 hPa 0,0 l/m 3,4 km/h (1 Bft) S 182 0 min 0,000 mm 0,0 UV-I 7 W/m 5,9 C 6,8 C 4,8 km/h (1 Bft) 100,00 %
09.04.2016 18:56 6,8 C 94 % 1007,2 hPa 0,0 l/m 4,7 km/h (1 Bft) S 189 0 min 0,000 mm 0,0 UV-I 8 W/m 5,9 C 6,8 C 6,4 km/h (2 Bft) 100,00 %
09.04.2016 18:57 6,8 C 94 % 1007,2 hPa 0,0 l/m 3,6 km/h (1 Bft) S 188 0 min 0,000 mm 0,0 UV-I 9 W/m 5,9 C 6,8 C 6,4 km/h (2 Bft) 100,00 %
09.04.2016 18:58 6,8 C 94 % 1007,2 hPa 0,0 l/m 3,0 km/h (1 Bft) S 188 0 min 0,000 mm 0,0 UV-I 9 W/m 5,9 C 6,8 C 4,8 km/h (1 Bft) 100,00 %
09.04.2016 18:59 6,8 C 94 % 1007,3 hPa 0,0 l/m 2,8 km/h (1 Bft) S 188 0 min 0,000 mm 0,0 UV-I 7 W/m 5,9 C 6,8 C 4,8 km/h (1 Bft) 100,00 %
09.04.2016 19:00 6,8 C 94 % 1007,3 hPa 0,0 l/m 3,4 km/h (1 Bft) S 188 0 min 0,000 mm 0,0 UV-I 7 W/m 5,9 C 6,8 C 4,8 km/h (1 Bft) 100,00 %
09.04.2016 19:01 6,8 C 95 % 1007,3 hPa 0,0 l/m 2,5 km/h (1 Bft) S 188 0 min 0,000 mm 0,0 UV-I 7 W/m 6,1 C 6,8 C 3,2 km/h (1 Bft) 100,00 %
09.04.2016 19:02 6,8 C 94 % 1007,2 hPa 0,0 l/m 2,3 km/h (1 Bft) S 188 0 min 0,000 mm 0,0 UV-I 7 W/m 5,9 C 6,8 C 3,2 km/h (1 Bft) 100,00 %
09.04.2016 19:03 6,8 C 94 % 1007,3 hPa 0,0 l/m 1,5 km/h (1 Bft) S 188 0 min 0,000 mm 0,0 UV-I 7 W/m 5,9 C 6,8 C 1,6 km/h (1 Bft) 100,00 %
09.04.2016 19:06 6,8 C 94 % 1007,3 hPa 0,0 l/m 4,1 km/h (1 Bft) S 191 0 min 0,000 mm 0,0 UV-I 7 W/m 5,9 C 6,8 C 4,8 km/h (1 Bft) 100,00 %
09.04.2016 19:07 6,8 C 94 % 1007,3 hPa 0,0 l/m 2,9 km/h (1 Bft) S 191 0 min 0,000 mm 0,0 UV-I 7 W/m 5,9 C 6,8 C 3,2 km/h (1 Bft) 100,00 %
09.04.2016 19:08 6,8 C 94 % 1007,3 hPa 0,0 l/m 1,3 km/h (1 Bft) S 191 0 min 0,000 mm 0,0 UV-I 7 W/m 5,9 C 6,8 C 3,2 km/h (1 Bft) 100,00 %
09.04.2016 19:09 6,8 C 94 % 1007,3 hPa 0,0 l/m 1,9 km/h (1 Bft) S 191 0 min 0,000 mm 0,0 UV-I 7 W/m 5,9 C 6,8 C 3,2 km/h (1 Bft) 100,00 %
09.04.2016 19:10 6,8 C 94 % 1007,3 hPa 0,0 l/m 2,9 km/h (1 Bft) S 191 0 min 0,000 mm 0,0 UV-I 7 W/m 5,9 C 6,8 C 3,2 km/h (1 Bft) 100,00 %
09.04.2016 19:11 6,8 C 94 % 1007,3 hPa 0,0 l/m 2,3 km/h (1 Bft) S 191 0 min 0,000 mm 0,0 UV-I 5 W/m 5,9 C 6,8 C 3,2 km/h (1 Bft) 100,00 %
09.04.2016 19:12 6,8 C 94 % 1007,3 hPa 0,0 l/m 2,1 km/h (1 Bft) S 191 0 min 0,000 mm 0,0 UV-I 5 W/m 5,9 C 6,8 C 3,2 km/h (1 Bft) 100,00 %
09.04.2016 19:13 6,8 C 94 % 1007,3 hPa 0,0 l/m 2,0 km/h (1 Bft) S 191 0 min 0,000 mm 0,0 UV-I 5 W/m 5,9 C 6,8 C 3,2 km/h (1 Bft) 95,65 %
09.04.2016 19:14 6,8 C 94 % 1007,4 hPa 0,0 l/m 2,5 km/h (1 Bft) S 191 0 min 0,000 mm 0,0 UV-I 5 W/m 5,9 C 6,8 C 3,2 km/h (1 Bft) 95,83 %
09.04.2016 19:15 6,8 C 94 % 1007,4 hPa 0,0 l/m 2,9 km/h (1 Bft) S 191 0 min 0,000 mm 0,0 UV-I 5 W/m 5,9 C 6,8 C 3,2 km/h (1 Bft) 100,00 %
09.04.2016 19:16 6,8 C 94 % 1007,4 hPa 0,0 l/m 2,9 km/h (1 Bft) S 191 0 min 0,000 mm 0,0 UV-I 5 W/m 5,9 C 6,8 C 3,2 km/h (1 Bft) 100,00 %
09.04.2016 19:17 6,8 C 94 % 1007,4 hPa 0,0 l/m 2,7 km/h (1 Bft) S 191 0 min 0,000 mm 0,0 UV-I 5 W/m 5,9 C 6,8 C 4,8 km/h (1 Bft) 100,00 %
09.04.2016 19:18 6,8 C 94 % 1007,4 hPa 0,0 l/m 1,8 km/h (1 Bft) S 191 0 min 0,000 mm 0,0 UV-I 5 W/m 5,9 C 6,8 C 3,2 km/h (1 Bft) 100,00 %
09.04.2016 19:19 6,8 C 94 % 1007,4 hPa 0,0 l/m 2,2 km/h (1 Bft) S 191 0 min 0,000 mm 0,0 UV-I 5 W/m 5,9 C 6,8 C 3,2 km/h (1 Bft) 100,00 %
09.04.2016 19:20 6,8 C 94 % 1007,4 hPa 0,0 l/m 3,0 km/h (1 Bft) S 191 0 min 0,000 mm 0,0 UV-I 5 W/m 5,9 C 6,8 C 3,2 km/h (1 Bft) 100,00 %
09.04.2016 19:21 6,8 C 94 % 1007,5 hPa 0,0 l/m 1,4 km/h (1 Bft) S 191 0 min 0,000 mm 0,0 UV-I 5 W/m 5,9 C 6,8 C 1,6 km/h (1 Bft) 100,00 %
09.04.2016 19:22 6,8 C 94 % 1007,4 hPa 0,0 l/m 1,7 km/h (1 Bft) S 191 0 min 0,000 mm 0,0 UV-I 5 W/m 5,9 C 6,8 C 3,2 km/h (1 Bft) 96,15 %
09.04.2016 19:23 6,8 C 94 % 1007,5 hPa 0,0 l/m 1,7 km/h (1 Bft) S 191 0 min 0,000 mm 0,0 UV-I 5 W/m 5,9 C 6,8 C 3,2 km/h (1 Bft) 100,00 %
09.04.2016 19:24 6,8 C 94 % 1007,5 hPa 0,0 l/m 2,9 km/h (1 Bft) S 191 0 min 0,000 mm 0,0 UV-I 5 W/m 5,9 C 6,8 C 4,8 km/h (1 Bft) 100,00 %
09.04.2016 19:25 6,8 C 94 % 1007,5 hPa 0,0 l/m 4,3 km/h (1 Bft) S 191 0 min 0,000 mm 0,0 UV-I 2 W/m 5,9 C 6,8 C 4,8 km/h (1 Bft) 100,00 %
09.04.2016 19:26 6,8 C 94 % 1007,5 hPa 0,0 l/m 4,1 km/h (1 Bft) S 191 0 min 0,000 mm 0,0 UV-I 0 W/m 5,9 C 6,8 C 4,8 km/h (1 Bft) 100,00 %
09.04.2016 19:27 6,8 C 94 % 1007,5 hPa 0,0 l/m 3,5 km/h (1 Bft) S 191 0 min 0,000 mm 0,0 UV-I 0 W/m 5,9 C 6,8 C 4,8 km/h (1 Bft) 100,00 %
09.04.2016 19:28 6,8 C 94 % 1007,5 hPa 0,0 l/m 2,7 km/h (1 Bft) S 191 0 min 0,000 mm 0,0 UV-I 0 W/m 5,9 C 6,8 C 4,8 km/h (1 Bft) 100,00 %
09.04.2016 19:29 6,8 C 94 % 1007,5 hPa 0,0 l/m 2,5 km/h (1 Bft) S 191 0 min 0,000 mm 0,0 UV-I 0 W/m 5,9 C 6,8 C 3,2 km/h (1 Bft) 100,00 %
09.04.2016 19:30 6,8 C 94 % 1007,5 hPa 0,0 l/m 3,4 km/h (1 Bft) S 191 0 min 0,000 mm 0,0 UV-I 0 W/m 5,9 C 6,8 C 4,8 km/h (1 Bft) 100,00 %
09.04.2016 19:31 6,8 C 94 % 1007,5 hPa 0,0 l/m 2,3 km/h (1 Bft) S 191 0 min 0,000 mm 0,0 UV-I 0 W/m 5,9 C 6,8 C 3,2 km/h (1 Bft) 100,00 %
09.04.2016 19:32 6,8 C 94 % 1007,5 hPa 0,0 l/m 2,1 km/h (1 Bft) S 191 0 min 0,000 mm 0,0 UV-I 0 W/m 5,9 C 6,8 C 3,2 km/h (1 Bft) 100,00 %
09.04.2016 19:33 6,8 C 94 % 1007,5 hPa 0,0 l/m 3,1 km/h (1 Bft) S 191 0 min 0,000 mm 0,0 UV-I 0 W/m 5,9 C 6,8 C 4,8 km/h (1 Bft) 100,00 %
09.04.2016 19:34 6,8 C 94 % 1007,5 hPa 0,0 l/m 1,9 km/h (1 Bft) S 191 0 min 0,000 mm 0,0 UV-I 0 W/m 5,9 C 6,8 C 3,2 km/h (1 Bft) 100,00 %
09.04.2016 19:35 6,8 C 94 % 1007,6 hPa 0,0 l/m 2,4 km/h (1 Bft) S 191 0 min 0,000 mm 0,0 UV-I 0 W/m 5,9 C 6,8 C 3,2 km/h (1 Bft) 100,00 %
09.04.2016 19:36 6,8 C 93 % 1007,6 hPa 0,0 l/m 4,1 km/h (1 Bft) S-SW 194 0 min 0,000 mm 0,0 UV-I 0 W/m 5,7 C 6,8 C 4,8 km/h (1 Bft) 100,00 %
09.04.2016 19:37 6,8 C 93 % 1007,6 hPa 0,0 l/m 3,7 km/h (1 Bft) S-SW 194 0 min 0,000 mm 0,0 UV-I 0 W/m 5,7 C 6,8 C 4,8 km/h (1 Bft) 95,65 %
09.04.2016 19:38 6,8 C 93 % 1007,6 hPa 0,0 l/m 2,8 km/h (1 Bft) S-SW 196 0 min 0,000 mm 0,0 UV-I 0 W/m 5,7 C 6,8 C 3,2 km/h (1 Bft) 100,00 %
09.04.2016 19:39 6,8 C 93 % 1007,6 hPa 0,0 l/m 1,9 km/h (1 Bft) S-SW 196 0 min 0,000 mm 0,0 UV-I 0 W/m 5,7 C 6,8 C 3,2 km/h (1 Bft) 95,65 %
09.04.2016 19:40 6,8 C 93 % 1007,5 hPa 0,0 l/m 1,0 km/h (0 Bft) S-SW 196 0 min 0,000 mm 0,0 UV-I 0 W/m 5,7 C 6,8 C 1,6 km/h (1 Bft) 100,00 %
09.04.2016 19:41 6,8 C 93 % 1007,6 hPa 0,0 l/m 1,1 km/h (1 Bft) S-SW 196 0 min 0,000 mm 0,0 UV-I 0 W/m 5,7 C 6,8 C 1,6 km/h (1 Bft) 100,00 %
09.04.2016 19:42 6,8 C 93 % 1007,6 hPa 0,0 l/m 1,2 km/h (1 Bft) S-SW 196 0 min 0,000 mm 0,0 UV-I 0 W/m 5,7 C 6,8 C 3,2 km/h (1 Bft) 100,00 %
09.04.2016 19:43 6,8 C 93 % 1007,6 hPa 0,0 l/m 1,4 km/h (1 Bft) S-SW 196 0 min 0,000 mm 0,0 UV-I 0 W/m 5,7 C 6,8 C 1,6 km/h (1 Bft) 100,00 %
09.04.2016 19:44 6,8 C 93 % 1007,6 hPa 0,0 l/m 0,8 km/h (0 Bft) S-SW 196 0 min 0,000 mm 0,0 UV-I 0 W/m 5,7 C 6,8 C 1,6 km/h (1 Bft) 100,00 %
09.04.2016 19:45 6,8 C 93 % 1007,7 hPa 0,0 l/m 0,8 km/h (0 Bft) S-SW 196 0 min 0,000 mm 0,0 UV-I 0 W/m 5,7 C 6,8 C 1,6 km/h (1 Bft) 96,15 %
09.04.2016 19:46 6,8 C 92 % 1007,7 hPa 0,0 l/m 0,2 km/h (0 Bft) S-SW 196 0 min 0,000 mm 0,0 UV-I 0 W/m 5,6 C 6,8 C 1,6 km/h (1 Bft) 100,00 %
09.04.2016 19:47 6,8 C 92 % 1007,7 hPa 0,0 l/m 0,1 km/h (0 Bft) S-SW 196 0 min 0,000 mm 0,0 UV-I 0 W/m 5,6 C 6,8 C 1,6 km/h (1 Bft) 100,00 %
09.04.2016 19:48 6,8 C 93 % 1007,7 hPa 0,0 l/m 0,0 km/h (0 Bft) S-SW 196 0 min 0,000 mm 0,0 UV-I 0 W/m 5,7 C 6,8 C 0,0 km/h (0 Bft) 100,00 %
09.04.2016 19:49 6,8 C 93 % 1007,7 hPa 0,0 l/m 0,0 km/h (0 Bft) S-SW 196 0 min 0,000 mm 0,0 UV-I 0 W/m 5,7 C 6,8 C 0,0 km/h (0 Bft) 100,00 %
09.04.2016 19:50 6,8 C 93 % 1007,7 hPa 0,0 l/m 1,6 km/h (1 Bft) S-SW 196 0 min 0,000 mm 0,0 UV-I 0 W/m 5,7 C 6,8 C 3,2 km/h (1 Bft) 93,33 %
09.04.2016 19:51 6,8 C 93 % 1007,7 hPa 0,0 l/m 1,9 km/h (1 Bft) S-SW 196 0 min 0,000 mm 0,0 UV-I 0 W/m 5,7 C 6,8 C 3,2 km/h (1 Bft) 100,00 %
09.04.2016 19:52 6,8 C 92 % 1007,7 hPa 0,0 l/m 2,7 km/h (1 Bft) S-SW 196 0 min 0,000 mm 0,0 UV-I 0 W/m 5,6 C 6,8 C 3,2 km/h (1 Bft) 100,00 %
09.04.2016 19:53 6,8 C 92 % 1007,8 hPa 0,0 l/m 0,9 km/h (0 Bft) S-SW 196 0 min 0,000 mm 0,0 UV-I 0 W/m 5,6 C 6,8 C 3,2 km/h (1 Bft) 100,00 %
09.04.2016 19:54 6,8 C 92 % 1007,8 hPa 0,0 l/m 1,4 km/h (1 Bft) S-SW 196 0 min 0,000 mm 0,0 UV-I 0 W/m 5,6 C 6,8 C 3,2 km/h (1 Bft) 100,00 %
09.04.2016 19:55 6,8 C 92 % 1007,8 hPa 0,0 l/m 1,4 km/h (1 Bft) S-SW 196 0 min 0,000 mm 0,0 UV-I 0 W/m 5,6 C 6,8 C 3,2 km/h (1 Bft) 100,00 %
09.04.2016 19:56 6,8 C 92 % 1007,8 hPa 0,0 l/m 1,7 km/h (1 Bft) S-SW 196 0 min 0,000 mm 0,0 UV-I 0 W/m 5,6 C 6,8 C 3,2 km/h (1 Bft) 100,00 %
09.04.2016 19:57 6,8 C 92 % 1007,7 hPa 0,0 l/m 1,4 km/h (1 Bft) S-SW 196 0 min 0,000 mm 0,0 UV-I 0 W/m 5,6 C 6,8 C 1,6 km/h (1 Bft) 95,83 %
09.04.2016 19:58 6,8 C 92 % 1007,8 hPa 0,0 l/m 0,5 km/h (0 Bft) S-SW 196 0 min 0,000 mm 0,0 UV-I 0 W/m 5,6 C 6,8 C 1,6 km/h (1 Bft) 100,00 %
09.04.2016 19:59 6,8 C 92 % 1007,8 hPa 0,0 l/m 0,6 km/h (0 Bft) S-SW 196 0 min 0,000 mm 0,0 UV-I 0 W/m 5,6 C 6,8 C 1,6 km/h (1 Bft) 100,00 %
09.04.2016 20:00 6,8 C 92 % 1007,8 hPa 0,0 l/m 1,3 km/h (1 Bft) S-SW 196 0 min 0,000 mm 0,0 UV-I 0 W/m 5,6 C 6,8 C 1,6 km/h (1 Bft) 100,00 %
09.04.2016 20:01 6,8 C 92 % 1007,8 hPa 0,0 l/m 0,0 km/h (0 Bft) S-SW 196 0 min 0,000 mm 0,0 UV-I 0 W/m 5,6 C 6,8 C 0,0 km/h (0 Bft) 100,00 %
09.04.2016 20:02 6,8 C 92 % 1007,8 hPa 0,0 l/m 2,3 km/h (1 Bft) S-SW 196 0 min 0,000 mm 0,0 UV-I 0 W/m 5,6 C 6,8 C 4,8 km/h (1 Bft) 100,00 %
09.04.2016 20:03 6,8 C 92 % 1007,8 hPa 0,0 l/m 1,6 km/h (1 Bft) S-SW 196 0 min 0,000 mm 0,0 UV-I 0 W/m 5,6 C 6,8 C 3,2 km/h (1 Bft) 100,00 %
09.04.2016 20:04 6,8 C 92 % 1007,8 hPa 0,0 l/m 1,3 km/h (1 Bft) S-SW 196 0 min 0,000 mm 0,0 UV-I 0 W/m 5,6 C 6,8 C 3,2 km/h (1 Bft) 100,00 %
09.04.2016 20:05 6,8 C 92 % 1007,9 hPa 0,0 l/m 1,3 km/h (1 Bft) S-SW 196 0 min 0,000 mm 0,0 UV-I 0 W/m 5,6 C 6,8 C 1,6 km/h (1 Bft) 100,00 %
09.04.2016 20:06 6,8 C 93 % 1007,9 hPa 0,0 l/m 0,3 km/h (0 Bft) S-SW 196 0 min 0,000 mm 0,0 UV-I 0 W/m 5,7 C 6,8 C 1,6 km/h (1 Bft) 100,00 %
09.04.2016 20:07 6,8 C 93 % 1007,9 hPa 0,0 l/m 0,1 km/h (0 Bft) S-SW 196 0 min 0,000 mm 0,0 UV-I 0 W/m 5,7 C 6,8 C 1,6 km/h (1 Bft) 95,83 %
09.04.2016 20:08 6,8 C 93 % 1008,0 hPa 0,0 l/m 1,1 km/h (1 Bft) S-SW 196 0 min 0,000 mm 0,0 UV-I 0 W/m 5,7 C 6,8 C 1,6 km/h (1 Bft) 100,00 %
09.04.2016 20:09 6,8 C 93 % 1008,0 hPa 0,0 l/m 1,9 km/h (1 Bft) S-SW 196 0 min 0,000 mm 0,0 UV-I 0 W/m 5,7 C 6,8 C 3,2 km/h (1 Bft) 100,00 %
09.04.2016 20:10 6,8 C 93 % 1008,0 hPa 0,0 l/m 2,3 km/h (1 Bft) S-SW 196 0 min 0,000 mm 0,0 UV-I 0 W/m 5,7 C 6,8 C 3,2 km/h (1 Bft) 100,00 %
09.04.2016 20:11 6,8 C 93 % 1008,0 hPa 0,0 l/m 2,9 km/h (1 Bft) S-SW 196 0 min 0,000 mm 0,0 UV-I 0 W/m 5,7 C 6,8 C 3,2 km/h (1 Bft) 100,00 %
09.04.2016 20:12 6,8 C 93 % 1008,0 hPa 0,0 l/m 2,4 km/h (1 Bft) S-SW 196 0 min 0,000 mm 0,0 UV-I 0 W/m 5,7 C 6,8 C 3,2 km/h (1 Bft) 100,00 %
09.04.2016 20:13 6,8 C 93 % 1008,0 hPa 0,0 l/m 1,6 km/h (1 Bft) S-SW 196 0 min 0,000 mm 0,0 UV-I 0 W/m 5,7 C 6,8 C 1,6 km/h (1 Bft) 98,53 %
09.04.2016 20:15 6,8 C 93 % 1008,1 hPa 0,0 l/m 1,8 km/h (1 Bft) S-SW 196 0 min 0,000 mm 0,0 UV-I 0 W/m 5,7 C 6,8 C 3,2 km/h (1 Bft) 100,00 %
09.04.2016 20:16 6,8 C 93 % 1008,1 hPa 0,0 l/m 1,8 km/h (1 Bft) S-SW 196 0 min 0,000 mm 0,0 UV-I 0 W/m 5,7 C 6,8 C 3,2 km/h (1 Bft) 95,65 %
09.04.2016 20:17 6,8 C 93 % 1008,1 hPa 0,0 l/m 2,2 km/h (1 Bft) S-SW 196 0 min 0,000 mm 0,0 UV-I 0 W/m 5,7 C 6,8 C 3,2 km/h (1 Bft) 100,00 %
09.04.2016 20:18 6,8 C 93 % 1008,1 hPa 0,0 l/m 1,9 km/h (1 Bft) S-SW 196 0 min 0,000 mm 0,0 UV-I 0 W/m 5,7 C 6,8 C 3,2 km/h (1 Bft) 95,83 %
09.04.2016 20:19 6,8 C 93 % 1008,1 hPa 0,0 l/m 1,3 km/h (1 Bft) S-SW 196 0 min 0,000 mm 0,0 UV-I 0 W/m 5,7 C 6,8 C 1,6 km/h (1 Bft) 100,00 %
09.04.2016 20:20 6,8 C 93 % 1008,1 hPa 0,0 l/m 1,3 km/h (1 Bft) S-SW 196 0 min 0,000 mm 0,0 UV-I 0 W/m 5,7 C 6,8 C 1,6 km/h (1 Bft) 96,15 %
09.04.2016 20:21 6,8 C 93 % 1008,1 hPa 0,0 l/m 1,6 km/h (1 Bft) S-SW 196 0 min 0,000 mm 0,0 UV-I 0 W/m 5,7 C 6,8 C 3,2 km/h (1 Bft) 100,00 %
09.04.2016 20:22 6,8 C 93 % 1008,1 hPa 0,0 l/m 1,3 km/h (1 Bft) S-SW 196 0 min 0,000 mm 0,0 UV-I 0 W/m 5,7 C 6,8 C 1,6 km/h (1 Bft) 91,67 %
09.04.2016 20:23 6,8 C 93 % 1008,1 hPa 0,0 l/m 1,3 km/h (1 Bft) S-SW 196 0 min 0,000 mm 0,0 UV-I 0 W/m 5,7 C 6,8 C 3,2 km/h (1 Bft) 95,65 %
09.04.2016 20:24 6,8 C 93 % 1008,2 hPa 0,0 l/m 1,5 km/h (1 Bft) S-SW 196 0 min 0,000 mm 0,0 UV-I 0 W/m 5,7 C 6,8 C 3,2 km/h (1 Bft) 100,00 %
09.04.2016 20:25 6,8 C 93 % 1008,2 hPa 0,0 l/m 2,1 km/h (1 Bft) S-SW 196 0 min 0,000 mm 0,0 UV-I 0 W/m 5,7 C 6,8 C 3,2 km/h (1 Bft) 97,56 %
09.04.2016 20:26 6,7 C 93 % 1008,2 hPa 0,0 l/m 1,0 km/h (0 Bft) S-SW 196 0 min 0,000 mm 0,0 UV-I 0 W/m 5,6 C 6,7 C 1,6 km/h (1 Bft) 100,00 %
09.04.2016 20:27 6,7 C 93 % 1008,2 hPa 0,0 l/m 2,0 km/h (1 Bft) S-SW 196 0 min 0,000 mm 0,0 UV-I 0 W/m 5,6 C 6,7 C 3,2 km/h (1 Bft) 92,86 %
09.04.2016 20:28 6,7 C 93 % 1008,2 hPa 0,0 l/m 1,8 km/h (1 Bft) S-SW 196 0 min 0,000 mm 0,0 UV-I 0 W/m 5,6 C 6,7 C 3,2 km/h (1 Bft) 100,00 %
09.04.2016 20:29 6,8 C 93 % 1008,2 hPa 0,0 l/m 2,2 km/h (1 Bft) S-SW 196 0 min 0,000 mm 0,0 UV-I 0 W/m 5,7 C 6,8 C 3,2 km/h (1 Bft) 96,15 %
09.04.2016 20:30 6,8 C 93 % 1008,2 hPa 0,0 l/m 1,5 km/h (1 Bft) S-SW 196 0 min 0,000 mm 0,0 UV-I 0 W/m 5,7 C 6,8 C 3,2 km/h (1 Bft) 96,30 %
09.04.2016 20:31 6,8 C 94 % 1008,3 hPa 0,0 l/m 0,8 km/h (0 Bft) S-SW 196 0 min 0,000 mm 0,0 UV-I 0 W/m 5,9 C 6,8 C 1,6 km/h (1 Bft) 100,00 %
09.04.2016 20:32 6,8 C 93 % 1008,2 hPa 0,0 l/m 0,0 km/h (0 Bft) S-SW 196 0 min 0,000 mm 0,0 UV-I 0 W/m 5,7 C 6,8 C 0,0 km/h (0 Bft) 95,83 %
09.04.2016 20:33 6,8 C 93 % 1008,3 hPa 0,0 l/m 0,3 km/h (0 Bft) S-SW 196 0 min 0,000 mm 0,0 UV-I 0 W/m 5,7 C 6,8 C 1,6 km/h (1 Bft) 100,00 %
09.04.2016 20:34 6,8 C 94 % 1008,3 hPa 0,0 l/m 0,7 km/h (0 Bft) S-SW 196 0 min 0,000 mm 0,0 UV-I 0 W/m 5,9 C 6,8 C 1,6 km/h (1 Bft) 96,15 %
09.04.2016 20:35 6,8 C 94 % 1008,3 hPa 0,0 l/m 1,6 km/h (1 Bft) S-SW 196 0 min 0,000 mm 0,0 UV-I 0 W/m 5,9 C 6,8 C 3,2 km/h (1 Bft) 100,00 %
09.04.2016 20:36 6,7 C 94 % 1008,3 hPa 0,0 l/m 2,3 km/h (1 Bft) S-SW 196 0 min 0,000 mm 0,0 UV-I 0 W/m 5,8 C 6,7 C 3,2 km/h (1 Bft) 95,83 %
09.04.2016 20:37 6,7 C 94 % 1008,3 hPa 0,0 l/m 2,3 km/h (1 Bft) S-SW 196 0 min 0,000 mm 0,0 UV-I 0 W/m 5,8 C 6,7 C 3,2 km/h (1 Bft) 100,00 %
09.04.2016 20:38 6,7 C 94 % 1008,3 hPa 0,0 l/m 2,3 km/h (1 Bft) S-SW 196 0 min 0,000 mm 0,0 UV-I 0 W/m 5,8 C 6,7 C 3,2 km/h (1 Bft) 88,89 %
09.04.2016 20:39 6,7 C 94 % 1008,3 hPa 0,0 l/m 1,7 km/h (1 Bft) S-SW 196 0 min 0,000 mm 0,0 UV-I 0 W/m 5,8 C 6,7 C 3,2 km/h (1 Bft) 95,65 %
09.04.2016 20:40 6,7 C 94 % 1008,3 hPa 0,0 l/m 1,7 km/h (1 Bft) S-SW 196 0 min 0,000 mm 0,0 UV-I 0 W/m 5,8 C 6,7 C 3,2 km/h (1 Bft) 100,00 %
09.04.2016 20:41 6,7 C 94 % 1008,3 hPa 0,0 l/m 1,3 km/h (1 Bft) S-SW 196 0 min 0,000 mm 0,0 UV-I 0 W/m 5,8 C 6,7 C 1,6 km/h (1 Bft) 96,30 %
09.04.2016 20:42 6,7 C 94 % 1008,3 hPa 0,0 l/m 1,1 km/h (1 Bft) S-SW 196 0 min 0,000 mm 0,0 UV-I 0 W/m 5,8 C 6,7 C 1,6 km/h (1 Bft) 100,00 %
09.04.2016 20:43 6,7 C 94 % 1008,4 hPa 0,0 l/m 2,4 km/h (1 Bft) S-SW 196 0 min 0,000 mm 0,0 UV-I 0 W/m 5,8 C 6,7 C 4,8 km/h (1 Bft) 95,83 %
09.04.2016 20:44 6,7 C 94 % 1008,3 hPa 0,0 l/m 3,3 km/h (1 Bft) S-SW 196 0 min 0,000 mm 0,0 UV-I 0 W/m 5,8 C 6,7 C 4,8 km/h (1 Bft) 95,65 %
09.04.2016 20:45 6,7 C 94 % 1008,3 hPa 0,0 l/m 2,7 km/h (1 Bft) S-SW 196 0 min 0,000 mm 0,0 UV-I 0 W/m 5,8 C 6,7 C 3,2 km/h (1 Bft) 95,83 %
09.04.2016 20:46 6,7 C 94 % 1008,4 hPa 0,0 l/m 2,8 km/h (1 Bft) S-SW 196 0 min 0,000 mm 0,0 UV-I 0 W/m 5,8 C 6,7 C 3,2 km/h (1 Bft) 95,65 %
09.04.2016 20:47 6,7 C 94 % 1008,4 hPa 0,0 l/m 1,7 km/h (1 Bft) S-SW 196 0 min 0,000 mm 0,0 UV-I 0 W/m 5,8 C 6,7 C 3,2 km/h (1 Bft) 100,00 %
09.04.2016 20:48 6,7 C 95 % 1008,4 hPa 0,0 l/m 1,9 km/h (1 Bft) S-SW 196 0 min 0,000 mm 0,0 UV-I 0 W/m 6,0 C 6,7 C 3,2 km/h (1 Bft) 95,65 %
09.04.2016 20:49 6,7 C 95 % 1008,4 hPa 0,0 l/m 1,9 km/h (1 Bft) S-SW 196 0 min 0,000 mm 0,0 UV-I 0 W/m 6,0 C 6,7 C 3,2 km/h (1 Bft) 100,00 %
09.04.2016 20:50 6,7 C 95 % 1008,4 hPa 0,0 l/m 0,8 km/h (0 Bft) S-SW 196 0 min 0,000 mm 0,0 UV-I 0 W/m 6,0 C 6,7 C 1,6 km/h (1 Bft) 92,86 %
09.04.2016 20:51 6,7 C 95 % 1008,4 hPa 0,0 l/m 2,7 km/h (1 Bft) S-SW 196 0 min 0,000 mm 0,0 UV-I 0 W/m 6,0 C 6,7 C 4,8 km/h (1 Bft) 95,83 %
09.04.2016 20:52 6,7 C 95 % 1008,4 hPa 0,0 l/m 2,5 km/h (1 Bft) S-SW 196 0 min 0,000 mm 0,0 UV-I 0 W/m 6,0 C 6,7 C 3,2 km/h (1 Bft) 100,00 %
09.04.2016 20:53 6,6 C 95 % 1008,4 hPa 0,0 l/m 1,3 km/h (1 Bft) S-SW 196 0 min 0,000 mm 0,0 UV-I 0 W/m 5,9 C 6,6 C 1,6 km/h (1 Bft) 95,83 %
09.04.2016 20:54 6,7 C 95 % 1008,4 hPa 0,0 l/m 2,6 km/h (1 Bft) S-SW 196 0 min 0,000 mm 0,0 UV-I 0 W/m 6,0 C 6,7 C 3,2 km/h (1 Bft) 100,00 %
09.04.2016 20:55 6,7 C 95 % 1008,4 hPa 0,0 l/m 2,1 km/h (1 Bft) S-SW 196 0 min 0,000 mm 0,0 UV-I 0 W/m 6,0 C 6,7 C 3,2 km/h (1 Bft) 100,00 %
09.04.2016 20:56 6,7 C 95 % 1008,4 hPa 0,0 l/m 1,4 km/h (1 Bft) S-SW 196 0 min 0,000 mm 0,0 UV-I 0 W/m 6,0 C 6,7 C 1,6 km/h (1 Bft) 100,00 %
09.04.2016 20:57 6,7 C 95 % 1008,4 hPa 0,0 l/m 1,2 km/h (1 Bft) S-SW 196 0 min 0,000 mm 0,0 UV-I 0 W/m 6,0 C 6,7 C 3,2 km/h (1 Bft) 100,00 %
09.04.2016 20:58 6,7 C 95 % 1008,5 hPa 0,0 l/m 1,0 km/h (0 Bft) S-SW 196 0 min 0,000 mm 0,0 UV-I 0 W/m 6,0 C 6,7 C 3,2 km/h (1 Bft) 100,00 %
09.04.2016 20:59 6,7 C 95 % 1008,4 hPa 0,0 l/m 1,7 km/h (1 Bft) S-SW 196 0 min 0,000 mm 0,0 UV-I 0 W/m 6,0 C 6,7 C 3,2 km/h (1 Bft) 96,15 %
09.04.2016 21:00 6,7 C 95 % 1008,5 hPa 0,0 l/m 0,8 km/h (0 Bft) S-SW 196 0 min 0,000 mm 0,0 UV-I 0 W/m 6,0 C 6,7 C 1,6 km/h (1 Bft) 95,83 %
09.04.2016 21:01 6,7 C 95 % 1008,5 hPa 0,0 l/m 0,2 km/h (0 Bft) S-SW 196 0 min 0,000 mm 0,0 UV-I 0 W/m 6,0 C 6,7 C 1,6 km/h (1 Bft) 100,00 %
09.04.2016 21:02 6,7 C 95 % 1008,5 hPa 0,0 l/m 1,0 km/h (0 Bft) S-SW 196 0 min 0,000 mm 0,0 UV-I 0 W/m 6,0 C 6,7 C 1,6 km/h (1 Bft) 100,00 %
09.04.2016 21:03 6,7 C 95 % 1008,5 hPa 0,0 l/m 2,0 km/h (1 Bft) S-SW 196 0 min 0,000 mm 0,0 UV-I 0 W/m 6,0 C 6,7 C 3,2 km/h (1 Bft) 100,00 %
09.04.2016 21:04 6,6 C 95 % 1008,5 hPa 0,0 l/m 2,2 km/h (1 Bft) S-SW 196 0 min 0,000 mm 0,0 UV-I 0 W/m 5,9 C 6,6 C 3,2 km/h (1 Bft) 100,00 %
09.04.2016 21:05 6,6 C 95 % 1008,5 hPa 0,0 l/m 2,4 km/h (1 Bft) S-SW 196 0 min 0,000 mm 0,0 UV-I 0 W/m 5,9 C 6,6 C 3,2 km/h (1 Bft) 100,00 %
09.04.2016 21:06 6,6 C 95 % 1008,5 hPa 0,0 l/m 2,1 km/h (1 Bft) S-SW 196 0 min 0,000 mm 0,0 UV-I 0 W/m 5,9 C 6,6 C 3,2 km/h (1 Bft) 100,00 %
09.04.2016 21:07 6,6 C 95 % 1008,5 hPa 0,0 l/m 3,0 km/h (1 Bft) S-SW 196 0 min 0,000 mm 0,0 UV-I 0 W/m 5,9 C 6,6 C 3,2 km/h (1 Bft) 100,00 %
09.04.2016 21:08 6,6 C 95 % 1008,5 hPa 0,0 l/m 2,1 km/h (1 Bft) S-SW 196 0 min 0,000 mm 0,0 UV-I 0 W/m 5,9 C 6,6 C 3,2 km/h (1 Bft) 100,00 %
09.04.2016 21:09 6,6 C 95 % 1008,6 hPa 0,0 l/m 1,4 km/h (1 Bft) S-SW 196 0 min 0,000 mm 0,0 UV-I 0 W/m 5,9 C 6,6 C 3,2 km/h (1 Bft) 95,65 %
09.04.2016 21:10 6,6 C 95 % 1008,6 hPa 0,0 l/m 1,9 km/h (1 Bft) S-SW 196 0 min 0,000 mm 0,0 UV-I 0 W/m 5,9 C 6,6 C 3,2 km/h (1 Bft) 100,00 %
09.04.2016 21:11 6,6 C 95 % 1008,6 hPa 0,0 l/m 1,5 km/h (1 Bft) S-SW 196 0 min 0,000 mm 0,0 UV-I 0 W/m 5,9 C 6,6 C 3,2 km/h (1 Bft) 100,00 %
09.04.2016 21:12 6,6 C 95 % 1008,6 hPa 0,0 l/m 1,9 km/h (1 Bft) S-SW 196 0 min 0,000 mm 0,0 UV-I 0 W/m 5,9 C 6,6 C 3,2 km/h (1 Bft) 100,00 %
09.04.2016 21:13 6,6 C 95 % 1008,6 hPa 0,0 l/m 2,6 km/h (1 Bft) S-SW 196 0 min 0,000 mm 0,0 UV-I 0 W/m 5,9 C 6,6 C 3,2 km/h (1 Bft) 96,15 %
09.04.2016 21:14 6,6 C 95 % 1008,6 hPa 0,0 l/m 3,5 km/h (1 Bft) S-SW 196 0 min 0,000 mm 0,0 UV-I 0 W/m 5,9 C 6,6 C 4,8 km/h (1 Bft) 96,30 %
09.04.2016 21:15 6,6 C 95 % 1008,6 hPa 0,0 l/m 3,4 km/h (1 Bft) S-SW 196 0 min 0,000 mm 0,0 UV-I 0 W/m 5,9 C 6,6 C 4,8 km/h (1 Bft) 93,33 %
09.04.2016 21:16 6,6 C 95 % 1008,6 hPa 0,0 l/m 3,7 km/h (1 Bft) S-SW 196 0 min 0,000 mm 0,0 UV-I 0 W/m 5,9 C 6,6 C 4,8 km/h (1 Bft) 96,55 %
09.04.2016 21:17 6,6 C 95 % 1008,6 hPa 0,0 l/m 3,2 km/h (1 Bft) S-SW 196 0 min 0,000 mm 0,0 UV-I 0 W/m 5,9 C 6,6 C 4,8 km/h (1 Bft) 100,00 %
09.04.2016 21:18 6,6 C 95 % 1008,6 hPa 0,0 l/m 3,7 km/h (1 Bft) S-SW 196 0 min 0,000 mm 0,0 UV-I 0 W/m 5,9 C 6,6 C 4,8 km/h (1 Bft) 100,00 %
09.04.2016 21:19 6,6 C 95 % 1008,7 hPa 0,0 l/m 3,2 km/h (1 Bft) S-SW 196 0 min 0,000 mm 0,0 UV-I 0 W/m 5,9 C 6,6 C 4,8 km/h (1 Bft) 100,00 %
09.04.2016 21:20 6,6 C 95 % 1008,7 hPa 0,0 l/m 1,9 km/h (1 Bft) S-SW 196 0 min 0,000 mm 0,0 UV-I 0 W/m 5,9 C 6,6 C 3,2 km/h (1 Bft) 100,00 %
09.04.2016 21:21 6,6 C 95 % 1008,7 hPa 0,0 l/m 0,8 km/h (0 Bft) S-SW 196 0 min 0,000 mm 0,0 UV-I 0 W/m 5,9 C 6,6 C 1,6 km/h (1 Bft) 100,00 %
09.04.2016 21:22 6,6 C 95 % 1008,7 hPa 0,0 l/m 1,4 km/h (1 Bft) S-SW 196 0 min 0,000 mm 0,0 UV-I 0 W/m 5,9 C 6,6 C 1,6 km/h (1 Bft) 95,65 %
09.04.2016 21:23 6,6 C 95 % 1008,7 hPa 0,0 l/m 1,6 km/h (1 Bft) S-SW 196 0 min 0,000 mm 0,0 UV-I 0 W/m 5,9 C 6,6 C 1,6 km/h (1 Bft) 98,49 %
09.04.2016 21:26 6,6 C 95 % 1008,7 hPa 0,0 l/m 2,5 km/h (1 Bft) S-SW 196 0 min 0,000 mm 0,0 UV-I 0 W/m 5,9 C 6,6 C 3,2 km/h (1 Bft) 100,00 %
09.04.2016 21:27 6,6 C 95 % 1008,7 hPa 0,0 l/m 1,4 km/h (1 Bft) S-SW 196 0 min 0,000 mm 0,0 UV-I 0 W/m 5,9 C 6,6 C 3,2 km/h (1 Bft) 100,00 %
09.04.2016 21:28 6,6 C 95 % 1008,7 hPa 0,0 l/m 2,6 km/h (1 Bft) S-SW 196 0 min 0,000 mm 0,0 UV-I 0 W/m 5,9 C 6,6 C 4,8 km/h (1 Bft) 100,00 %
09.04.2016 21:29 6,6 C 95 % 1008,7 hPa 0,0 l/m 2,8 km/h (1 Bft) S-SW 196 0 min 0,000 mm 0,0 UV-I 0 W/m 5,9 C 6,6 C 3,2 km/h (1 Bft) 100,00 %
09.04.2016 21:30 6,6 C 95 % 1008,7 hPa 0,0 l/m 3,0 km/h (1 Bft) S-SW 196 0 min 0,000 mm 0,0 UV-I 0 W/m 5,9 C 6,6 C 3,2 km/h (1 Bft) 92,31 %
09.04.2016 21:31 6,6 C 95 % 1008,7 hPa 0,0 l/m 2,9 km/h (1 Bft) S-SW 196 0 min 0,000 mm 0,0 UV-I 0 W/m 5,9 C 6,6 C 3,2 km/h (1 Bft) 100,00 %
09.04.2016 21:32 6,6 C 95 % 1008,7 hPa 0,0 l/m 3,1 km/h (1 Bft) S-SW 196 0 min 0,000 mm 0,0 UV-I 0 W/m 5,9 C 6,6 C 3,2 km/h (1 Bft) 100,00 %
09.04.2016 21:33 6,6 C 95 % 1008,8 hPa 0,0 l/m 3,8 km/h (1 Bft) S-SW 196 0 min 0,000 mm 0,0 UV-I 0 W/m 5,9 C 6,6 C 4,8 km/h (1 Bft) 100,00 %
09.04.2016 21:34 6,6 C 95 % 1008,7 hPa 0,0 l/m 4,5 km/h (1 Bft) S-SW 196 0 min 0,000 mm 0,0 UV-I 0 W/m 5,9 C 6,6 C 4,8 km/h (1 Bft) 91,30 %
09.04.2016 21:35 6,6 C 95 % 1008,7 hPa 0,0 l/m 4,4 km/h (1 Bft) S-SW 196 0 min 0,000 mm 0,0 UV-I 0 W/m 5,9 C 6,6 C 4,8 km/h (1 Bft) 98,49 %
09.04.2016 21:36 6,6 C 95 % 1008,7 hPa 0,0 l/m 3,8 km/h (1 Bft) S-SW 196 0 min 0,000 mm 0,0 UV-I 0 W/m 5,9 C 6,6 C 4,8 km/h (1 Bft) 100,00 %
09.04.2016 21:37 6,6 C 95 % 1008,7 hPa 0,0 l/m 3,5 km/h (1 Bft) S-SW 196 0 min 0,000 mm 0,0 UV-I 0 W/m 5,9 C 6,6 C 4,8 km/h (1 Bft) 100,00 %
09.04.2016 21:38 6,6 C 95 % 1008,8 hPa 0,0 l/m 2,5 km/h (1 Bft) S-SW 196 0 min 0,000 mm 0,0 UV-I 0 W/m 5,9 C 6,6 C 3,2 km/h (1 Bft) 100,00 %
09.04.2016 21:39 6,6 C 95 % 1008,8 hPa 0,0 l/m 3,9 km/h (1 Bft) S-SW 196 0 min 0,000 mm 0,0 UV-I 0 W/m 5,9 C 6,6 C 6,4 km/h (2 Bft) 100,00 %
09.04.2016 21:40 6,6 C 95 % 1008,8 hPa 0,0 l/m 4,8 km/h (1 Bft) S-SW 196 0 min 0,000 mm 0,0 UV-I 0 W/m 5,9 C 6,6 C 6,4 km/h (2 Bft) 100,00 %
09.04.2016 21:41 6,6 C 96 % 1008,8 hPa 0,0 l/m 5,0 km/h (1 Bft) S-SW 196 0 min 0,000 mm 0,0 UV-I 0 W/m 6,0 C 6,6 C 6,4 km/h (2 Bft) 100,00 %
09.04.2016 21:42 6,6 C 96 % 1008,8 hPa 0,0 l/m 5,6 km/h (1 Bft) S-SW 196 0 min 0,000 mm 0,0 UV-I 0 W/m 6,0 C 6,6 C 6,4 km/h (2 Bft) 95,83 %
09.04.2016 21:43 6,6 C 96 % 1008,8 hPa 0,0 l/m 5,5 km/h (1 Bft) S-SW 197 0 min 0,000 mm 0,0 UV-I 0 W/m 6,0 C 6,6 C 6,4 km/h (2 Bft) 100,00 %
09.04.2016 21:44 6,6 C 96 % 1008,8 hPa 0,0 l/m 4,2 km/h (1 Bft) S-SW 197 0 min 0,000 mm 0,0 UV-I 0 W/m 6,0 C 6,6 C 4,8 km/h (1 Bft) 100,00 %
09.04.2016 21:45 6,6 C 96 % 1008,8 hPa 0,0 l/m 4,4 km/h (1 Bft) S-SW 194 0 min 0,000 mm 0,0 UV-I 0 W/m 6,0 C 6,6 C 6,4 km/h (2 Bft) 96,15 %
09.04.2016 21:46 6,6 C 96 % 1008,8 hPa 0,0 l/m 3,2 km/h (1 Bft) S-SW 194 0 min 0,000 mm 0,0 UV-I 0 W/m 6,0 C 6,6 C 4,8 km/h (1 Bft) 100,00 %
09.04.2016 21:47 6,6 C 96 % 1008,8 hPa 0,0 l/m 4,7 km/h (1 Bft) S 191 0 min 0,000 mm 0,0 UV-I 0 W/m 6,0 C 6,6 C 6,4 km/h (2 Bft) 98,50 %
09.04.2016 21:48 6,6 C 96 % 1008,8 hPa 0,0 l/m 5,3 km/h (1 Bft) S-SW 194 0 min 0,000 mm 0,0 UV-I 0 W/m 6,0 C 6,6 C 6,4 km/h (2 Bft) 100,00 %
09.04.2016 21:49 6,6 C 96 % 1008,8 hPa 0,0 l/m 3,1 km/h (1 Bft) S-SW 194 0 min 0,000 mm 0,0 UV-I 0 W/m 6,0 C 6,6 C 3,2 km/h (1 Bft) 100,00 %
09.04.2016 21:50 6,6 C 96 % 1008,8 hPa 0,0 l/m 3,3 km/h (1 Bft) S-SW 194 0 min 0,000 mm 0,0 UV-I 0 W/m 6,0 C 6,6 C 4,8 km/h (1 Bft) 100,00 %
09.04.2016 21:51 6,6 C 96 % 1008,8 hPa 0,0 l/m 3,5 km/h (1 Bft) S-SW 194 0 min 0,000 mm 0,0 UV-I 0 W/m 6,0 C 6,6 C 4,8 km/h (1 Bft) 100,00 %
09.04.2016 21:52 6,6 C 96 % 1008,8 hPa 0,0 l/m 2,9 km/h (1 Bft) S-SW 194 0 min 0,000 mm 0,0 UV-I 0 W/m 6,0 C 6,6 C 4,8 km/h (1 Bft) 100,00 %
09.04.2016 21:53 6,6 C 96 % 1008,8 hPa 0,0 l/m 3,6 km/h (1 Bft) S-SW 194 0 min 0,000 mm 0,0 UV-I 0 W/m 6,0 C 6,6 C 4,8 km/h (1 Bft) 100,00 %
09.04.2016 21:54 6,5 C 96 % 1008,8 hPa 0,0 l/m 2,9 km/h (1 Bft) S-SW 194 0 min 0,000 mm 0,0 UV-I 0 W/m 5,9 C 6,5 C 4,8 km/h (1 Bft) 100,00 %
09.04.2016 21:55 6,5 C 96 % 1008,9 hPa 0,0 l/m 1,5 km/h (1 Bft) S-SW 194 0 min 0,000 mm 0,0 UV-I 0 W/m 5,9 C 6,5 C 3,2 km/h (1 Bft) 100,00 %
09.04.2016 21:56 6,5 C 96 % 1008,8 hPa 0,0 l/m 2,1 km/h (1 Bft) S-SW 194 0 min 0,000 mm 0,0 UV-I 0 W/m 5,9 C 6,5 C 3,2 km/h (1 Bft) 100,00 %
09.04.2016 21:57 6,5 C 96 % 1008,8 hPa 0,0 l/m 1,4 km/h (1 Bft) S-SW 194 0 min 0,000 mm 0,0 UV-I 0 W/m 5,9 C 6,5 C 3,2 km/h (1 Bft) 100,00 %
09.04.2016 21:58 6,5 C 96 % 1008,8 hPa 0,0 l/m 1,8 km/h (1 Bft) S-SW 194 0 min 0,000 mm 0,0 UV-I 0 W/m 5,9 C 6,5 C 3,2 km/h (1 Bft) 100,00 %
09.04.2016 21:59 6,5 C 96 % 1008,9 hPa 0,0 l/m 2,3 km/h (1 Bft) S-SW 194 0 min 0,000 mm 0,0 UV-I 0 W/m 5,9 C 6,5 C 3,2 km/h (1 Bft) 95,83 %
09.04.2016 22:00 6,5 C 96 % 1008,9 hPa 0,0 l/m 1,8 km/h (1 Bft) S-SW 194 0 min 0,000 mm 0,0 UV-I 0 W/m 5,9 C 6,5 C 3,2 km/h (1 Bft) 100,00 %
09.04.2016 22:01 6,5 C 96 % 1008,9 hPa 0,0 l/m 3,2 km/h (1 Bft) S-SW 194 0 min 0,000 mm 0,0 UV-I 0 W/m 5,9 C 6,5 C 4,8 km/h (1 Bft) 100,00 %
09.04.2016 22:02 6,5 C 96 % 1008,9 hPa 0,0 l/m 2,3 km/h (1 Bft) S-SW 194 0 min 0,000 mm 0,0 UV-I 0 W/m 5,9 C 6,5 C 3,2 km/h (1 Bft) 100,00 %
09.04.2016 22:03 6,5 C 96 % 1008,9 hPa 0,0 l/m 2,4 km/h (1 Bft) S-SW 194 0 min 0,000 mm 0,0 UV-I 0 W/m 5,9 C 6,5 C 3,2 km/h (1 Bft) 100,00 %
09.04.2016 22:04 6,5 C 96 % 1008,9 hPa 0,0 l/m 1,6 km/h (1 Bft) S-SW 194 0 min 0,000 mm 0,0 UV-I 0 W/m 5,9 C 6,5 C 3,2 km/h (1 Bft) 100,00 %
09.04.2016 22:05 6,5 C 96 % 1008,9 hPa 0,0 l/m 2,6 km/h (1 Bft) S-SW 194 0 min 0,000 mm 0,0 UV-I 0 W/m 5,9 C 6,5 C 3,2 km/h (1 Bft) 100,00 %
09.04.2016 22:06 6,5 C 96 % 1008,9 hPa 0,0 l/m 2,5 km/h (1 Bft) S-SW 194 0 min 0,000 mm 0,0 UV-I 0 W/m 5,9 C 6,5 C 3,2 km/h (1 Bft) 100,00 %
09.04.2016 22:07 6,5 C 96 % 1008,9 hPa 0,0 l/m 2,7 km/h (1 Bft) S-SW 194 0 min 0,000 mm 0,0 UV-I 0 W/m 5,9 C 6,5 C 3,2 km/h (1 Bft) 100,00 %
09.04.2016 22:08 6,5 C 96 % 1008,9 hPa 0,0 l/m 1,1 km/h (1 Bft) S-SW 194 0 min 0,000 mm 0,0 UV-I 0 W/m 5,9 C 6,5 C 3,2 km/h (1 Bft) 100,00 %
09.04.2016 22:09 6,5 C 96 % 1008,9 hPa 0,0 l/m 2,0 km/h (1 Bft) S-SW 194 0 min 0,000 mm 0,0 UV-I 0 W/m 5,9 C 6,5 C 3,2 km/h (1 Bft) 100,00 %
09.04.2016 22:10 6,5 C 96 % 1008,9 hPa 0,0 l/m 2,6 km/h (1 Bft) S-SW 194 0 min 0,000 mm 0,0 UV-I 0 W/m 5,9 C 6,5 C 3,2 km/h (1 Bft) 100,00 %
09.04.2016 22:11 6,5 C 96 % 1008,9 hPa 0,0 l/m 1,5 km/h (1 Bft) S-SW 194 0 min 0,000 mm 0,0 UV-I 0 W/m 5,9 C 6,5 C 1,6 km/h (1 Bft) 100,00 %
09.04.2016 22:12 6,5 C 96 % 1008,9 hPa 0,0 l/m 1,5 km/h (1 Bft) S-SW 194 0 min 0,000 mm 0,0 UV-I 0 W/m 5,9 C 6,5 C 3,2 km/h (1 Bft) 100,00 %
09.04.2016 22:13 6,5 C 96 % 1008,9 hPa 0,0 l/m 1,5 km/h (1 Bft) S-SW 194 0 min 0,000 mm 0,0 UV-I 0 W/m 5,9 C 6,5 C 3,2 km/h (1 Bft) 100,00 %
09.04.2016 22:14 6,5 C 96 % 1008,9 hPa 0,0 l/m 1,1 km/h (1 Bft) S-SW 194 0 min 0,000 mm 0,0 UV-I 0 W/m 5,9 C 6,5 C 3,2 km/h (1 Bft) 96,55 %
09.04.2016 22:15 6,4 C 96 % 1008,9 hPa 0,0 l/m 1,3 km/h (1 Bft) S-SW 194 0 min 0,000 mm 0,0 UV-I 0 W/m 5,8 C 6,4 C 3,2 km/h (1 Bft) 100,00 %
09.04.2016 22:16 6,4 C 96 % 1008,8 hPa 0,0 l/m 1,7 km/h (1 Bft) S-SW 194 0 min 0,000 mm 0,0 UV-I 0 W/m 5,8 C 6,4 C 3,2 km/h (1 Bft) 100,00 %
09.04.2016 22:17 6,4 C 96 % 1008,9 hPa 0,0 l/m 0,4 km/h (0 Bft) S-SW 194 0 min 0,000 mm 0,0 UV-I 0 W/m 5,8 C 6,4 C 1,6 km/h (1 Bft) 98,53 %
09.04.2016 22:18 6,4 C 96 % 1008,9 hPa 0,0 l/m 1,3 km/h (1 Bft) S-SW 194 0 min 0,000 mm 0,0 UV-I 0 W/m 5,8 C 6,4 C 3,2 km/h (1 Bft) 97,78 %
09.04.2016 22:19 6,4 C 96 % 1008,9 hPa 0,0 l/m 2,3 km/h (1 Bft) S-SW 194 0 min 0,000 mm 0,0 UV-I 0 W/m 5,8 C 6,4 C 3,2 km/h (1 Bft) 100,00 %
09.04.2016 22:20 6,4 C 96 % 1008,9 hPa 0,0 l/m 3,0 km/h (1 Bft) S-SW 194 0 min 0,000 mm 0,0 UV-I 0 W/m 5,8 C 6,4 C 4,8 km/h (1 Bft) 96,30 %
09.04.2016 22:21 6,4 C 96 % 1008,9 hPa 0,0 l/m 3,7 km/h (1 Bft) S-SW 194 0 min 0,000 mm 0,0 UV-I 0 W/m 5,8 C 6,4 C 4,8 km/h (1 Bft) 91,30 %
09.04.2016 22:22 6,4 C 96 % 1008,9 hPa 0,0 l/m 4,4 km/h (1 Bft) S-SW 194 0 min 0,000 mm 0,0 UV-I 0 W/m 5,8 C 6,4 C 4,8 km/h (1 Bft) 95,83 %
09.04.2016 22:23 6,4 C 96 % 1008,8 hPa 0,0 l/m 4,6 km/h (1 Bft) S-SW 194 0 min 0,000 mm 0,0 UV-I 0 W/m 5,8 C 6,4 C 6,4 km/h (2 Bft) 100,00 %
09.04.2016 22:24 6,4 C 96 % 1008,9 hPa 0,0 l/m 5,5 km/h (1 Bft) S-SW 196 0 min 0,000 mm 0,0 UV-I 0 W/m 5,8 C 6,4 C 8,0 km/h (2 Bft) 91,67 %
09.04.2016 22:25 6,4 C 96 % 1008,8 hPa 0,0 l/m 5,6 km/h (1 Bft) S-SW 195 0 min 0,000 mm 0,0 UV-I 0 W/m 5,8 C 6,4 C 6,4 km/h (2 Bft) 92,31 %
09.04.2016 22:26 6,4 C 96 % 1008,9 hPa 0,0 l/m 5,2 km/h (1 Bft) S-SW 195 0 min 0,000 mm 0,0 UV-I 0 W/m 5,8 C 6,4 C 6,4 km/h (2 Bft) 100,00 %
09.04.2016 22:27 6,4 C 96 % 1008,8 hPa 0,0 l/m 5,8 km/h (2 Bft) S-SW 198 0 min 0,000 mm 0,0 UV-I 0 W/m 5,8 C 6,4 C 6,4 km/h (2 Bft) 95,65 %
09.04.2016 22:28 6,4 C 96 % 1008,9 hPa 0,0 l/m 4,5 km/h (1 Bft) S-SW 194 0 min 0,000 mm 0,0 UV-I 0 W/m 5,8 C 6,4 C 6,4 km/h (2 Bft) 100,00 %
09.04.2016 22:29 6,4 C 96 % 1008,8 hPa 0,0 l/m 4,6 km/h (1 Bft) S-SW 194 0 min 0,000 mm 0,0 UV-I 0 W/m 5,8 C 6,4 C 8,0 km/h (2 Bft) 92,31 %
09.04.2016 22:30 6,4 C 96 % 1008,9 hPa 0,0 l/m 4,2 km/h (1 Bft) S-SW 209 0 min 0,000 mm 0,0 UV-I 0 W/m 5,8 C 6,4 C 6,4 km/h (2 Bft) 96,30 %
09.04.2016 22:31 6,4 C 96 % 1008,9 hPa 0,0 l/m 4,8 km/h (1 Bft) S-SW 208 0 min 0,000 mm 0,0 UV-I 0 W/m 5,8 C 6,4 C 6,4 km/h (2 Bft) 92,86 %
09.04.2016 22:32 6,4 C 96 % 1008,9 hPa 0,0 l/m 4,6 km/h (1 Bft) S 190 0 min 0,000 mm 0,0 UV-I 0 W/m 5,8 C 6,4 C 6,4 km/h (2 Bft) 96,97 %
09.04.2016 22:33 6,4 C 96 % 1008,9 hPa 0,0 l/m 5,1 km/h (1 Bft) S-SW 206 0 min 0,000 mm 0,0 UV-I 0 W/m 5,8 C 6,4 C 8,0 km/h (2 Bft) 100,00 %
09.04.2016 22:34 6,4 C 96 % 1008,9 hPa 0,0 l/m 5,1 km/h (1 Bft) S-SW 207 0 min 0,000 mm 0,0 UV-I 0 W/m 5,8 C 6,4 C 8,0 km/h (2 Bft) 96,15 %
09.04.2016 22:35 6,4 C 96 % 1008,9 hPa 0,0 l/m 5,5 km/h (1 Bft) S 181 0 min 0,000 mm 0,0 UV-I 0 W/m 5,8 C 6,4 C 6,4 km/h (2 Bft) 100,00 %
09.04.2016 22:36 6,4 C 96 % 1008,9 hPa 0,0 l/m 4,7 km/h (1 Bft) S-SW 197 0 min 0,000 mm 0,0 UV-I 0 W/m 5,8 C 6,4 C 6,4 km/h (2 Bft) 96,55 %
09.04.2016 22:37 6,4 C 96 % 1008,9 hPa 0,0 l/m 5,4 km/h (1 Bft) S-SW 197 0 min 0,000 mm 0,0 UV-I 0 W/m 5,8 C 6,4 C 8,0 km/h (2 Bft) 100,00 %
09.04.2016 22:38 6,4 C 96 % 1009,0 hPa 0,0 l/m 5,0 km/h (1 Bft) S-SW 207 0 min 0,000 mm 0,0 UV-I 0 W/m 5,8 C 6,4 C 6,4 km/h (2 Bft) 95,65 %
09.04.2016 22:39 6,4 C 96 % 1008,9 hPa 0,0 l/m 5,1 km/h (1 Bft) S-SW 192 0 min 0,000 mm 0,0 UV-I 0 W/m 5,8 C 6,4 C 6,4 km/h (2 Bft) 96,15 %
09.04.2016 22:40 6,4 C 96 % 1009,0 hPa 0,0 l/m 3,8 km/h (1 Bft) S-SW 192 0 min 0,000 mm 0,0 UV-I 0 W/m 5,8 C 6,4 C 4,8 km/h (1 Bft) 100,00 %
09.04.2016 22:41 6,4 C 96 % 1009,0 hPa 0,0 l/m 3,8 km/h (1 Bft) S 190 0 min 0,000 mm 0,0 UV-I 0 W/m 5,8 C 6,4 C 4,8 km/h (1 Bft) 95,83 %
09.04.2016 22:42 6,4 C 96 % 1009,0 hPa 0,0 l/m 4,2 km/h (1 Bft) S 191 0 min 0,000 mm 0,0 UV-I 0 W/m 5,8 C 6,4 C 4,8 km/h (1 Bft) 100,00 %
09.04.2016 22:43 6,4 C 96 % 1009,0 hPa 0,0 l/m 3,2 km/h (1 Bft) S 191 0 min 0,000 mm 0,0 UV-I 0 W/m 5,8 C 6,4 C 4,8 km/h (1 Bft) 92,59 %
09.04.2016 22:44 6,4 C 96 % 1009,0 hPa 0,0 l/m 2,3 km/h (1 Bft) S 191 0 min 0,000 mm 0,0 UV-I 0 W/m 5,8 C 6,4 C 4,8 km/h (1 Bft) 100,00 %
09.04.2016 22:45 6,4 C 96 % 1009,0 hPa 0,0 l/m 3,3 km/h (1 Bft) S 191 0 min 0,000 mm 0,0 UV-I 0 W/m 5,8 C 6,4 C 4,8 km/h (1 Bft) 96,30 %
09.04.2016 22:46 6,4 C 96 % 1008,9 hPa 0,0 l/m 3,2 km/h (1 Bft) S 191 0 min 0,000 mm 0,0 UV-I 0 W/m 5,8 C 6,4 C 4,8 km/h (1 Bft) 100,00 %
09.04.2016 22:47 6,4 C 96 % 1009,0 hPa 0,0 l/m 1,9 km/h (1 Bft) S 190 0 min 0,000 mm 0,0 UV-I 0 W/m 5,8 C 6,4 C 4,8 km/h (1 Bft) 91,67 %
09.04.2016 22:48 6,3 C 96 % 1009,0 hPa 0,0 l/m 3,7 km/h (1 Bft) S-SW 197 0 min 0,000 mm 0,0 UV-I 0 W/m 5,7 C 6,3 C 6,4 km/h (2 Bft) 96,55 %
09.04.2016 22:49 6,3 C 96 % 1008,9 hPa 0,0 l/m 3,8 km/h (1 Bft) S 190 0 min 0,000 mm 0,0 UV-I 0 W/m 5,7 C 6,3 C 6,4 km/h (2 Bft) 95,83 %
09.04.2016 22:50 6,4 C 96 % 1009,0 hPa 0,0 l/m 3,3 km/h (1 Bft) S 190 0 min 0,000 mm 0,0 UV-I 0 W/m 5,8 C 6,4 C 4,8 km/h (1 Bft) 91,30 %
09.04.2016 22:51 6,4 C 96 % 1009,0 hPa 0,0 l/m 3,8 km/h (1 Bft) S-SW 192 0 min 0,000 mm 0,0 UV-I 0 W/m 5,8 C 6,4 C 6,4 km/h (2 Bft) 100,00 %
09.04.2016 22:52 6,3 C 95 % 1009,0 hPa 0,0 l/m 4,5 km/h (1 Bft) S-SW 194 0 min 0,000 mm 0,0 UV-I 0 W/m 5,6 C 6,3 C 6,4 km/h (2 Bft) 92,31 %
09.04.2016 22:53 6,3 C 95 % 1009,0 hPa 0,0 l/m 3,5 km/h (1 Bft) S-SW 192 0 min 0,000 mm 0,0 UV-I 0 W/m 5,6 C 6,3 C 4,8 km/h (1 Bft) 100,00 %
09.04.2016 22:54 6,3 C 95 % 1009,0 hPa 0,0 l/m 5,7 km/h (1 Bft) S-SW 198 0 min 0,000 mm 0,0 UV-I 0 W/m 5,6 C 6,3 C 6,4 km/h (2 Bft) 100,00 %
09.04.2016 22:55 6,3 C 95 % 1009,0 hPa 0,0 l/m 4,2 km/h (1 Bft) S-SW 198 0 min 0,000 mm 0,0 UV-I 0 W/m 5,6 C 6,3 C 6,4 km/h (2 Bft) 100,00 %
09.04.2016 22:56 6,3 C 95 % 1009,0 hPa 0,0 l/m 3,3 km/h (1 Bft) S-SW 198 0 min 0,000 mm 0,0 UV-I 0 W/m 5,6 C 6,3 C 4,8 km/h (1 Bft) 96,15 %
09.04.2016 22:57 6,3 C 95 % 1009,0 hPa 0,0 l/m 3,6 km/h (1 Bft) S-SW 197 0 min 0,000 mm 0,0 UV-I 0 W/m 5,6 C 6,3 C 6,4 km/h (2 Bft) 100,00 %
09.04.2016 22:58 6,3 C 95 % 1009,0 hPa 0,0 l/m 3,9 km/h (1 Bft) S-SW 197 0 min 0,000 mm 0,0 UV-I 0 W/m 5,6 C 6,3 C 4,8 km/h (1 Bft) 100,00 %
09.04.2016 22:59 6,3 C 95 % 1009,0 hPa 0,0 l/m 4,1 km/h (1 Bft) S-SW 193 0 min 0,000 mm 0,0 UV-I 0 W/m 5,6 C 6,3 C 4,8 km/h (1 Bft) 100,00 %
09.04.2016 23:00 6,3 C 95 % 1009,0 hPa 0,0 l/m 3,8 km/h (1 Bft) S-SW 193 0 min 0,000 mm 0,0 UV-I 0 W/m 5,6 C 6,3 C 4,8 km/h (1 Bft) 95,83 %
09.04.2016 23:01 6,3 C 95 % 1009,0 hPa 0,0 l/m 4,4 km/h (1 Bft) S-SW 193 0 min 0,000 mm 0,0 UV-I 0 W/m 5,6 C 6,3 C 6,4 km/h (2 Bft) 100,00 %
09.04.2016 23:02 6,3 C 95 % 1009,0 hPa 0,0 l/m 4,4 km/h (1 Bft) S-SW 194 0 min 0,000 mm 0,0 UV-I 0 W/m 5,6 C 6,3 C 6,4 km/h (2 Bft) 100,00 %
09.04.2016 23:03 6,3 C 96 % 1009,0 hPa 0,0 l/m 3,7 km/h (1 Bft) S-SW 194 0 min 0,000 mm 0,0 UV-I 0 W/m 5,7 C 6,3 C 4,8 km/h (1 Bft) 100,00 %
09.04.2016 23:04 6,3 C 96 % 1009,0 hPa 0,0 l/m 3,1 km/h (1 Bft) S-SW 194 0 min 0,000 mm 0,0 UV-I 0 W/m 5,7 C 6,3 C 3,2 km/h (1 Bft) 96,30 %
09.04.2016 23:05 6,3 C 96 % 1009,0 hPa 0,0 l/m 3,0 km/h (1 Bft) S-SW 194 0 min 0,000 mm 0,0 UV-I 0 W/m 5,7 C 6,3 C 4,8 km/h (1 Bft) 100,00 %
09.04.2016 23:06 6,3 C 96 % 1009,0 hPa 0,0 l/m 3,5 km/h (1 Bft) S-SW 194 0 min 0,000 mm 0,0 UV-I 0 W/m 5,7 C 6,3 C 4,8 km/h (1 Bft) 100,00 %
09.04.2016 23:07 6,3 C 96 % 1009,0 hPa 0,0 l/m 3,6 km/h (1 Bft) S-SW 194 0 min 0,000 mm 0,0 UV-I 0 W/m 5,7 C 6,3 C 6,4 km/h (2 Bft) 100,00 %
09.04.2016 23:08 6,3 C 96 % 1009,0 hPa 0,0 l/m 4,4 km/h (1 Bft) S-SW 194 0 min 0,000 mm 0,0 UV-I 0 W/m 5,7 C 6,3 C 4,8 km/h (1 Bft) 100,00 %
09.04.2016 23:09 6,3 C 96 % 1009,0 hPa 0,0 l/m 4,3 km/h (1 Bft) S-SW 194 0 min 0,000 mm 0,0 UV-I 0 W/m 5,7 C 6,3 C 4,8 km/h (1 Bft) 100,00 %
09.04.2016 23:10 6,3 C 96 % 1009,0 hPa 0,0 l/m 3,8 km/h (1 Bft) S-SW 194 0 min 0,000 mm 0,0 UV-I 0 W/m 5,7 C 6,3 C 4,8 km/h (1 Bft) 100,00 %
09.04.2016 23:11 6,3 C 96 % 1009,0 hPa 0,0 l/m 3,7 km/h (1 Bft) S-SW 194 0 min 0,000 mm 0,0 UV-I 0 W/m 5,7 C 6,3 C 4,8 km/h (1 Bft) 100,00 %
09.04.2016 23:12 6,3 C 96 % 1009,0 hPa 0,0 l/m 4,3 km/h (1 Bft) S-SW 200 0 min 0,000 mm 0,0 UV-I 0 W/m 5,7 C 6,3 C 6,4 km/h (2 Bft) 91,67 %
09.04.2016 23:13 6,3 C 96 % 1009,0 hPa 0,0 l/m 2,5 km/h (1 Bft) S-SW 200 0 min 0,000 mm 0,0 UV-I 0 W/m 5,7 C 6,3 C 4,8 km/h (1 Bft) 96,30 %
09.04.2016 23:14 6,3 C 96 % 1009,0 hPa 0,0 l/m 3,0 km/h (1 Bft) S-SW 200 0 min 0,000 mm 0,0 UV-I 0 W/m 5,7 C 6,3 C 4,8 km/h (1 Bft) 96,15 %
09.04.2016 23:15 6,3 C 96 % 1009,0 hPa 0,0 l/m 3,1 km/h (1 Bft) S-SW 200 0 min 0,000 mm 0,0 UV-I 0 W/m 5,7 C 6,3 C 3,2 km/h (1 Bft) 100,00 %
09.04.2016 23:16 6,3 C 96 % 1009,0 hPa 0,0 l/m 3,8 km/h (1 Bft) S-SW 196 0 min 0,000 mm 0,0 UV-I 0 W/m 5,7 C 6,3 C 4,8 km/h (1 Bft) 100,00 %
09.04.2016 23:17 6,3 C 96 % 1009,0 hPa 0,0 l/m 3,9 km/h (1 Bft) S-SW 196 0 min 0,000 mm 0,0 UV-I 0 W/m 5,7 C 6,3 C 4,8 km/h (1 Bft) 100,00 %
09.04.2016 23:18 6,3 C 96 % 1009,0 hPa 0,0 l/m 3,9 km/h (1 Bft) S-SW 196 0 min 0,000 mm 0,0 UV-I 0 W/m 5,7 C 6,3 C 4,8 km/h (1 Bft) 100,00 %
09.04.2016 23:19 6,3 C 96 % 1009,0 hPa 0,0 l/m 3,5 km/h (1 Bft) S 184 0 min 0,000 mm 0,0 UV-I 0 W/m 5,7 C 6,3 C 6,4 km/h (2 Bft) 100,00 %
09.04.2016 23:20 6,3 C 96 % 1009,0 hPa 0,0 l/m 2,9 km/h (1 Bft) S 184 0 min 0,000 mm 0,0 UV-I 0 W/m 5,7 C 6,3 C 4,8 km/h (1 Bft) 100,00 %
09.04.2016 23:21 6,3 C 96 % 1009,0 hPa 0,0 l/m 3,8 km/h (1 Bft) S 184 0 min 0,000 mm 0,0 UV-I 0 W/m 5,7 C 6,3 C 6,4 km/h (2 Bft) 100,00 %
09.04.2016 23:22 6,3 C 96 % 1009,0 hPa 0,0 l/m 5,6 km/h (1 Bft) S 184 0 min 0,000 mm 0,0 UV-I 0 W/m 5,7 C 6,3 C 6,4 km/h (2 Bft) 100,00 %
09.04.2016 23:23 6,3 C 96 % 1009,0 hPa 0,0 l/m 5,1 km/h (1 Bft) S 184 0 min 0,000 mm 0,0 UV-I 0 W/m 5,7 C 6,3 C 6,4 km/h (2 Bft) 96,30 %
09.04.2016 23:24 6,3 C 96 % 1009,0 hPa 0,0 l/m 4,6 km/h (1 Bft) S 184 0 min 0,000 mm 0,0 UV-I 0 W/m 5,7 C 6,3 C 6,4 km/h (2 Bft) 100,00 %
09.04.2016 23:25 6,3 C 96 % 1009,0 hPa 0,0 l/m 5,1 km/h (1 Bft) S 185 0 min 0,000 mm 0,0 UV-I 0 W/m 5,7 C 6,3 C 6,4 km/h (2 Bft) 100,00 %
09.04.2016 23:26 6,3 C 96 % 1009,0 hPa 0,0 l/m 5,8 km/h (2 Bft) S 179 0 min 0,000 mm 0,0 UV-I 0 W/m 5,7 C 6,3 C 8,0 km/h (2 Bft) 100,00 %
09.04.2016 23:27 6,3 C 96 % 1009,0 hPa 0,0 l/m 5,7 km/h (1 Bft) S 188 0 min 0,000 mm 0,0 UV-I 0 W/m 5,7 C 6,3 C 9,7 km/h (2 Bft) 92,59 %
09.04.2016 23:28 6,3 C 96 % 1009,0 hPa 0,0 l/m 5,8 km/h (2 Bft) S-SW 204 0 min 0,000 mm 0,0 UV-I 0 W/m 5,7 C 6,3 C 8,0 km/h (2 Bft) 100,00 %
09.04.2016 23:29 6,3 C 96 % 1009,0 hPa 0,0 l/m 5,7 km/h (1 Bft) SW 215 0 min 0,000 mm 0,0 UV-I 0 W/m 5,7 C 6,3 C 8,0 km/h (2 Bft) 100,00 %
09.04.2016 23:30 6,3 C 96 % 1009,0 hPa 0,0 l/m 5,9 km/h (2 Bft) S-SW 205 0 min 0,000 mm 0,0 UV-I 0 W/m 5,7 C 6,3 C 8,0 km/h (2 Bft) 93,10 %
09.04.2016 23:31 6,3 C 96 % 1009,0 hPa 0,0 l/m 4,7 km/h (1 Bft) S-SW 206 0 min 0,000 mm 0,0 UV-I 0 W/m 5,7 C 6,3 C 8,0 km/h (2 Bft) 100,00 %
09.04.2016 23:32 6,3 C 96 % 1009,0 hPa 0,0 l/m 4,9 km/h (1 Bft) S-SW 202 0 min 0,000 mm 0,0 UV-I 0 W/m 5,7 C 6,3 C 8,0 km/h (2 Bft) 100,00 %
09.04.2016 23:33 6,3 C 96 % 1009,0 hPa 0,0 l/m 3,0 km/h (1 Bft) SW 217 0 min 0,000 mm 0,0 UV-I 0 W/m 5,7 C 6,3 C 4,8 km/h (1 Bft) 100,00 %
09.04.2016 23:34 6,2 C 96 % 1009,0 hPa 0,0 l/m 2,9 km/h (1 Bft) SW 217 0 min 0,000 mm 0,0 UV-I 0 W/m 5,6 C 6,2 C 4,8 km/h (1 Bft) 100,00 %
09.04.2016 23:35 6,2 C 96 % 1009,1 hPa 0,0 l/m 3,8 km/h (1 Bft) SW 215 0 min 0,000 mm 0,0 UV-I 0 W/m 5,6 C 6,2 C 4,8 km/h (1 Bft) 100,00 %
09.04.2016 23:36 6,2 C 96 % 1009,0 hPa 0,0 l/m 3,5 km/h (1 Bft) SW 215 0 min 0,000 mm 0,0 UV-I 0 W/m 5,6 C 6,2 C 4,8 km/h (1 Bft) 100,00 %
09.04.2016 23:37 6,2 C 96 % 1009,0 hPa 0,0 l/m 3,2 km/h (1 Bft) SW 215 0 min 0,000 mm 0,0 UV-I 0 W/m 5,6 C 6,2 C 4,8 km/h (1 Bft) 95,65 %
09.04.2016 23:38 6,2 C 96 % 1009,0 hPa 0,0 l/m 3,9 km/h (1 Bft) SW 215 0 min 0,000 mm 0,0 UV-I 0 W/m 5,6 C 6,2 C 6,4 km/h (2 Bft) 100,00 %
09.04.2016 23:39 6,2 C 96 % 1009,0 hPa 0,0 l/m 3,6 km/h (1 Bft) SW 215 0 min 0,000 mm 0,0 UV-I 0 W/m 5,6 C 6,2 C 4,8 km/h (1 Bft) 100,00 %
09.04.2016 23:40 6,2 C 96 % 1009,1 hPa 0,0 l/m 1,7 km/h (1 Bft) SW 215 0 min 0,000 mm 0,0 UV-I 0 W/m 5,6 C 6,2 C 3,2 km/h (1 Bft) 93,33 %
09.04.2016 23:41 6,2 C 96 % 1009,1 hPa 0,0 l/m 0,8 km/h (0 Bft) SW 214 0 min 0,000 mm 0,0 UV-I 0 W/m 5,6 C 6,2 C 3,2 km/h (1 Bft) 100,00 %
09.04.2016 23:42 6,2 C 96 % 1009,1 hPa 0,0 l/m 2,8 km/h (1 Bft) S-SW 213 0 min 0,000 mm 0,0 UV-I 0 W/m 5,6 C 6,2 C 3,2 km/h (1 Bft) 96,30 %
09.04.2016 23:43 6,2 C 96 % 1009,1 hPa 0,0 l/m 3,2 km/h (1 Bft) S-SW 213 0 min 0,000 mm 0,0 UV-I 0 W/m 5,6 C 6,2 C 3,2 km/h (1 Bft) 100,00 %
09.04.2016 23:44 6,2 C 96 % 1009,1 hPa 0,0 l/m 3,0 km/h (1 Bft) S-SW 202 0 min 0,000 mm 0,0 UV-I 0 W/m 5,6 C 6,2 C 4,8 km/h (1 Bft) 100,00 %
09.04.2016 23:45 6,2 C 96 % 1009,1 hPa 0,0 l/m 3,7 km/h (1 Bft) S-SW 202 0 min 0,000 mm 0,0 UV-I 0 W/m 5,6 C 6,2 C 4,8 km/h (1 Bft) 96,15 %
09.04.2016 23:46 6,2 C 96 % 1009,1 hPa 0,0 l/m 5,3 km/h (1 Bft) S 183 0 min 0,000 mm 0,0 UV-I 0 W/m 5,6 C 6,2 C 8,0 km/h (2 Bft) 100,00 %
09.04.2016 23:47 6,2 C 96 % 1009,1 hPa 0,0 l/m 4,8 km/h (1 Bft) S 184 0 min 0,000 mm 0,0 UV-I 0 W/m 5,6 C 6,2 C 6,4 km/h (2 Bft) 91,67 %
09.04.2016 23:48 6,2 C 96 % 1009,1 hPa 0,0 l/m 4,9 km/h (1 Bft) S 188 0 min 0,000 mm 0,0 UV-I 0 W/m 5,6 C 6,2 C 8,0 km/h (2 Bft) 96,55 %
09.04.2016 23:49 6,2 C 96 % 1009,1 hPa 0,0 l/m 3,7 km/h (1 Bft) S 190 0 min 0,000 mm 0,0 UV-I 0 W/m 5,6 C 6,2 C 4,8 km/h (1 Bft) 100,00 %
09.04.2016 23:50 6,2 C 96 % 1009,1 hPa 0,0 l/m 3,4 km/h (1 Bft) S 190 0 min 0,000 mm 0,0 UV-I 0 W/m 5,6 C 6,2 C 4,8 km/h (1 Bft) 100,00 %
09.04.2016 23:51 6,2 C 96 % 1009,1 hPa 0,0 l/m 3,8 km/h (1 Bft) S 190 0 min 0,000 mm 0,0 UV-I 0 W/m 5,6 C 6,2 C 4,8 km/h (1 Bft) 100,00 %
09.04.2016 23:52 6,2 C 96 % 1009,1 hPa 0,0 l/m 3,7 km/h (1 Bft) S 185 0 min 0,000 mm 0,0 UV-I 0 W/m 5,6 C 6,2 C 4,8 km/h (1 Bft) 100,00 %
09.04.2016 23:53 6,2 C 96 % 1009,1 hPa 0,0 l/m 4,7 km/h (1 Bft) S-SW 200 0 min 0,000 mm 0,0 UV-I 0 W/m 5,6 C 6,2 C 6,4 km/h (2 Bft) 100,00 %
09.04.2016 23:54 6,2 C 96 % 1009,1 hPa 0,0 l/m 4,6 km/h (1 Bft) S-SW 200 0 min 0,000 mm 0,0 UV-I 0 W/m 5,6 C 6,2 C 6,4 km/h (2 Bft) 100,00 %
09.04.2016 23:55 6,2 C 96 % 1009,1 hPa 0,0 l/m 4,1 km/h (1 Bft) S-SW 200 0 min 0,000 mm 0,0 UV-I 0 W/m 5,6 C 6,2 C 6,4 km/h (2 Bft) 100,00 %
09.04.2016 23:56 6,2 C 96 % 1009,1 hPa 0,0 l/m 4,6 km/h (1 Bft) S-SW 199 0 min 0,000 mm 0,0 UV-I 0 W/m 5,6 C 6,2 C 6,4 km/h (2 Bft) 100,00 %
09.04.2016 23:57 6,2 C 96 % 1009,1 hPa 0,0 l/m 2,9 km/h (1 Bft) S-SW 199 0 min 0,000 mm 0,0 UV-I 0 W/m 5,6 C 6,2 C 3,2 km/h (1 Bft) 100,00 %
09.04.2016 23:58 6,2 C 96 % 1009,0 hPa 0,0 l/m 2,7 km/h (1 Bft) S-SW 199 0 min 0,000 mm 0,0 UV-I 0 W/m 5,6 C 6,2 C 4,8 km/h (1 Bft) 100,00 %
09.04.2016 23:59 6,2 C 96 % 1009,1 hPa 0,0 l/m 5,3 km/h (1 Bft) W-SW 247 0 min 0,000 mm 0,0 UV-I 0 W/m 5,6 C 6,2 C 8,0 km/h (2 Bft) 96,30 %
_ Min-Zeit 03:45 16:03 16:03 - 12:39 - - - - - - 05:19 00:27 12:39 02:13
Minimum _ 4,3 C 92 % 1006,5 hPa - 0,0 km/h (0 Bft) - - - - - - 3,7 C -0,9 C 0,0 km/h (0 Bft) 75,00 %
_ Max-Zeit 15:12 07:37 23:35 07:20 00:27 - - 00:00 14:00 13:00 13:04 15:14 15:21 02:41 00:06
Maximum _ 7,2 C 97 % 1009,1 hPa 0,2 l/m 14,5 km/h
W-SW (3 Bft)
- - 0 min 0,051 mm 0,8 UV-I 135 W/m 6,3 C 7,2 C 20,9 km/h
SW (4 Bft)
100,00 %
Durchschnitt _ 5,8 C 95 % 1007,6 hPa #0,6 l/m 5,5 km/h (1 Bft) SW - #0 min. #0,254 mm 0,5 UV-I 50 W/m 5,0 C 5,2 C 8,2 km/h (2 Bft) 98,45 %